<?xml version="1.0" encoding="UTF-8" standalone="no" ?>
<gpx xmlns="http://www.topografix.com/GPX/1/1" creator="www.cicloide.com" version="1.1" xmlns:xsi="http://www.w3.org/2001/XMLSchema-instance" xsi:schemaLocation="http://www.topografix.com/GPX/1/1 http://www.topografix.com/GPX/1/1/gpx.xsd">
  <trk>
    <name>www.cicloide.com 10631</name>
    <desc>www.cicloide.com 10631</desc>
    <trkseg>
      <trkpt lat="41.605732000" lon="2.540344100">
        <ele>116.50</ele>
        <time>2012-09-23T07:45:06Z</time>
      </trkpt>
      <trkpt lat="41.605766000" lon="2.540373100">
        <ele>116.50</ele>
        <time>2012-09-23T07:45:20Z</time>
      </trkpt>
      <trkpt lat="41.605839000" lon="2.540390100">
        <ele>116.50</ele>
        <time>2012-09-23T07:45:25Z</time>
      </trkpt>
      <trkpt lat="41.606026000" lon="2.540392100">
        <ele>116.50</ele>
        <time>2012-09-23T07:45:32Z</time>
      </trkpt>
      <trkpt lat="41.606255000" lon="2.540466100">
        <ele>116.50</ele>
        <time>2012-09-23T07:45:39Z</time>
      </trkpt>
      <trkpt lat="41.606472000" lon="2.540582100">
        <ele>116.50</ele>
        <time>2012-09-23T07:45:48Z</time>
      </trkpt>
      <trkpt lat="41.606495000" lon="2.540590100">
        <ele>116.50</ele>
        <time>2012-09-23T07:45:48Z</time>
      </trkpt>
      <trkpt lat="41.606682000" lon="2.540692100">
        <ele>116.50</ele>
        <time>2012-09-23T07:45:56Z</time>
      </trkpt>
      <trkpt lat="41.606876000" lon="2.540777100">
        <ele>116.50</ele>
        <time>2012-09-23T07:46:05Z</time>
      </trkpt>
      <trkpt lat="41.607117000" lon="2.540833100">
        <ele>117.90</ele>
        <time>2012-09-23T07:46:14Z</time>
      </trkpt>
      <trkpt lat="41.607304000" lon="2.540854100">
        <ele>118.90</ele>
        <time>2012-09-23T07:46:21Z</time>
      </trkpt>
      <trkpt lat="41.607487000" lon="2.540861100">
        <ele>119.30</ele>
        <time>2012-09-23T07:46:28Z</time>
      </trkpt>
      <trkpt lat="41.607639000" lon="2.540854100">
        <ele>119.80</ele>
        <time>2012-09-23T07:46:33Z</time>
      </trkpt>
      <trkpt lat="41.607845000" lon="2.540817100">
        <ele>120.30</ele>
        <time>2012-09-23T07:46:42Z</time>
      </trkpt>
      <trkpt lat="41.608036000" lon="2.540829100">
        <ele>120.80</ele>
        <time>2012-09-23T07:46:49Z</time>
      </trkpt>
      <trkpt lat="41.608215000" lon="2.540785100">
        <ele>121.30</ele>
        <time>2012-09-23T07:46:57Z</time>
      </trkpt>
      <trkpt lat="41.608391000" lon="2.540752100">
        <ele>122.20</ele>
        <time>2012-09-23T07:47:04Z</time>
      </trkpt>
      <trkpt lat="41.608547000" lon="2.540702100">
        <ele>122.70</ele>
        <time>2012-09-23T07:47:10Z</time>
      </trkpt>
      <trkpt lat="41.608803000" lon="2.540636100">
        <ele>123.70</ele>
        <time>2012-09-23T07:47:18Z</time>
      </trkpt>
      <trkpt lat="41.609009000" lon="2.540604100">
        <ele>124.60</ele>
        <time>2012-09-23T07:47:25Z</time>
      </trkpt>
      <trkpt lat="41.609310000" lon="2.540568100">
        <ele>125.60</ele>
        <time>2012-09-23T07:47:36Z</time>
      </trkpt>
      <trkpt lat="41.609524000" lon="2.540539100">
        <ele>126.60</ele>
        <time>2012-09-23T07:47:43Z</time>
      </trkpt>
      <trkpt lat="41.609722000" lon="2.540500100">
        <ele>127.00</ele>
        <time>2012-09-23T07:47:50Z</time>
      </trkpt>
      <trkpt lat="41.609921000" lon="2.540433100">
        <ele>127.50</ele>
        <time>2012-09-23T07:47:57Z</time>
      </trkpt>
      <trkpt lat="41.610073000" lon="2.540360100">
        <ele>128.50</ele>
        <time>2012-09-23T07:48:02Z</time>
      </trkpt>
      <trkpt lat="41.610252000" lon="2.540262100">
        <ele>129.40</ele>
        <time>2012-09-23T07:48:09Z</time>
      </trkpt>
      <trkpt lat="41.610443000" lon="2.540169100">
        <ele>130.40</ele>
        <time>2012-09-23T07:48:16Z</time>
      </trkpt>
      <trkpt lat="41.610607000" lon="2.540072100">
        <ele>130.90</ele>
        <time>2012-09-23T07:48:23Z</time>
      </trkpt>
      <trkpt lat="41.610744000" lon="2.540006100">
        <ele>131.40</ele>
        <time>2012-09-23T07:48:28Z</time>
      </trkpt>
      <trkpt lat="41.610970000" lon="2.539897100">
        <ele>131.80</ele>
        <time>2012-09-23T07:48:35Z</time>
      </trkpt>
      <trkpt lat="41.611137000" lon="2.539802100">
        <ele>132.80</ele>
        <time>2012-09-23T07:48:42Z</time>
      </trkpt>
      <trkpt lat="41.611374000" lon="2.539645100">
        <ele>133.80</ele>
        <time>2012-09-23T07:48:49Z</time>
      </trkpt>
      <trkpt lat="41.611526000" lon="2.539502100">
        <ele>134.20</ele>
        <time>2012-09-23T07:48:56Z</time>
      </trkpt>
      <trkpt lat="41.611629000" lon="2.539400100">
        <ele>135.20</ele>
        <time>2012-09-23T07:49:01Z</time>
      </trkpt>
      <trkpt lat="41.611740000" lon="2.539289100">
        <ele>135.70</ele>
        <time>2012-09-23T07:49:06Z</time>
      </trkpt>
      <trkpt lat="41.611889000" lon="2.539120100">
        <ele>136.60</ele>
        <time>2012-09-23T07:49:12Z</time>
      </trkpt>
      <trkpt lat="41.612057000" lon="2.538841100">
        <ele>137.60</ele>
        <time>2012-09-23T07:49:20Z</time>
      </trkpt>
      <trkpt lat="41.612225000" lon="2.538545100">
        <ele>138.60</ele>
        <time>2012-09-23T07:49:29Z</time>
      </trkpt>
      <trkpt lat="41.612396000" lon="2.538319100">
        <ele>140.00</ele>
        <time>2012-09-23T07:49:36Z</time>
      </trkpt>
      <trkpt lat="41.612549000" lon="2.538135100">
        <ele>140.50</ele>
        <time>2012-09-23T07:49:43Z</time>
      </trkpt>
      <trkpt lat="41.612743000" lon="2.537906100">
        <ele>141.00</ele>
        <time>2012-09-23T07:49:53Z</time>
      </trkpt>
      <trkpt lat="41.612892000" lon="2.537730100">
        <ele>142.40</ele>
        <time>2012-09-23T07:50:00Z</time>
      </trkpt>
      <trkpt lat="41.613094000" lon="2.537512100">
        <ele>142.90</ele>
        <time>2012-09-23T07:50:07Z</time>
      </trkpt>
      <trkpt lat="41.613300000" lon="2.537290100">
        <ele>143.90</ele>
        <time>2012-09-23T07:50:16Z</time>
      </trkpt>
      <trkpt lat="41.613461000" lon="2.537095100">
        <ele>144.80</ele>
        <time>2012-09-23T07:50:23Z</time>
      </trkpt>
      <trkpt lat="41.613613000" lon="2.536851100">
        <ele>145.80</ele>
        <time>2012-09-23T07:50:30Z</time>
      </trkpt>
      <trkpt lat="41.613617000" lon="2.536602100">
        <ele>146.30</ele>
        <time>2012-09-23T07:50:37Z</time>
      </trkpt>
      <trkpt lat="41.613705000" lon="2.536354100">
        <ele>146.70</ele>
        <time>2012-09-23T07:50:44Z</time>
      </trkpt>
      <trkpt lat="41.613827000" lon="2.536074100">
        <ele>147.70</ele>
        <time>2012-09-23T07:50:51Z</time>
      </trkpt>
      <trkpt lat="41.613937000" lon="2.535775100">
        <ele>148.70</ele>
        <time>2012-09-23T07:51:00Z</time>
      </trkpt>
      <trkpt lat="41.614033000" lon="2.535465100">
        <ele>149.60</ele>
        <time>2012-09-23T07:51:08Z</time>
      </trkpt>
      <trkpt lat="41.614151000" lon="2.535083100">
        <ele>150.60</ele>
        <time>2012-09-23T07:51:17Z</time>
      </trkpt>
      <trkpt lat="41.614246000" lon="2.534753100">
        <ele>152.00</ele>
        <time>2012-09-23T07:51:26Z</time>
      </trkpt>
      <trkpt lat="41.614353000" lon="2.534481100">
        <ele>153.00</ele>
        <time>2012-09-23T07:51:34Z</time>
      </trkpt>
      <trkpt lat="41.614468000" lon="2.534071100">
        <ele>154.40</ele>
        <time>2012-09-23T07:51:45Z</time>
      </trkpt>
      <trkpt lat="41.614548000" lon="2.533811100">
        <ele>155.90</ele>
        <time>2012-09-23T07:51:52Z</time>
      </trkpt>
      <trkpt lat="41.614651000" lon="2.533464100">
        <ele>156.80</ele>
        <time>2012-09-23T07:52:02Z</time>
      </trkpt>
      <trkpt lat="41.614750000" lon="2.533152100">
        <ele>157.30</ele>
        <time>2012-09-23T07:52:09Z</time>
      </trkpt>
      <trkpt lat="41.614849000" lon="2.532812100">
        <ele>158.30</ele>
        <time>2012-09-23T07:52:18Z</time>
      </trkpt>
      <trkpt lat="41.614952000" lon="2.532471100">
        <ele>159.20</ele>
        <time>2012-09-23T07:52:28Z</time>
      </trkpt>
      <trkpt lat="41.615040000" lon="2.532115100">
        <ele>160.70</ele>
        <time>2012-09-23T07:52:37Z</time>
      </trkpt>
      <trkpt lat="41.615086000" lon="2.531729100">
        <ele>161.20</ele>
        <time>2012-09-23T07:52:46Z</time>
      </trkpt>
      <trkpt lat="41.615108000" lon="2.531328100">
        <ele>162.10</ele>
        <time>2012-09-23T07:52:56Z</time>
      </trkpt>
      <trkpt lat="41.615143000" lon="2.530961100">
        <ele>163.10</ele>
        <time>2012-09-23T07:53:05Z</time>
      </trkpt>
      <trkpt lat="41.615177000" lon="2.530498100">
        <ele>164.00</ele>
        <time>2012-09-23T07:53:17Z</time>
      </trkpt>
      <trkpt lat="41.615181000" lon="2.530161100">
        <ele>166.00</ele>
        <time>2012-09-23T07:53:26Z</time>
      </trkpt>
      <trkpt lat="41.615181000" lon="2.529865100">
        <ele>166.40</ele>
        <time>2012-09-23T07:53:33Z</time>
      </trkpt>
      <trkpt lat="41.615185000" lon="2.529537100">
        <ele>167.40</ele>
        <time>2012-09-23T07:53:43Z</time>
      </trkpt>
      <trkpt lat="41.615200000" lon="2.529170100">
        <ele>168.40</ele>
        <time>2012-09-23T07:53:52Z</time>
      </trkpt>
      <trkpt lat="41.615234000" lon="2.528862100">
        <ele>169.30</ele>
        <time>2012-09-23T07:54:01Z</time>
      </trkpt>
      <trkpt lat="41.615330000" lon="2.528382100">
        <ele>170.30</ele>
        <time>2012-09-23T07:54:13Z</time>
      </trkpt>
      <trkpt lat="41.615410000" lon="2.527975100">
        <ele>171.20</ele>
        <time>2012-09-23T07:54:23Z</time>
      </trkpt>
      <trkpt lat="41.615471000" lon="2.527619100">
        <ele>172.70</ele>
        <time>2012-09-23T07:54:34Z</time>
      </trkpt>
      <trkpt lat="41.615520000" lon="2.527380100">
        <ele>173.20</ele>
        <time>2012-09-23T07:54:41Z</time>
      </trkpt>
      <trkpt lat="41.615574000" lon="2.527095100">
        <ele>174.10</ele>
        <time>2012-09-23T07:54:48Z</time>
      </trkpt>
      <trkpt lat="41.615593000" lon="2.526758100">
        <ele>176.10</ele>
        <time>2012-09-23T07:54:58Z</time>
      </trkpt>
      <trkpt lat="41.615559000" lon="2.526492100">
        <ele>176.50</ele>
        <time>2012-09-23T07:55:07Z</time>
      </trkpt>
      <trkpt lat="41.615524000" lon="2.526203100">
        <ele>178.00</ele>
        <time>2012-09-23T07:55:14Z</time>
      </trkpt>
      <trkpt lat="41.615509000" lon="2.525868100">
        <ele>178.90</ele>
        <time>2012-09-23T07:55:23Z</time>
      </trkpt>
      <trkpt lat="41.615509000" lon="2.525531100">
        <ele>179.40</ele>
        <time>2012-09-23T07:55:31Z</time>
      </trkpt>
      <trkpt lat="41.615528000" lon="2.525156100">
        <ele>180.40</ele>
        <time>2012-09-23T07:55:40Z</time>
      </trkpt>
      <trkpt lat="41.615559000" lon="2.524824100">
        <ele>181.40</ele>
        <time>2012-09-23T07:55:49Z</time>
      </trkpt>
      <trkpt lat="41.615582000" lon="2.524523100">
        <ele>182.80</ele>
        <time>2012-09-23T07:55:57Z</time>
      </trkpt>
      <trkpt lat="41.615601000" lon="2.524224100">
        <ele>183.80</ele>
        <time>2012-09-23T07:56:06Z</time>
      </trkpt>
      <trkpt lat="41.615623000" lon="2.523979100">
        <ele>184.70</ele>
        <time>2012-09-23T07:56:13Z</time>
      </trkpt>
      <trkpt lat="41.615639000" lon="2.523690100">
        <ele>186.60</ele>
        <time>2012-09-23T07:56:20Z</time>
      </trkpt>
      <trkpt lat="41.615673000" lon="2.523376100">
        <ele>187.10</ele>
        <time>2012-09-23T07:56:29Z</time>
      </trkpt>
      <trkpt lat="41.615707000" lon="2.523069100">
        <ele>188.10</ele>
        <time>2012-09-23T07:56:36Z</time>
      </trkpt>
      <trkpt lat="41.615746000" lon="2.522778100">
        <ele>189.00</ele>
        <time>2012-09-23T07:56:44Z</time>
      </trkpt>
      <trkpt lat="41.615768000" lon="2.522543100">
        <ele>190.50</ele>
        <time>2012-09-23T07:56:51Z</time>
      </trkpt>
      <trkpt lat="41.615807000" lon="2.522288100">
        <ele>191.00</ele>
        <time>2012-09-23T07:56:58Z</time>
      </trkpt>
      <trkpt lat="41.615837000" lon="2.522005100">
        <ele>191.90</ele>
        <time>2012-09-23T07:57:07Z</time>
      </trkpt>
      <trkpt lat="41.615891000" lon="2.521667100">
        <ele>192.90</ele>
        <time>2012-09-23T07:57:14Z</time>
      </trkpt>
      <trkpt lat="41.615940000" lon="2.521367100">
        <ele>193.40</ele>
        <time>2012-09-23T07:57:23Z</time>
      </trkpt>
      <trkpt lat="41.615997000" lon="2.521085100">
        <ele>194.30</ele>
        <time>2012-09-23T07:57:30Z</time>
      </trkpt>
      <trkpt lat="41.616081000" lon="2.520736100">
        <ele>195.30</ele>
        <time>2012-09-23T07:57:38Z</time>
      </trkpt>
      <trkpt lat="41.616158000" lon="2.520518100">
        <ele>195.80</ele>
        <time>2012-09-23T07:57:45Z</time>
      </trkpt>
      <trkpt lat="41.616245000" lon="2.520251100">
        <ele>196.20</ele>
        <time>2012-09-23T07:57:54Z</time>
      </trkpt>
      <trkpt lat="41.616394000" lon="2.520038100">
        <ele>196.20</ele>
        <time>2012-09-23T07:57:59Z</time>
      </trkpt>
      <trkpt lat="41.616615000" lon="2.519889100">
        <ele>196.20</ele>
        <time>2012-09-23T07:58:06Z</time>
      </trkpt>
      <trkpt lat="41.616817000" lon="2.519804100">
        <ele>197.20</ele>
        <time>2012-09-23T07:58:13Z</time>
      </trkpt>
      <trkpt lat="41.617111000" lon="2.519736100">
        <ele>198.60</ele>
        <time>2012-09-23T07:58:22Z</time>
      </trkpt>
      <trkpt lat="41.617409000" lon="2.519686100">
        <ele>200.10</ele>
        <time>2012-09-23T07:58:32Z</time>
      </trkpt>
      <trkpt lat="41.617619000" lon="2.519664100">
        <ele>201.10</ele>
        <time>2012-09-23T07:58:41Z</time>
      </trkpt>
      <trkpt lat="41.617744000" lon="2.519646100">
        <ele>201.50</ele>
        <time>2012-09-23T07:58:48Z</time>
      </trkpt>
      <trkpt lat="41.617783000" lon="2.519640100">
        <ele>202.00</ele>
        <time>2012-09-23T07:58:55Z</time>
      </trkpt>
      <trkpt lat="41.617783000" lon="2.519661100">
        <ele>203.00</ele>
        <time>2012-09-23T07:59:02Z</time>
      </trkpt>
      <trkpt lat="41.617802000" lon="2.519693100">
        <ele>203.50</ele>
        <time>2012-09-23T07:59:11Z</time>
      </trkpt>
      <trkpt lat="41.617805000" lon="2.519707100">
        <ele>203.50</ele>
        <time>2012-09-23T07:59:14Z</time>
      </trkpt>
      <trkpt lat="41.617817000" lon="2.519717100">
        <ele>203.50</ele>
        <time>2012-09-23T07:59:16Z</time>
      </trkpt>
      <trkpt lat="41.617867000" lon="2.519805100">
        <ele>203.50</ele>
        <time>2012-09-23T07:59:21Z</time>
      </trkpt>
      <trkpt lat="41.617870000" lon="2.519914100">
        <ele>203.90</ele>
        <time>2012-09-23T07:59:26Z</time>
      </trkpt>
      <trkpt lat="41.617794000" lon="2.520066100">
        <ele>205.40</ele>
        <time>2012-09-23T07:59:33Z</time>
      </trkpt>
      <trkpt lat="41.617687000" lon="2.520191100">
        <ele>206.80</ele>
        <time>2012-09-23T07:59:42Z</time>
      </trkpt>
      <trkpt lat="41.617664000" lon="2.520333100">
        <ele>208.30</ele>
        <time>2012-09-23T07:59:49Z</time>
      </trkpt>
      <trkpt lat="41.617664000" lon="2.520542100">
        <ele>210.20</ele>
        <time>2012-09-23T07:59:58Z</time>
      </trkpt>
      <trkpt lat="41.617653000" lon="2.520566100">
        <ele>210.20</ele>
        <time>2012-09-23T07:59:58Z</time>
      </trkpt>
      <trkpt lat="41.617641000" lon="2.520643100">
        <ele>210.70</ele>
        <time>2012-09-23T08:00:01Z</time>
      </trkpt>
      <trkpt lat="41.617683000" lon="2.520869100">
        <ele>211.60</ele>
        <time>2012-09-23T08:00:10Z</time>
      </trkpt>
      <trkpt lat="41.617741000" lon="2.521074100">
        <ele>212.60</ele>
        <time>2012-09-23T08:00:19Z</time>
      </trkpt>
      <trkpt lat="41.617790000" lon="2.521246100">
        <ele>213.10</ele>
        <time>2012-09-23T08:00:26Z</time>
      </trkpt>
      <trkpt lat="41.617840000" lon="2.521472100">
        <ele>214.00</ele>
        <time>2012-09-23T08:00:36Z</time>
      </trkpt>
      <trkpt lat="41.617901000" lon="2.521641100">
        <ele>215.50</ele>
        <time>2012-09-23T08:00:43Z</time>
      </trkpt>
      <trkpt lat="41.617989000" lon="2.521608100">
        <ele>216.90</ele>
        <time>2012-09-23T08:00:50Z</time>
      </trkpt>
      <trkpt lat="41.617996000" lon="2.521588100">
        <ele>216.90</ele>
        <time>2012-09-23T08:00:50Z</time>
      </trkpt>
      <trkpt lat="41.618073000" lon="2.521388100">
        <ele>219.30</ele>
        <time>2012-09-23T08:01:00Z</time>
      </trkpt>
      <trkpt lat="41.618153000" lon="2.521250100">
        <ele>221.20</ele>
        <time>2012-09-23T08:01:09Z</time>
      </trkpt>
      <trkpt lat="41.618221000" lon="2.521111100">
        <ele>222.70</ele>
        <time>2012-09-23T08:01:18Z</time>
      </trkpt>
      <trkpt lat="41.618271000" lon="2.520966100">
        <ele>224.10</ele>
        <time>2012-09-23T08:01:28Z</time>
      </trkpt>
      <trkpt lat="41.618313000" lon="2.520804100">
        <ele>226.10</ele>
        <time>2012-09-23T08:01:37Z</time>
      </trkpt>
      <trkpt lat="41.618401000" lon="2.520666100">
        <ele>228.00</ele>
        <time>2012-09-23T08:01:46Z</time>
      </trkpt>
      <trkpt lat="41.618534000" lon="2.520604100">
        <ele>229.40</ele>
        <time>2012-09-23T08:01:54Z</time>
      </trkpt>
      <trkpt lat="41.618668000" lon="2.520576100">
        <ele>230.90</ele>
        <time>2012-09-23T08:02:03Z</time>
      </trkpt>
      <trkpt lat="41.618782000" lon="2.520540100">
        <ele>232.30</ele>
        <time>2012-09-23T08:02:12Z</time>
      </trkpt>
      <trkpt lat="41.618908000" lon="2.520475100">
        <ele>233.70</ele>
        <time>2012-09-23T08:02:21Z</time>
      </trkpt>
      <trkpt lat="41.619041000" lon="2.520407100">
        <ele>235.20</ele>
        <time>2012-09-23T08:02:29Z</time>
      </trkpt>
      <trkpt lat="41.619175000" lon="2.520332100">
        <ele>237.60</ele>
        <time>2012-09-23T08:02:40Z</time>
      </trkpt>
      <trkpt lat="41.619305000" lon="2.520304100">
        <ele>239.50</ele>
        <time>2012-09-23T08:02:48Z</time>
      </trkpt>
      <trkpt lat="41.619408000" lon="2.520339100">
        <ele>240.90</ele>
        <time>2012-09-23T08:02:57Z</time>
      </trkpt>
      <trkpt lat="41.619514000" lon="2.520354100">
        <ele>244.30</ele>
        <time>2012-09-23T08:03:04Z</time>
      </trkpt>
      <trkpt lat="41.619598000" lon="2.520330100">
        <ele>247.70</ele>
        <time>2012-09-23T08:03:11Z</time>
      </trkpt>
      <trkpt lat="41.619724000" lon="2.520289100">
        <ele>247.20</ele>
        <time>2012-09-23T08:03:20Z</time>
      </trkpt>
      <trkpt lat="41.619854000" lon="2.520234100">
        <ele>248.60</ele>
        <time>2012-09-23T08:03:29Z</time>
      </trkpt>
      <trkpt lat="41.620003000" lon="2.520158100">
        <ele>250.60</ele>
        <time>2012-09-23T08:03:39Z</time>
      </trkpt>
      <trkpt lat="41.620167000" lon="2.520125100">
        <ele>252.50</ele>
        <time>2012-09-23T08:03:51Z</time>
      </trkpt>
      <trkpt lat="41.620266000" lon="2.520139100">
        <ele>253.90</ele>
        <time>2012-09-23T08:03:58Z</time>
      </trkpt>
      <trkpt lat="41.620274000" lon="2.520138100">
        <ele>253.90</ele>
        <time>2012-09-23T08:04:00Z</time>
      </trkpt>
      <trkpt lat="41.620335000" lon="2.520166100">
        <ele>254.90</ele>
        <time>2012-09-23T08:04:05Z</time>
      </trkpt>
      <trkpt lat="41.620461000" lon="2.520213100">
        <ele>256.30</ele>
        <time>2012-09-23T08:04:14Z</time>
      </trkpt>
      <trkpt lat="41.620586000" lon="2.520248100">
        <ele>257.80</ele>
        <time>2012-09-23T08:04:23Z</time>
      </trkpt>
      <trkpt lat="41.620762000" lon="2.520257100">
        <ele>259.70</ele>
        <time>2012-09-23T08:04:33Z</time>
      </trkpt>
      <trkpt lat="41.620926000" lon="2.520269100">
        <ele>261.10</ele>
        <time>2012-09-23T08:04:43Z</time>
      </trkpt>
      <trkpt lat="41.621040000" lon="2.520302100">
        <ele>262.60</ele>
        <time>2012-09-23T08:04:52Z</time>
      </trkpt>
      <trkpt lat="41.621147000" lon="2.520324100">
        <ele>263.50</ele>
        <time>2012-09-23T08:04:59Z</time>
      </trkpt>
      <trkpt lat="41.621265000" lon="2.520318100">
        <ele>265.50</ele>
        <time>2012-09-23T08:05:06Z</time>
      </trkpt>
      <trkpt lat="41.621403000" lon="2.520340100">
        <ele>266.40</ele>
        <time>2012-09-23T08:05:15Z</time>
      </trkpt>
      <trkpt lat="41.621521000" lon="2.520409100">
        <ele>268.40</ele>
        <time>2012-09-23T08:05:25Z</time>
      </trkpt>
      <trkpt lat="41.621632000" lon="2.520444100">
        <ele>270.30</ele>
        <time>2012-09-23T08:05:32Z</time>
      </trkpt>
      <trkpt lat="41.621666000" lon="2.520437100">
        <ele>270.80</ele>
        <time>2012-09-23T08:05:36Z</time>
      </trkpt>
      <trkpt lat="41.621777000" lon="2.520442100">
        <ele>274.60</ele>
        <time>2012-09-23T08:05:43Z</time>
      </trkpt>
      <trkpt lat="41.621845000" lon="2.520453100">
        <ele>277.50</ele>
        <time>2012-09-23T08:05:48Z</time>
      </trkpt>
      <trkpt lat="41.621967000" lon="2.520483100">
        <ele>278.00</ele>
        <time>2012-09-23T08:05:58Z</time>
      </trkpt>
      <trkpt lat="41.622097000" lon="2.520452100">
        <ele>279.40</ele>
        <time>2012-09-23T08:06:07Z</time>
      </trkpt>
      <trkpt lat="41.622211000" lon="2.520405100">
        <ele>280.40</ele>
        <time>2012-09-23T08:06:16Z</time>
      </trkpt>
      <trkpt lat="41.622238000" lon="2.520398100">
        <ele>280.80</ele>
        <time>2012-09-23T08:06:19Z</time>
      </trkpt>
      <trkpt lat="41.622303000" lon="2.520379100">
        <ele>281.30</ele>
        <time>2012-09-23T08:06:23Z</time>
      </trkpt>
      <trkpt lat="41.622421000" lon="2.520365100">
        <ele>282.80</ele>
        <time>2012-09-23T08:06:30Z</time>
      </trkpt>
      <trkpt lat="41.622444000" lon="2.520479100">
        <ele>284.20</ele>
        <time>2012-09-23T08:06:38Z</time>
      </trkpt>
      <trkpt lat="41.622410000" lon="2.520506100">
        <ele>284.70</ele>
        <time>2012-09-23T08:06:42Z</time>
      </trkpt>
      <trkpt lat="41.622353000" lon="2.520510100">
        <ele>285.20</ele>
        <time>2012-09-23T08:06:47Z</time>
      </trkpt>
      <trkpt lat="41.622261000" lon="2.520549100">
        <ele>287.10</ele>
        <time>2012-09-23T08:06:56Z</time>
      </trkpt>
      <trkpt lat="41.622200000" lon="2.520611100">
        <ele>288.00</ele>
        <time>2012-09-23T08:07:03Z</time>
      </trkpt>
      <trkpt lat="41.622128000" lon="2.520686100">
        <ele>289.00</ele>
        <time>2012-09-23T08:07:10Z</time>
      </trkpt>
      <trkpt lat="41.622032000" lon="2.520767100">
        <ele>290.50</ele>
        <time>2012-09-23T08:07:18Z</time>
      </trkpt>
      <trkpt lat="41.621941000" lon="2.520860100">
        <ele>291.90</ele>
        <time>2012-09-23T08:07:27Z</time>
      </trkpt>
      <trkpt lat="41.621834000" lon="2.520957100">
        <ele>292.90</ele>
        <time>2012-09-23T08:07:36Z</time>
      </trkpt>
      <trkpt lat="41.621719000" lon="2.521039100">
        <ele>293.80</ele>
        <time>2012-09-23T08:07:43Z</time>
      </trkpt>
      <trkpt lat="41.621601000" lon="2.520999100">
        <ele>294.80</ele>
        <time>2012-09-23T08:07:50Z</time>
      </trkpt>
      <trkpt lat="41.621574000" lon="2.520992100">
        <ele>294.80</ele>
        <time>2012-09-23T08:07:53Z</time>
      </trkpt>
      <trkpt lat="41.621368000" lon="2.521003100">
        <ele>295.70</ele>
        <time>2012-09-23T08:08:04Z</time>
      </trkpt>
      <trkpt lat="41.621212000" lon="2.521053100">
        <ele>296.70</ele>
        <time>2012-09-23T08:08:14Z</time>
      </trkpt>
      <trkpt lat="41.621166000" lon="2.521066100">
        <ele>297.20</ele>
        <time>2012-09-23T08:08:16Z</time>
      </trkpt>
      <trkpt lat="41.621162000" lon="2.521151100">
        <ele>297.70</ele>
        <time>2012-09-23T08:08:23Z</time>
      </trkpt>
      <trkpt lat="41.621189000" lon="2.521149100">
        <ele>298.60</ele>
        <time>2012-09-23T08:08:25Z</time>
      </trkpt>
      <trkpt lat="41.621300000" lon="2.521154100">
        <ele>300.10</ele>
        <time>2012-09-23T08:08:35Z</time>
      </trkpt>
      <trkpt lat="41.621372000" lon="2.521243100">
        <ele>301.50</ele>
        <time>2012-09-23T08:08:42Z</time>
      </trkpt>
      <trkpt lat="41.621429000" lon="2.521330100">
        <ele>302.50</ele>
        <time>2012-09-23T08:08:49Z</time>
      </trkpt>
      <trkpt lat="41.621525000" lon="2.521453100">
        <ele>304.40</ele>
        <time>2012-09-23T08:08:58Z</time>
      </trkpt>
      <trkpt lat="41.621548000" lon="2.521480100">
        <ele>304.90</ele>
        <time>2012-09-23T08:08:59Z</time>
      </trkpt>
      <trkpt lat="41.621578000" lon="2.521563100">
        <ele>305.40</ele>
        <time>2012-09-23T08:09:03Z</time>
      </trkpt>
      <trkpt lat="41.621677000" lon="2.521728100">
        <ele>307.30</ele>
        <time>2012-09-23T08:09:13Z</time>
      </trkpt>
      <trkpt lat="41.621685000" lon="2.521745100">
        <ele>307.30</ele>
        <time>2012-09-23T08:09:15Z</time>
      </trkpt>
      <trkpt lat="41.621696000" lon="2.521783100">
        <ele>307.80</ele>
        <time>2012-09-23T08:09:17Z</time>
      </trkpt>
      <trkpt lat="41.621761000" lon="2.521948100">
        <ele>309.70</ele>
        <time>2012-09-23T08:09:26Z</time>
      </trkpt>
      <trkpt lat="41.621822000" lon="2.522111100">
        <ele>311.10</ele>
        <time>2012-09-23T08:09:34Z</time>
      </trkpt>
      <trkpt lat="41.621880000" lon="2.522278100">
        <ele>313.00</ele>
        <time>2012-09-23T08:09:43Z</time>
      </trkpt>
      <trkpt lat="41.621895000" lon="2.522316100">
        <ele>313.50</ele>
        <time>2012-09-23T08:09:45Z</time>
      </trkpt>
      <trkpt lat="41.621960000" lon="2.522289100">
        <ele>314.50</ele>
        <time>2012-09-23T08:09:52Z</time>
      </trkpt>
      <trkpt lat="41.621952000" lon="2.522177100">
        <ele>315.00</ele>
        <time>2012-09-23T08:09:57Z</time>
      </trkpt>
      <trkpt lat="41.621925000" lon="2.522018100">
        <ele>316.90</ele>
        <time>2012-09-23T08:10:06Z</time>
      </trkpt>
      <trkpt lat="41.621944000" lon="2.521838100">
        <ele>318.30</ele>
        <time>2012-09-23T08:10:13Z</time>
      </trkpt>
      <trkpt lat="41.621979000" lon="2.521677100">
        <ele>319.80</ele>
        <time>2012-09-23T08:10:21Z</time>
      </trkpt>
      <trkpt lat="41.622078000" lon="2.521548100">
        <ele>320.70</ele>
        <time>2012-09-23T08:10:28Z</time>
      </trkpt>
      <trkpt lat="41.622208000" lon="2.521540100">
        <ele>321.70</ele>
        <time>2012-09-23T08:10:37Z</time>
      </trkpt>
      <trkpt lat="41.622326000" lon="2.521636100">
        <ele>323.10</ele>
        <time>2012-09-23T08:10:46Z</time>
      </trkpt>
      <trkpt lat="41.622452000" lon="2.521733100">
        <ele>324.60</ele>
        <time>2012-09-23T08:10:54Z</time>
      </trkpt>
      <trkpt lat="41.622604000" lon="2.521825100">
        <ele>326.50</ele>
        <time>2012-09-23T08:11:03Z</time>
      </trkpt>
      <trkpt lat="41.622753000" lon="2.521860100">
        <ele>328.40</ele>
        <time>2012-09-23T08:11:12Z</time>
      </trkpt>
      <trkpt lat="41.622917000" lon="2.521853100">
        <ele>329.90</ele>
        <time>2012-09-23T08:11:21Z</time>
      </trkpt>
      <trkpt lat="41.623093000" lon="2.521805100">
        <ele>331.30</ele>
        <time>2012-09-23T08:11:31Z</time>
      </trkpt>
      <trkpt lat="41.623226000" lon="2.521882100">
        <ele>332.30</ele>
        <time>2012-09-23T08:11:38Z</time>
      </trkpt>
      <trkpt lat="41.623337000" lon="2.522004100">
        <ele>333.70</ele>
        <time>2012-09-23T08:11:45Z</time>
      </trkpt>
      <trkpt lat="41.623463000" lon="2.522157100">
        <ele>334.70</ele>
        <time>2012-09-23T08:11:54Z</time>
      </trkpt>
      <trkpt lat="41.623611000" lon="2.522279100">
        <ele>335.60</ele>
        <time>2012-09-23T08:12:01Z</time>
      </trkpt>
      <trkpt lat="41.623749000" lon="2.522388100">
        <ele>336.10</ele>
        <time>2012-09-23T08:12:09Z</time>
      </trkpt>
      <trkpt lat="41.623844000" lon="2.522461100">
        <ele>336.60</ele>
        <time>2012-09-23T08:12:15Z</time>
      </trkpt>
      <trkpt lat="41.624008000" lon="2.522664100">
        <ele>338.00</ele>
        <time>2012-09-23T08:12:25Z</time>
      </trkpt>
      <trkpt lat="41.624107000" lon="2.522913100">
        <ele>338.50</ele>
        <time>2012-09-23T08:12:34Z</time>
      </trkpt>
      <trkpt lat="41.624168000" lon="2.523121100">
        <ele>339.00</ele>
        <time>2012-09-23T08:12:41Z</time>
      </trkpt>
      <trkpt lat="41.624252000" lon="2.523448100">
        <ele>339.50</ele>
        <time>2012-09-23T08:12:51Z</time>
      </trkpt>
      <trkpt lat="41.624336000" lon="2.523653100">
        <ele>340.00</ele>
        <time>2012-09-23T08:13:00Z</time>
      </trkpt>
      <trkpt lat="41.624409000" lon="2.523826100">
        <ele>341.40</ele>
        <time>2012-09-23T08:13:07Z</time>
      </trkpt>
      <trkpt lat="41.624489000" lon="2.523992100">
        <ele>342.40</ele>
        <time>2012-09-23T08:13:14Z</time>
      </trkpt>
      <trkpt lat="41.624550000" lon="2.524166100">
        <ele>343.30</ele>
        <time>2012-09-23T08:13:21Z</time>
      </trkpt>
      <trkpt lat="41.624641000" lon="2.524397100">
        <ele>344.30</ele>
        <time>2012-09-23T08:13:30Z</time>
      </trkpt>
      <trkpt lat="41.624744000" lon="2.524684100">
        <ele>346.20</ele>
        <time>2012-09-23T08:13:40Z</time>
      </trkpt>
      <trkpt lat="41.624840000" lon="2.524953100">
        <ele>347.60</ele>
        <time>2012-09-23T08:13:49Z</time>
      </trkpt>
      <trkpt lat="41.624977000" lon="2.525179100">
        <ele>348.10</ele>
        <time>2012-09-23T08:13:57Z</time>
      </trkpt>
      <trkpt lat="41.625122000" lon="2.525326100">
        <ele>348.60</ele>
        <time>2012-09-23T08:14:04Z</time>
      </trkpt>
      <trkpt lat="41.625298000" lon="2.525538100">
        <ele>349.10</ele>
        <time>2012-09-23T08:14:13Z</time>
      </trkpt>
      <trkpt lat="41.625450000" lon="2.525796100">
        <ele>350.50</ele>
        <time>2012-09-23T08:14:24Z</time>
      </trkpt>
      <trkpt lat="41.625626000" lon="2.526044100">
        <ele>350.50</ele>
        <time>2012-09-23T08:14:32Z</time>
      </trkpt>
      <trkpt lat="41.625835000" lon="2.526184100">
        <ele>350.50</ele>
        <time>2012-09-23T08:14:41Z</time>
      </trkpt>
      <trkpt lat="41.626034000" lon="2.526337100">
        <ele>350.50</ele>
        <time>2012-09-23T08:14:48Z</time>
      </trkpt>
      <trkpt lat="41.626183000" lon="2.526530100">
        <ele>350.50</ele>
        <time>2012-09-23T08:14:57Z</time>
      </trkpt>
      <trkpt lat="41.626282000" lon="2.526734100">
        <ele>351.00</ele>
        <time>2012-09-23T08:15:05Z</time>
      </trkpt>
      <trkpt lat="41.626312000" lon="2.526895100">
        <ele>351.50</ele>
        <time>2012-09-23T08:15:11Z</time>
      </trkpt>
      <trkpt lat="41.626362000" lon="2.526970100">
        <ele>351.50</ele>
        <time>2012-09-23T08:15:16Z</time>
      </trkpt>
      <trkpt lat="41.626419000" lon="2.527074100">
        <ele>351.50</ele>
        <time>2012-09-23T08:15:21Z</time>
      </trkpt>
      <trkpt lat="41.626537000" lon="2.527195100">
        <ele>352.50</ele>
        <time>2012-09-23T08:15:28Z</time>
      </trkpt>
      <trkpt lat="41.626625000" lon="2.527193100">
        <ele>352.90</ele>
        <time>2012-09-23T08:15:33Z</time>
      </trkpt>
      <trkpt lat="41.626778000" lon="2.527186100">
        <ele>354.40</ele>
        <time>2012-09-23T08:15:42Z</time>
      </trkpt>
      <trkpt lat="41.626957000" lon="2.527179100">
        <ele>355.30</ele>
        <time>2012-09-23T08:15:51Z</time>
      </trkpt>
      <trkpt lat="41.627163000" lon="2.527170100">
        <ele>356.30</ele>
        <time>2012-09-23T08:15:59Z</time>
      </trkpt>
      <trkpt lat="41.627445000" lon="2.527163100">
        <ele>356.30</ele>
        <time>2012-09-23T08:16:06Z</time>
      </trkpt>
      <trkpt lat="41.627842000" lon="2.527155100">
        <ele>356.30</ele>
        <time>2012-09-23T08:16:13Z</time>
      </trkpt>
      <trkpt lat="41.628120000" lon="2.527159100">
        <ele>354.90</ele>
        <time>2012-09-23T08:16:17Z</time>
      </trkpt>
      <trkpt lat="41.628418000" lon="2.527132100">
        <ele>353.40</ele>
        <time>2012-09-23T08:16:20Z</time>
      </trkpt>
      <trkpt lat="41.628780000" lon="2.526930100">
        <ele>348.60</ele>
        <time>2012-09-23T08:16:25Z</time>
      </trkpt>
      <trkpt lat="41.628994000" lon="2.526775100">
        <ele>346.20</ele>
        <time>2012-09-23T08:16:29Z</time>
      </trkpt>
      <trkpt lat="41.629295000" lon="2.526717100">
        <ele>345.20</ele>
        <time>2012-09-23T08:16:32Z</time>
      </trkpt>
      <trkpt lat="41.629456000" lon="2.526893100">
        <ele>344.30</ele>
        <time>2012-09-23T08:16:36Z</time>
      </trkpt>
      <trkpt lat="41.629494000" lon="2.527070100">
        <ele>344.30</ele>
        <time>2012-09-23T08:16:38Z</time>
      </trkpt>
      <trkpt lat="41.629555000" lon="2.527804100">
        <ele>343.30</ele>
        <time>2012-09-23T08:16:46Z</time>
      </trkpt>
      <trkpt lat="41.629684000" lon="2.528018100">
        <ele>342.90</ele>
        <time>2012-09-23T08:16:50Z</time>
      </trkpt>
      <trkpt lat="41.629818000" lon="2.527886100">
        <ele>342.40</ele>
        <time>2012-09-23T08:16:53Z</time>
      </trkpt>
      <trkpt lat="41.630051000" lon="2.527292100">
        <ele>341.40</ele>
        <time>2012-09-23T08:17:00Z</time>
      </trkpt>
      <trkpt lat="41.630257000" lon="2.526772100">
        <ele>337.10</ele>
        <time>2012-09-23T08:17:04Z</time>
      </trkpt>
      <trkpt lat="41.630306000" lon="2.526664100">
        <ele>336.10</ele>
        <time>2012-09-23T08:17:05Z</time>
      </trkpt>
      <trkpt lat="41.630657000" lon="2.526134100">
        <ele>331.30</ele>
        <time>2012-09-23T08:17:11Z</time>
      </trkpt>
      <trkpt lat="41.630852000" lon="2.525820100">
        <ele>328.90</ele>
        <time>2012-09-23T08:17:14Z</time>
      </trkpt>
      <trkpt lat="41.631222000" lon="2.525672100">
        <ele>327.50</ele>
        <time>2012-09-23T08:17:18Z</time>
      </trkpt>
      <trkpt lat="41.631325000" lon="2.525718100">
        <ele>327.00</ele>
        <time>2012-09-23T08:17:18Z</time>
      </trkpt>
      <trkpt lat="41.631966000" lon="2.525937100">
        <ele>322.20</ele>
        <time>2012-09-23T08:17:25Z</time>
      </trkpt>
      <trkpt lat="41.632164000" lon="2.526179100">
        <ele>318.80</ele>
        <time>2012-09-23T08:17:28Z</time>
      </trkpt>
      <trkpt lat="41.632236000" lon="2.526445100">
        <ele>315.00</ele>
        <time>2012-09-23T08:17:30Z</time>
      </trkpt>
      <trkpt lat="41.632336000" lon="2.526439100">
        <ele>312.60</ele>
        <time>2012-09-23T08:17:33Z</time>
      </trkpt>
      <trkpt lat="41.632442000" lon="2.526287100">
        <ele>311.60</ele>
        <time>2012-09-23T08:17:35Z</time>
      </trkpt>
      <trkpt lat="41.632755000" lon="2.525776100">
        <ele>312.10</ele>
        <time>2012-09-23T08:17:40Z</time>
      </trkpt>
      <trkpt lat="41.633202000" lon="2.525340100">
        <ele>310.60</ele>
        <time>2012-09-23T08:17:44Z</time>
      </trkpt>
      <trkpt lat="41.633564000" lon="2.525382100">
        <ele>306.30</ele>
        <time>2012-09-23T08:17:49Z</time>
      </trkpt>
      <trkpt lat="41.633644000" lon="2.525746100">
        <ele>302.00</ele>
        <time>2012-09-23T08:17:51Z</time>
      </trkpt>
      <trkpt lat="41.633625000" lon="2.526329100">
        <ele>297.70</ele>
        <time>2012-09-23T08:17:56Z</time>
      </trkpt>
      <trkpt lat="41.633770000" lon="2.527044100">
        <ele>295.30</ele>
        <time>2012-09-23T08:18:01Z</time>
      </trkpt>
      <trkpt lat="41.634026000" lon="2.527321100">
        <ele>292.90</ele>
        <time>2012-09-23T08:18:05Z</time>
      </trkpt>
      <trkpt lat="41.634159000" lon="2.527229100">
        <ele>291.40</ele>
        <time>2012-09-23T08:18:06Z</time>
      </trkpt>
      <trkpt lat="41.634216000" lon="2.526870100">
        <ele>289.00</ele>
        <time>2012-09-23T08:18:10Z</time>
      </trkpt>
      <trkpt lat="41.634251000" lon="2.525966100">
        <ele>285.60</ele>
        <time>2012-09-23T08:18:15Z</time>
      </trkpt>
      <trkpt lat="41.634262000" lon="2.525787100">
        <ele>285.20</ele>
        <time>2012-09-23T08:18:17Z</time>
      </trkpt>
      <trkpt lat="41.634308000" lon="2.525472100">
        <ele>283.70</ele>
        <time>2012-09-23T08:18:19Z</time>
      </trkpt>
      <trkpt lat="41.634548000" lon="2.524914100">
        <ele>280.80</ele>
        <time>2012-09-23T08:18:22Z</time>
      </trkpt>
      <trkpt lat="41.634636000" lon="2.524784100">
        <ele>279.90</ele>
        <time>2012-09-23T08:18:24Z</time>
      </trkpt>
      <trkpt lat="41.635193000" lon="2.524326100">
        <ele>275.10</ele>
        <time>2012-09-23T08:18:29Z</time>
      </trkpt>
      <trkpt lat="41.635456000" lon="2.524248100">
        <ele>273.10</ele>
        <time>2012-09-23T08:18:31Z</time>
      </trkpt>
      <trkpt lat="41.636120000" lon="2.524205100">
        <ele>268.40</ele>
        <time>2012-09-23T08:18:36Z</time>
      </trkpt>
      <trkpt lat="41.637001000" lon="2.524171100">
        <ele>265.50</ele>
        <time>2012-09-23T08:18:43Z</time>
      </trkpt>
      <trkpt lat="41.637474000" lon="2.524155100">
        <ele>263.50</ele>
        <time>2012-09-23T08:18:47Z</time>
      </trkpt>
      <trkpt lat="41.637833000" lon="2.524133100">
        <ele>261.60</ele>
        <time>2012-09-23T08:18:50Z</time>
      </trkpt>
      <trkpt lat="41.638226000" lon="2.523883100">
        <ele>258.20</ele>
        <time>2012-09-23T08:18:53Z</time>
      </trkpt>
      <trkpt lat="41.638275000" lon="2.523757100">
        <ele>257.80</ele>
        <time>2012-09-23T08:18:55Z</time>
      </trkpt>
      <trkpt lat="41.638599000" lon="2.523232100">
        <ele>255.40</ele>
        <time>2012-09-23T08:18:59Z</time>
      </trkpt>
      <trkpt lat="41.639015000" lon="2.522799100">
        <ele>255.40</ele>
        <time>2012-09-23T08:19:04Z</time>
      </trkpt>
      <trkpt lat="41.639614000" lon="2.521581100">
        <ele>252.00</ele>
        <time>2012-09-23T08:19:14Z</time>
      </trkpt>
      <trkpt lat="41.639912000" lon="2.521177100">
        <ele>248.20</ele>
        <time>2012-09-23T08:19:18Z</time>
      </trkpt>
      <trkpt lat="41.640503000" lon="2.520398100">
        <ele>245.30</ele>
        <time>2012-09-23T08:19:27Z</time>
      </trkpt>
      <trkpt lat="41.640984000" lon="2.519748100">
        <ele>245.30</ele>
        <time>2012-09-23T08:19:34Z</time>
      </trkpt>
      <trkpt lat="41.641476000" lon="2.519068100">
        <ele>243.40</ele>
        <time>2012-09-23T08:19:42Z</time>
      </trkpt>
      <trkpt lat="41.641811000" lon="2.518655100">
        <ele>242.40</ele>
        <time>2012-09-23T08:19:46Z</time>
      </trkpt>
      <trkpt lat="41.642380000" lon="2.518286100">
        <ele>240.90</ele>
        <time>2012-09-23T08:19:53Z</time>
      </trkpt>
      <trkpt lat="41.643036000" lon="2.517927100">
        <ele>239.50</ele>
        <time>2012-09-23T08:20:01Z</time>
      </trkpt>
      <trkpt lat="41.643723000" lon="2.517540100">
        <ele>238.10</ele>
        <time>2012-09-23T08:20:10Z</time>
      </trkpt>
      <trkpt lat="41.644352000" lon="2.517186100">
        <ele>236.10</ele>
        <time>2012-09-23T08:20:19Z</time>
      </trkpt>
      <trkpt lat="41.644905000" lon="2.516878100">
        <ele>235.20</ele>
        <time>2012-09-23T08:20:26Z</time>
      </trkpt>
      <trkpt lat="41.645378000" lon="2.516611100">
        <ele>233.70</ele>
        <time>2012-09-23T08:20:31Z</time>
      </trkpt>
      <trkpt lat="41.645763000" lon="2.516171100">
        <ele>232.80</ele>
        <time>2012-09-23T08:20:38Z</time>
      </trkpt>
      <trkpt lat="41.646259000" lon="2.515446100">
        <ele>231.80</ele>
        <time>2012-09-23T08:20:47Z</time>
      </trkpt>
      <trkpt lat="41.646732000" lon="2.514714100">
        <ele>229.90</ele>
        <time>2012-09-23T08:20:55Z</time>
      </trkpt>
      <trkpt lat="41.646786000" lon="2.514640100">
        <ele>229.90</ele>
        <time>2012-09-23T08:20:57Z</time>
      </trkpt>
      <trkpt lat="41.646927000" lon="2.514222100">
        <ele>229.40</ele>
        <time>2012-09-23T08:21:01Z</time>
      </trkpt>
      <trkpt lat="41.647003000" lon="2.513033100">
        <ele>229.40</ele>
        <time>2012-09-23T08:21:16Z</time>
      </trkpt>
      <trkpt lat="41.647041000" lon="2.512265100">
        <ele>228.90</ele>
        <time>2012-09-23T08:21:25Z</time>
      </trkpt>
      <trkpt lat="41.647118000" lon="2.511335100">
        <ele>228.00</ele>
        <time>2012-09-23T08:21:34Z</time>
      </trkpt>
      <trkpt lat="41.647224000" lon="2.510767100">
        <ele>226.50</ele>
        <time>2012-09-23T08:21:41Z</time>
      </trkpt>
      <trkpt lat="41.647369000" lon="2.510398100">
        <ele>225.60</ele>
        <time>2012-09-23T08:21:46Z</time>
      </trkpt>
      <trkpt lat="41.647457000" lon="2.510215100">
        <ele>222.70</ele>
        <time>2012-09-23T08:21:51Z</time>
      </trkpt>
      <trkpt lat="41.647503000" lon="2.510145100">
        <ele>220.30</ele>
        <time>2012-09-23T08:21:53Z</time>
      </trkpt>
      <trkpt lat="41.647594000" lon="2.510053100">
        <ele>219.80</ele>
        <time>2012-09-23T08:22:00Z</time>
      </trkpt>
      <trkpt lat="41.647671000" lon="2.509930100">
        <ele>219.80</ele>
        <time>2012-09-23T08:22:09Z</time>
      </trkpt>
      <trkpt lat="41.647747000" lon="2.509763100">
        <ele>219.80</ele>
        <time>2012-09-23T08:22:17Z</time>
      </trkpt>
      <trkpt lat="41.647938000" lon="2.509407100">
        <ele>219.80</ele>
        <time>2012-09-23T08:22:33Z</time>
      </trkpt>
      <trkpt lat="41.647999000" lon="2.509317100">
        <ele>219.80</ele>
        <time>2012-09-23T08:22:38Z</time>
      </trkpt>
      <trkpt lat="41.648060000" lon="2.509166100">
        <ele>219.30</ele>
        <time>2012-09-23T08:22:45Z</time>
      </trkpt>
      <trkpt lat="41.648067000" lon="2.509148100">
        <ele>219.30</ele>
        <time>2012-09-23T08:22:47Z</time>
      </trkpt>
      <trkpt lat="41.648159000" lon="2.508955100">
        <ele>218.80</ele>
        <time>2012-09-23T08:22:52Z</time>
      </trkpt>
      <trkpt lat="41.648354000" lon="2.508612100">
        <ele>218.80</ele>
        <time>2012-09-23T08:22:59Z</time>
      </trkpt>
      <trkpt lat="41.648499000" lon="2.508328100">
        <ele>218.40</ele>
        <time>2012-09-23T08:23:06Z</time>
      </trkpt>
      <trkpt lat="41.648575000" lon="2.508176100">
        <ele>217.90</ele>
        <time>2012-09-23T08:23:08Z</time>
      </trkpt>
      <trkpt lat="41.648922000" lon="2.507586100">
        <ele>217.40</ele>
        <time>2012-09-23T08:23:18Z</time>
      </trkpt>
      <trkpt lat="41.649197000" lon="2.507090100">
        <ele>216.90</ele>
        <time>2012-09-23T08:23:27Z</time>
      </trkpt>
      <trkpt lat="41.649406000" lon="2.506739100">
        <ele>216.40</ele>
        <time>2012-09-23T08:23:36Z</time>
      </trkpt>
      <trkpt lat="41.649578000" lon="2.506447100">
        <ele>216.40</ele>
        <time>2012-09-23T08:23:43Z</time>
      </trkpt>
      <trkpt lat="41.649689000" lon="2.506159100">
        <ele>215.90</ele>
        <time>2012-09-23T08:23:48Z</time>
      </trkpt>
      <trkpt lat="41.649750000" lon="2.505757100">
        <ele>215.90</ele>
        <time>2012-09-23T08:23:55Z</time>
      </trkpt>
      <trkpt lat="41.649860000" lon="2.504669100">
        <ele>215.90</ele>
        <time>2012-09-23T08:24:12Z</time>
      </trkpt>
      <trkpt lat="41.649822000" lon="2.504258100">
        <ele>215.90</ele>
        <time>2012-09-23T08:24:18Z</time>
      </trkpt>
      <trkpt lat="41.649712000" lon="2.504008100">
        <ele>215.90</ele>
        <time>2012-09-23T08:24:23Z</time>
      </trkpt>
      <trkpt lat="41.649399000" lon="2.503522100">
        <ele>215.90</ele>
        <time>2012-09-23T08:24:31Z</time>
      </trkpt>
      <trkpt lat="41.649155000" lon="2.503150100">
        <ele>215.50</ele>
        <time>2012-09-23T08:24:38Z</time>
      </trkpt>
      <trkpt lat="41.648952000" lon="2.502831100">
        <ele>215.50</ele>
        <time>2012-09-23T08:24:45Z</time>
      </trkpt>
      <trkpt lat="41.648647000" lon="2.502383100">
        <ele>215.50</ele>
        <time>2012-09-23T08:24:54Z</time>
      </trkpt>
      <trkpt lat="41.648483000" lon="2.502107100">
        <ele>215.50</ele>
        <time>2012-09-23T08:24:59Z</time>
      </trkpt>
      <trkpt lat="41.648411000" lon="2.501899100">
        <ele>215.50</ele>
        <time>2012-09-23T08:25:01Z</time>
      </trkpt>
      <trkpt lat="41.648354000" lon="2.501425100">
        <ele>215.00</ele>
        <time>2012-09-23T08:25:08Z</time>
      </trkpt>
      <trkpt lat="41.648399000" lon="2.501097100">
        <ele>215.00</ele>
        <time>2012-09-23T08:25:12Z</time>
      </trkpt>
      <trkpt lat="41.648666000" lon="2.500532100">
        <ele>214.50</ele>
        <time>2012-09-23T08:25:20Z</time>
      </trkpt>
      <trkpt lat="41.649082000" lon="2.499880100">
        <ele>213.10</ele>
        <time>2012-09-23T08:25:29Z</time>
      </trkpt>
      <trkpt lat="41.649506000" lon="2.499233100">
        <ele>211.60</ele>
        <time>2012-09-23T08:25:38Z</time>
      </trkpt>
      <trkpt lat="41.649967000" lon="2.498529100">
        <ele>210.20</ele>
        <time>2012-09-23T08:25:48Z</time>
      </trkpt>
      <trkpt lat="41.650249000" lon="2.498058100">
        <ele>209.20</ele>
        <time>2012-09-23T08:25:55Z</time>
      </trkpt>
      <trkpt lat="41.650455000" lon="2.497451100">
        <ele>207.80</ele>
        <time>2012-09-23T08:26:02Z</time>
      </trkpt>
      <trkpt lat="41.650566000" lon="2.496919100">
        <ele>206.30</ele>
        <time>2012-09-23T08:26:09Z</time>
      </trkpt>
      <trkpt lat="41.650795000" lon="2.496351100">
        <ele>205.40</ele>
        <time>2012-09-23T08:26:16Z</time>
      </trkpt>
      <trkpt lat="41.651188000" lon="2.495806100">
        <ele>204.40</ele>
        <time>2012-09-23T08:26:23Z</time>
      </trkpt>
      <trkpt lat="41.651749000" lon="2.495050100">
        <ele>202.50</ele>
        <time>2012-09-23T08:26:35Z</time>
      </trkpt>
      <trkpt lat="41.651836000" lon="2.494928100">
        <ele>202.00</ele>
        <time>2012-09-23T08:26:37Z</time>
      </trkpt>
      <trkpt lat="41.652264000" lon="2.494402100">
        <ele>201.50</ele>
        <time>2012-09-23T08:26:47Z</time>
      </trkpt>
      <trkpt lat="41.652313000" lon="2.494346100">
        <ele>201.10</ele>
        <time>2012-09-23T08:26:47Z</time>
      </trkpt>
      <trkpt lat="41.652542000" lon="2.494161100">
        <ele>201.10</ele>
        <time>2012-09-23T08:26:51Z</time>
      </trkpt>
      <trkpt lat="41.652737000" lon="2.494080100">
        <ele>200.60</ele>
        <time>2012-09-23T08:26:54Z</time>
      </trkpt>
      <trkpt lat="41.653385000" lon="2.494004100">
        <ele>199.60</ele>
        <time>2012-09-23T08:27:05Z</time>
      </trkpt>
      <trkpt lat="41.654015000" lon="2.493994100">
        <ele>199.10</ele>
        <time>2012-09-23T08:27:15Z</time>
      </trkpt>
      <trkpt lat="41.654846000" lon="2.493993100">
        <ele>197.20</ele>
        <time>2012-09-23T08:27:27Z</time>
      </trkpt>
      <trkpt lat="41.655422000" lon="2.494000100">
        <ele>196.70</ele>
        <time>2012-09-23T08:27:36Z</time>
      </trkpt>
      <trkpt lat="41.655872000" lon="2.493993100">
        <ele>196.70</ele>
        <time>2012-09-23T08:27:45Z</time>
      </trkpt>
      <trkpt lat="41.656330000" lon="2.493952100">
        <ele>198.20</ele>
        <time>2012-09-23T08:27:55Z</time>
      </trkpt>
      <trkpt lat="41.656715000" lon="2.493867100">
        <ele>199.60</ele>
        <time>2012-09-23T08:28:04Z</time>
      </trkpt>
      <trkpt lat="41.656799000" lon="2.493836100">
        <ele>199.60</ele>
        <time>2012-09-23T08:28:06Z</time>
      </trkpt>
      <trkpt lat="41.657051000" lon="2.493554100">
        <ele>200.60</ele>
        <time>2012-09-23T08:28:13Z</time>
      </trkpt>
      <trkpt lat="41.657101000" lon="2.493418100">
        <ele>200.60</ele>
        <time>2012-09-23T08:28:16Z</time>
      </trkpt>
      <trkpt lat="41.657246000" lon="2.492793100">
        <ele>201.10</ele>
        <time>2012-09-23T08:28:23Z</time>
      </trkpt>
      <trkpt lat="41.657307000" lon="2.492516100">
        <ele>201.10</ele>
        <time>2012-09-23T08:28:27Z</time>
      </trkpt>
      <trkpt lat="41.657440000" lon="2.491736100">
        <ele>199.60</ele>
        <time>2012-09-23T08:28:35Z</time>
      </trkpt>
      <trkpt lat="41.657440000" lon="2.491631100">
        <ele>199.60</ele>
        <time>2012-09-23T08:28:35Z</time>
      </trkpt>
      <trkpt lat="41.657337000" lon="2.490904100">
        <ele>197.70</ele>
        <time>2012-09-23T08:28:42Z</time>
      </trkpt>
      <trkpt lat="41.657177000" lon="2.489964100">
        <ele>194.80</ele>
        <time>2012-09-23T08:28:51Z</time>
      </trkpt>
      <trkpt lat="41.657085000" lon="2.489435100">
        <ele>191.00</ele>
        <time>2012-09-23T08:28:56Z</time>
      </trkpt>
      <trkpt lat="41.656933000" lon="2.488605100">
        <ele>189.00</ele>
        <time>2012-09-23T08:29:05Z</time>
      </trkpt>
      <trkpt lat="41.656799000" lon="2.487806100">
        <ele>189.00</ele>
        <time>2012-09-23T08:29:12Z</time>
      </trkpt>
      <trkpt lat="41.656620000" lon="2.486796100">
        <ele>188.60</ele>
        <time>2012-09-23T08:29:24Z</time>
      </trkpt>
      <trkpt lat="41.656471000" lon="2.485943100">
        <ele>187.10</ele>
        <time>2012-09-23T08:29:33Z</time>
      </trkpt>
      <trkpt lat="41.656368000" lon="2.485149100">
        <ele>186.10</ele>
        <time>2012-09-23T08:29:43Z</time>
      </trkpt>
      <trkpt lat="41.656368000" lon="2.485059100">
        <ele>186.10</ele>
        <time>2012-09-23T08:29:43Z</time>
      </trkpt>
      <trkpt lat="41.656528000" lon="2.484296100">
        <ele>185.20</ele>
        <time>2012-09-23T08:29:52Z</time>
      </trkpt>
      <trkpt lat="41.656696000" lon="2.483942100">
        <ele>185.20</ele>
        <time>2012-09-23T08:29:57Z</time>
      </trkpt>
      <trkpt lat="41.657127000" lon="2.483481100">
        <ele>184.20</ele>
        <time>2012-09-23T08:30:06Z</time>
      </trkpt>
      <trkpt lat="41.657688000" lon="2.483004100">
        <ele>182.80</ele>
        <time>2012-09-23T08:30:16Z</time>
      </trkpt>
      <trkpt lat="41.657745000" lon="2.482969100">
        <ele>182.80</ele>
        <time>2012-09-23T08:30:16Z</time>
      </trkpt>
      <trkpt lat="41.658230000" lon="2.482840100">
        <ele>182.30</ele>
        <time>2012-09-23T08:30:25Z</time>
      </trkpt>
      <trkpt lat="41.658657000" lon="2.482772100">
        <ele>181.80</ele>
        <time>2012-09-23T08:30:32Z</time>
      </trkpt>
      <trkpt lat="41.659031000" lon="2.482736100">
        <ele>181.80</ele>
        <time>2012-09-23T08:30:37Z</time>
      </trkpt>
      <trkpt lat="41.659615000" lon="2.482943100">
        <ele>181.40</ele>
        <time>2012-09-23T08:30:46Z</time>
      </trkpt>
      <trkpt lat="41.660236000" lon="2.483264100">
        <ele>180.90</ele>
        <time>2012-09-23T08:30:58Z</time>
      </trkpt>
      <trkpt lat="41.660954000" lon="2.483618100">
        <ele>180.90</ele>
        <time>2012-09-23T08:31:10Z</time>
      </trkpt>
      <trkpt lat="41.661072000" lon="2.483641100">
        <ele>180.90</ele>
        <time>2012-09-23T08:31:12Z</time>
      </trkpt>
      <trkpt lat="41.661476000" lon="2.483544100">
        <ele>180.40</ele>
        <time>2012-09-23T08:31:19Z</time>
      </trkpt>
      <trkpt lat="41.661999000" lon="2.483240100">
        <ele>179.90</ele>
        <time>2012-09-23T08:31:28Z</time>
      </trkpt>
      <trkpt lat="41.662491000" lon="2.482922100">
        <ele>179.40</ele>
        <time>2012-09-23T08:31:38Z</time>
      </trkpt>
      <trkpt lat="41.662663000" lon="2.482693100">
        <ele>179.40</ele>
        <time>2012-09-23T08:31:42Z</time>
      </trkpt>
      <trkpt lat="41.662918000" lon="2.482082100">
        <ele>179.40</ele>
        <time>2012-09-23T08:31:50Z</time>
      </trkpt>
      <trkpt lat="41.663208000" lon="2.481471100">
        <ele>179.40</ele>
        <time>2012-09-23T08:32:01Z</time>
      </trkpt>
      <trkpt lat="41.663364000" lon="2.481224100">
        <ele>179.40</ele>
        <time>2012-09-23T08:32:04Z</time>
      </trkpt>
      <trkpt lat="41.663689000" lon="2.481132100">
        <ele>179.40</ele>
        <time>2012-09-23T08:32:10Z</time>
      </trkpt>
      <trkpt lat="41.663876000" lon="2.481320100">
        <ele>179.40</ele>
        <time>2012-09-23T08:32:13Z</time>
      </trkpt>
      <trkpt lat="41.664349000" lon="2.482099100">
        <ele>176.10</ele>
        <time>2012-09-23T08:32:22Z</time>
      </trkpt>
      <trkpt lat="41.664566000" lon="2.482474100">
        <ele>172.20</ele>
        <time>2012-09-23T08:32:25Z</time>
      </trkpt>
      <trkpt lat="41.665024000" lon="2.482842100">
        <ele>169.80</ele>
        <time>2012-09-23T08:32:32Z</time>
      </trkpt>
      <trkpt lat="41.665199000" lon="2.482870100">
        <ele>168.90</ele>
        <time>2012-09-23T08:32:34Z</time>
      </trkpt>
      <trkpt lat="41.665604000" lon="2.482774100">
        <ele>168.90</ele>
        <time>2012-09-23T08:32:39Z</time>
      </trkpt>
      <trkpt lat="41.666168000" lon="2.482434100">
        <ele>168.40</ele>
        <time>2012-09-23T08:32:46Z</time>
      </trkpt>
      <trkpt lat="41.666790000" lon="2.482155100">
        <ele>167.40</ele>
        <time>2012-09-23T08:32:55Z</time>
      </trkpt>
      <trkpt lat="41.667858000" lon="2.481761100">
        <ele>165.00</ele>
        <time>2012-09-23T08:33:07Z</time>
      </trkpt>
      <trkpt lat="41.668591000" lon="2.481529100">
        <ele>162.60</ele>
        <time>2012-09-23T08:33:16Z</time>
      </trkpt>
      <trkpt lat="41.669147000" lon="2.481489100">
        <ele>159.20</ele>
        <time>2012-09-23T08:33:23Z</time>
      </trkpt>
      <trkpt lat="41.669857000" lon="2.481488100">
        <ele>156.40</ele>
        <time>2012-09-23T08:33:33Z</time>
      </trkpt>
      <trkpt lat="41.670437000" lon="2.481477100">
        <ele>156.40</ele>
        <time>2012-09-23T08:33:40Z</time>
      </trkpt>
      <trkpt lat="41.671062000" lon="2.481490100">
        <ele>156.40</ele>
        <time>2012-09-23T08:33:51Z</time>
      </trkpt>
      <trkpt lat="41.671120000" lon="2.481503100">
        <ele>156.40</ele>
        <time>2012-09-23T08:33:52Z</time>
      </trkpt>
      <trkpt lat="41.671638000" lon="2.481771100">
        <ele>156.40</ele>
        <time>2012-09-23T08:34:01Z</time>
      </trkpt>
      <trkpt lat="41.672241000" lon="2.482162100">
        <ele>156.40</ele>
        <time>2012-09-23T08:34:12Z</time>
      </trkpt>
      <trkpt lat="41.672798000" lon="2.482590100">
        <ele>156.40</ele>
        <time>2012-09-23T08:34:22Z</time>
      </trkpt>
      <trkpt lat="41.673153000" lon="2.483008100">
        <ele>157.80</ele>
        <time>2012-09-23T08:34:31Z</time>
      </trkpt>
      <trkpt lat="41.673264000" lon="2.483153100">
        <ele>158.30</ele>
        <time>2012-09-23T08:34:34Z</time>
      </trkpt>
      <trkpt lat="41.673664000" lon="2.483564100">
        <ele>159.70</ele>
        <time>2012-09-23T08:34:45Z</time>
      </trkpt>
      <trkpt lat="41.673710000" lon="2.483599100">
        <ele>160.20</ele>
        <time>2012-09-23T08:34:46Z</time>
      </trkpt>
      <trkpt lat="41.673985000" lon="2.483701100">
        <ele>160.20</ele>
        <time>2012-09-23T08:34:50Z</time>
      </trkpt>
      <trkpt lat="41.674103000" lon="2.483731100">
        <ele>160.20</ele>
        <time>2012-09-23T08:34:53Z</time>
      </trkpt>
      <trkpt lat="41.674637000" lon="2.483680100">
        <ele>160.20</ele>
        <time>2012-09-23T08:35:00Z</time>
      </trkpt>
      <trkpt lat="41.674885000" lon="2.483606100">
        <ele>158.80</ele>
        <time>2012-09-23T08:35:04Z</time>
      </trkpt>
      <trkpt lat="41.675064000" lon="2.483552100">
        <ele>156.80</ele>
        <time>2012-09-23T08:35:07Z</time>
      </trkpt>
      <trkpt lat="41.675282000" lon="2.483609100">
        <ele>153.00</ele>
        <time>2012-09-23T08:35:11Z</time>
      </trkpt>
      <trkpt lat="41.675377000" lon="2.483720100">
        <ele>150.10</ele>
        <time>2012-09-23T08:35:18Z</time>
      </trkpt>
      <trkpt lat="41.675381000" lon="2.483723100">
        <ele>151.50</ele>
        <time>2012-09-23T08:35:28Z</time>
      </trkpt>
      <trkpt lat="41.675377000" lon="2.483733100">
        <ele>152.00</ele>
        <time>2012-09-23T08:35:35Z</time>
      </trkpt>
      <trkpt lat="41.675381000" lon="2.483733100">
        <ele>152.00</ele>
        <time>2012-09-23T08:35:46Z</time>
      </trkpt>
      <trkpt lat="41.675385000" lon="2.483744100">
        <ele>152.00</ele>
        <time>2012-09-23T08:35:51Z</time>
      </trkpt>
      <trkpt lat="41.675381000" lon="2.483831100">
        <ele>152.50</ele>
        <time>2012-09-23T08:35:56Z</time>
      </trkpt>
      <trkpt lat="41.675308000" lon="2.484114100">
        <ele>152.50</ele>
        <time>2012-09-23T08:36:03Z</time>
      </trkpt>
      <trkpt lat="41.675213000" lon="2.484426100">
        <ele>152.50</ele>
        <time>2012-09-23T08:36:10Z</time>
      </trkpt>
      <trkpt lat="41.675243000" lon="2.484718100">
        <ele>153.00</ele>
        <time>2012-09-23T08:36:17Z</time>
      </trkpt>
      <trkpt lat="41.675373000" lon="2.484980100">
        <ele>153.00</ele>
        <time>2012-09-23T08:36:24Z</time>
      </trkpt>
      <trkpt lat="41.675800000" lon="2.485640100">
        <ele>153.00</ele>
        <time>2012-09-23T08:36:38Z</time>
      </trkpt>
      <trkpt lat="41.676086000" lon="2.486004100">
        <ele>151.50</ele>
        <time>2012-09-23T08:36:45Z</time>
      </trkpt>
      <trkpt lat="41.676170000" lon="2.486114100">
        <ele>151.50</ele>
        <time>2012-09-23T08:36:48Z</time>
      </trkpt>
      <trkpt lat="41.676617000" lon="2.486619100">
        <ele>150.60</ele>
        <time>2012-09-23T08:36:59Z</time>
      </trkpt>
      <trkpt lat="41.677032000" lon="2.487024100">
        <ele>149.10</ele>
        <time>2012-09-23T08:37:09Z</time>
      </trkpt>
      <trkpt lat="41.677456000" lon="2.487398100">
        <ele>148.20</ele>
        <time>2012-09-23T08:37:18Z</time>
      </trkpt>
      <trkpt lat="41.677891000" lon="2.487824100">
        <ele>147.20</ele>
        <time>2012-09-23T08:37:27Z</time>
      </trkpt>
      <trkpt lat="41.678318000" lon="2.488187100">
        <ele>146.70</ele>
        <time>2012-09-23T08:37:35Z</time>
      </trkpt>
      <trkpt lat="41.678726000" lon="2.488486100">
        <ele>146.30</ele>
        <time>2012-09-23T08:37:42Z</time>
      </trkpt>
      <trkpt lat="41.679108000" lon="2.488810100">
        <ele>145.80</ele>
        <time>2012-09-23T08:37:51Z</time>
      </trkpt>
      <trkpt lat="41.679638000" lon="2.489230100">
        <ele>145.80</ele>
        <time>2012-09-23T08:38:01Z</time>
      </trkpt>
      <trkpt lat="41.680027000" lon="2.489482100">
        <ele>145.80</ele>
        <time>2012-09-23T08:38:10Z</time>
      </trkpt>
      <trkpt lat="41.680103000" lon="2.489570100">
        <ele>145.80</ele>
        <time>2012-09-23T08:38:14Z</time>
      </trkpt>
      <trkpt lat="41.680447000" lon="2.489887100">
        <ele>145.80</ele>
        <time>2012-09-23T08:38:22Z</time>
      </trkpt>
      <trkpt lat="41.680840000" lon="2.490240100">
        <ele>144.30</ele>
        <time>2012-09-23T08:38:31Z</time>
      </trkpt>
      <trkpt lat="41.681133000" lon="2.490481100">
        <ele>143.90</ele>
        <time>2012-09-23T08:38:36Z</time>
      </trkpt>
      <trkpt lat="41.681473000" lon="2.490890100">
        <ele>142.90</ele>
        <time>2012-09-23T08:38:43Z</time>
      </trkpt>
      <trkpt lat="41.681770000" lon="2.491345100">
        <ele>142.40</ele>
        <time>2012-09-23T08:38:52Z</time>
      </trkpt>
      <trkpt lat="41.681911000" lon="2.491724100">
        <ele>141.40</ele>
        <time>2012-09-23T08:38:57Z</time>
      </trkpt>
      <trkpt lat="41.682129000" lon="2.492159100">
        <ele>141.40</ele>
        <time>2012-09-23T08:39:06Z</time>
      </trkpt>
      <trkpt lat="41.682426000" lon="2.492687100">
        <ele>141.40</ele>
        <time>2012-09-23T08:39:18Z</time>
      </trkpt>
      <trkpt lat="41.682705000" lon="2.493065100">
        <ele>141.40</ele>
        <time>2012-09-23T08:39:27Z</time>
      </trkpt>
      <trkpt lat="41.682995000" lon="2.493564100">
        <ele>141.40</ele>
        <time>2012-09-23T08:39:35Z</time>
      </trkpt>
      <trkpt lat="41.683270000" lon="2.494080100">
        <ele>141.40</ele>
        <time>2012-09-23T08:39:44Z</time>
      </trkpt>
      <trkpt lat="41.683598000" lon="2.494760100">
        <ele>140.50</ele>
        <time>2012-09-23T08:39:55Z</time>
      </trkpt>
      <trkpt lat="41.683834000" lon="2.495298100">
        <ele>140.00</ele>
        <time>2012-09-23T08:40:05Z</time>
      </trkpt>
      <trkpt lat="41.684109000" lon="2.495934100">
        <ele>139.10</ele>
        <time>2012-09-23T08:40:16Z</time>
      </trkpt>
      <trkpt lat="41.684277000" lon="2.496307100">
        <ele>139.10</ele>
        <time>2012-09-23T08:40:23Z</time>
      </trkpt>
      <trkpt lat="41.684483000" lon="2.496434100">
        <ele>139.10</ele>
        <time>2012-09-23T08:40:28Z</time>
      </trkpt>
      <trkpt lat="41.684601000" lon="2.496432100">
        <ele>139.10</ele>
        <time>2012-09-23T08:40:29Z</time>
      </trkpt>
      <trkpt lat="41.685089000" lon="2.496614100">
        <ele>137.60</ele>
        <time>2012-09-23T08:40:38Z</time>
      </trkpt>
      <trkpt lat="41.685341000" lon="2.496733100">
        <ele>136.20</ele>
        <time>2012-09-23T08:40:42Z</time>
      </trkpt>
      <trkpt lat="41.685516000" lon="2.496950100">
        <ele>133.30</ele>
        <time>2012-09-23T08:40:45Z</time>
      </trkpt>
      <trkpt lat="41.685627000" lon="2.497222100">
        <ele>131.80</ele>
        <time>2012-09-23T08:40:49Z</time>
      </trkpt>
      <trkpt lat="41.685673000" lon="2.497349100">
        <ele>131.40</ele>
        <time>2012-09-23T08:40:52Z</time>
      </trkpt>
      <trkpt lat="41.685871000" lon="2.497799100">
        <ele>131.40</ele>
        <time>2012-09-23T08:40:59Z</time>
      </trkpt>
      <trkpt lat="41.686096000" lon="2.498254100">
        <ele>132.30</ele>
        <time>2012-09-23T08:41:08Z</time>
      </trkpt>
      <trkpt lat="41.686295000" lon="2.498599100">
        <ele>132.30</ele>
        <time>2012-09-23T08:41:15Z</time>
      </trkpt>
      <trkpt lat="41.686371000" lon="2.498747100">
        <ele>132.30</ele>
        <time>2012-09-23T08:41:18Z</time>
      </trkpt>
      <trkpt lat="41.686520000" lon="2.499135100">
        <ele>132.30</ele>
        <time>2012-09-23T08:41:23Z</time>
      </trkpt>
      <trkpt lat="41.686604000" lon="2.499407100">
        <ele>132.30</ele>
        <time>2012-09-23T08:41:27Z</time>
      </trkpt>
      <trkpt lat="41.686874000" lon="2.499884100">
        <ele>132.30</ele>
        <time>2012-09-23T08:41:36Z</time>
      </trkpt>
      <trkpt lat="41.686939000" lon="2.499994100">
        <ele>132.30</ele>
        <time>2012-09-23T08:41:37Z</time>
      </trkpt>
      <trkpt lat="41.687099000" lon="2.500169100">
        <ele>131.40</ele>
        <time>2012-09-23T08:41:41Z</time>
      </trkpt>
      <trkpt lat="41.687267000" lon="2.500420100">
        <ele>131.40</ele>
        <time>2012-09-23T08:41:48Z</time>
      </trkpt>
      <trkpt lat="41.687313000" lon="2.500511100">
        <ele>131.40</ele>
        <time>2012-09-23T08:41:50Z</time>
      </trkpt>
      <trkpt lat="41.687382000" lon="2.500660100">
        <ele>131.40</ele>
        <time>2012-09-23T08:41:53Z</time>
      </trkpt>
      <trkpt lat="41.687515000" lon="2.500922100">
        <ele>130.40</ele>
        <time>2012-09-23T08:41:58Z</time>
      </trkpt>
      <trkpt lat="41.687698000" lon="2.501242100">
        <ele>129.90</ele>
        <time>2012-09-23T08:42:04Z</time>
      </trkpt>
      <trkpt lat="41.687790000" lon="2.501376100">
        <ele>129.90</ele>
        <time>2012-09-23T08:42:07Z</time>
      </trkpt>
      <trkpt lat="41.687901000" lon="2.501550100">
        <ele>129.40</ele>
        <time>2012-09-23T08:42:11Z</time>
      </trkpt>
      <trkpt lat="41.688034000" lon="2.501776100">
        <ele>129.40</ele>
        <time>2012-09-23T08:42:16Z</time>
      </trkpt>
      <trkpt lat="41.688225000" lon="2.502050100">
        <ele>129.40</ele>
        <time>2012-09-23T08:42:23Z</time>
      </trkpt>
      <trkpt lat="41.688499000" lon="2.502363100">
        <ele>130.40</ele>
        <time>2012-09-23T08:42:31Z</time>
      </trkpt>
      <trkpt lat="41.688869000" lon="2.502778100">
        <ele>130.90</ele>
        <time>2012-09-23T08:42:40Z</time>
      </trkpt>
      <trkpt lat="41.689274000" lon="2.503251100">
        <ele>130.90</ele>
        <time>2012-09-23T08:42:51Z</time>
      </trkpt>
      <trkpt lat="41.689533000" lon="2.503568100">
        <ele>129.90</ele>
        <time>2012-09-23T08:42:58Z</time>
      </trkpt>
      <trkpt lat="41.689568000" lon="2.503611100">
        <ele>129.40</ele>
        <time>2012-09-23T08:42:59Z</time>
      </trkpt>
      <trkpt lat="41.689701000" lon="2.503727100">
        <ele>128.00</ele>
        <time>2012-09-23T08:43:06Z</time>
      </trkpt>
      <trkpt lat="41.689732000" lon="2.503772100">
        <ele>128.50</ele>
        <time>2012-09-23T08:43:08Z</time>
      </trkpt>
      <trkpt lat="41.689774000" lon="2.503887100">
        <ele>128.00</ele>
        <time>2012-09-23T08:43:13Z</time>
      </trkpt>
      <trkpt lat="41.689907000" lon="2.504150100">
        <ele>128.00</ele>
        <time>2012-09-23T08:43:20Z</time>
      </trkpt>
      <trkpt lat="41.690067000" lon="2.504368100">
        <ele>128.00</ele>
        <time>2012-09-23T08:43:27Z</time>
      </trkpt>
      <trkpt lat="41.690216000" lon="2.504630100">
        <ele>128.90</ele>
        <time>2012-09-23T08:43:34Z</time>
      </trkpt>
      <trkpt lat="41.690266000" lon="2.504704100">
        <ele>128.90</ele>
        <time>2012-09-23T08:43:36Z</time>
      </trkpt>
      <trkpt lat="41.690392000" lon="2.504899100">
        <ele>128.90</ele>
        <time>2012-09-23T08:43:41Z</time>
      </trkpt>
      <trkpt lat="41.690601000" lon="2.505299100">
        <ele>128.90</ele>
        <time>2012-09-23T08:43:50Z</time>
      </trkpt>
      <trkpt lat="41.690655000" lon="2.505388100">
        <ele>128.50</ele>
        <time>2012-09-23T08:43:52Z</time>
      </trkpt>
      <trkpt lat="41.690754000" lon="2.505578100">
        <ele>128.50</ele>
        <time>2012-09-23T08:43:55Z</time>
      </trkpt>
      <trkpt lat="41.690983000" lon="2.506001100">
        <ele>128.50</ele>
        <time>2012-09-23T08:44:04Z</time>
      </trkpt>
      <trkpt lat="41.691105000" lon="2.506222100">
        <ele>128.50</ele>
        <time>2012-09-23T08:44:09Z</time>
      </trkpt>
      <trkpt lat="41.691235000" lon="2.506562100">
        <ele>127.00</ele>
        <time>2012-09-23T08:44:16Z</time>
      </trkpt>
      <trkpt lat="41.691483000" lon="2.507168100">
        <ele>127.00</ele>
        <time>2012-09-23T08:44:30Z</time>
      </trkpt>
      <trkpt lat="41.691700000" lon="2.507538100">
        <ele>127.00</ele>
        <time>2012-09-23T08:44:39Z</time>
      </trkpt>
      <trkpt lat="41.691784000" lon="2.507724100">
        <ele>127.00</ele>
        <time>2012-09-23T08:44:42Z</time>
      </trkpt>
      <trkpt lat="41.691887000" lon="2.507909100">
        <ele>127.00</ele>
        <time>2012-09-23T08:44:47Z</time>
      </trkpt>
      <trkpt lat="41.692116000" lon="2.508302100">
        <ele>127.00</ele>
        <time>2012-09-23T08:44:54Z</time>
      </trkpt>
      <trkpt lat="41.692295000" lon="2.508647100">
        <ele>127.00</ele>
        <time>2012-09-23T08:45:01Z</time>
      </trkpt>
      <trkpt lat="41.692467000" lon="2.508991100">
        <ele>127.00</ele>
        <time>2012-09-23T08:45:10Z</time>
      </trkpt>
      <trkpt lat="41.692627000" lon="2.509287100">
        <ele>127.00</ele>
        <time>2012-09-23T08:45:17Z</time>
      </trkpt>
      <trkpt lat="41.692726000" lon="2.509425100">
        <ele>127.00</ele>
        <time>2012-09-23T08:45:19Z</time>
      </trkpt>
      <trkpt lat="41.692978000" lon="2.509906100">
        <ele>126.10</ele>
        <time>2012-09-23T08:45:27Z</time>
      </trkpt>
      <trkpt lat="41.693237000" lon="2.510282100">
        <ele>125.10</ele>
        <time>2012-09-23T08:45:34Z</time>
      </trkpt>
      <trkpt lat="41.693504000" lon="2.510654100">
        <ele>124.20</ele>
        <time>2012-09-23T08:45:41Z</time>
      </trkpt>
      <trkpt lat="41.693832000" lon="2.510996100">
        <ele>124.20</ele>
        <time>2012-09-23T08:45:50Z</time>
      </trkpt>
      <trkpt lat="41.693867000" lon="2.511027100">
        <ele>124.20</ele>
        <time>2012-09-23T08:45:50Z</time>
      </trkpt>
      <trkpt lat="41.693970000" lon="2.511146100">
        <ele>124.20</ele>
        <time>2012-09-23T08:45:54Z</time>
      </trkpt>
      <trkpt lat="41.694344000" lon="2.511484100">
        <ele>124.20</ele>
        <time>2012-09-23T08:46:04Z</time>
      </trkpt>
      <trkpt lat="41.694744000" lon="2.511855100">
        <ele>123.70</ele>
        <time>2012-09-23T08:46:13Z</time>
      </trkpt>
      <trkpt lat="41.694889000" lon="2.511994100">
        <ele>123.70</ele>
        <time>2012-09-23T08:46:16Z</time>
      </trkpt>
      <trkpt lat="41.695080000" lon="2.512169100">
        <ele>123.20</ele>
        <time>2012-09-23T08:46:20Z</time>
      </trkpt>
      <trkpt lat="41.695484000" lon="2.512474100">
        <ele>123.20</ele>
        <time>2012-09-23T08:46:28Z</time>
      </trkpt>
      <trkpt lat="41.696022000" lon="2.512835100">
        <ele>123.20</ele>
        <time>2012-09-23T08:46:42Z</time>
      </trkpt>
      <trkpt lat="41.696426000" lon="2.513055100">
        <ele>122.20</ele>
        <time>2012-09-23T08:46:49Z</time>
      </trkpt>
      <trkpt lat="41.696835000" lon="2.513324100">
        <ele>121.30</ele>
        <time>2012-09-23T08:46:58Z</time>
      </trkpt>
      <trkpt lat="41.697109000" lon="2.513541100">
        <ele>121.30</ele>
        <time>2012-09-23T08:47:03Z</time>
      </trkpt>
      <trkpt lat="41.697273000" lon="2.513691100">
        <ele>120.80</ele>
        <time>2012-09-23T08:47:07Z</time>
      </trkpt>
      <trkpt lat="41.697403000" lon="2.513791100">
        <ele>120.80</ele>
        <time>2012-09-23T08:47:10Z</time>
      </trkpt>
      <trkpt lat="41.697552000" lon="2.513948100">
        <ele>120.80</ele>
        <time>2012-09-23T08:47:14Z</time>
      </trkpt>
      <trkpt lat="41.698017000" lon="2.514293100">
        <ele>120.80</ele>
        <time>2012-09-23T08:47:24Z</time>
      </trkpt>
      <trkpt lat="41.698425000" lon="2.514613100">
        <ele>120.80</ele>
        <time>2012-09-23T08:47:33Z</time>
      </trkpt>
      <trkpt lat="41.698761000" lon="2.514872100">
        <ele>120.30</ele>
        <time>2012-09-23T08:47:40Z</time>
      </trkpt>
      <trkpt lat="41.699081000" lon="2.515130100">
        <ele>120.30</ele>
        <time>2012-09-23T08:47:47Z</time>
      </trkpt>
      <trkpt lat="41.699455000" lon="2.515493100">
        <ele>119.80</ele>
        <time>2012-09-23T08:47:54Z</time>
      </trkpt>
      <trkpt lat="41.699745000" lon="2.515694100">
        <ele>118.90</ele>
        <time>2012-09-23T08:48:01Z</time>
      </trkpt>
      <trkpt lat="41.699978000" lon="2.515926100">
        <ele>118.90</ele>
        <time>2012-09-23T08:48:08Z</time>
      </trkpt>
      <trkpt lat="41.700348000" lon="2.516241100">
        <ele>118.40</ele>
        <time>2012-09-23T08:48:16Z</time>
      </trkpt>
      <trkpt lat="41.700821000" lon="2.516680100">
        <ele>117.40</ele>
        <time>2012-09-23T08:48:25Z</time>
      </trkpt>
      <trkpt lat="41.701271000" lon="2.516999100">
        <ele>116.50</ele>
        <time>2012-09-23T08:48:34Z</time>
      </trkpt>
      <trkpt lat="41.701687000" lon="2.517253100">
        <ele>116.00</ele>
        <time>2012-09-23T08:48:42Z</time>
      </trkpt>
      <trkpt lat="41.701847000" lon="2.517486100">
        <ele>115.50</ele>
        <time>2012-09-23T08:48:46Z</time>
      </trkpt>
      <trkpt lat="41.702007000" lon="2.517951100">
        <ele>115.50</ele>
        <time>2012-09-23T08:48:55Z</time>
      </trkpt>
      <trkpt lat="41.702248000" lon="2.518255100">
        <ele>115.00</ele>
        <time>2012-09-23T08:49:02Z</time>
      </trkpt>
      <trkpt lat="41.702408000" lon="2.518600100">
        <ele>115.00</ele>
        <time>2012-09-23T08:49:07Z</time>
      </trkpt>
      <trkpt lat="41.702641000" lon="2.519057100">
        <ele>115.00</ele>
        <time>2012-09-23T08:49:16Z</time>
      </trkpt>
      <trkpt lat="41.702946000" lon="2.519538100">
        <ele>115.00</ele>
        <time>2012-09-23T08:49:24Z</time>
      </trkpt>
      <trkpt lat="41.703102000" lon="2.519831100">
        <ele>115.00</ele>
        <time>2012-09-23T08:49:30Z</time>
      </trkpt>
      <trkpt lat="41.703194000" lon="2.520010100">
        <ele>115.00</ele>
        <time>2012-09-23T08:49:33Z</time>
      </trkpt>
      <trkpt lat="41.703480000" lon="2.520616100">
        <ele>114.50</ele>
        <time>2012-09-23T08:49:42Z</time>
      </trkpt>
      <trkpt lat="41.703678000" lon="2.520983100">
        <ele>114.50</ele>
        <time>2012-09-23T08:49:49Z</time>
      </trkpt>
      <trkpt lat="41.703743000" lon="2.521091100">
        <ele>114.50</ele>
        <time>2012-09-23T08:49:52Z</time>
      </trkpt>
      <trkpt lat="41.703793000" lon="2.521207100">
        <ele>114.50</ele>
        <time>2012-09-23T08:49:54Z</time>
      </trkpt>
      <trkpt lat="41.704037000" lon="2.521743100">
        <ele>114.50</ele>
        <time>2012-09-23T08:50:04Z</time>
      </trkpt>
      <trkpt lat="41.704327000" lon="2.522166100">
        <ele>114.50</ele>
        <time>2012-09-23T08:50:13Z</time>
      </trkpt>
      <trkpt lat="41.704506000" lon="2.522330100">
        <ele>114.50</ele>
        <time>2012-09-23T08:50:17Z</time>
      </trkpt>
      <trkpt lat="41.704662000" lon="2.522527100">
        <ele>114.10</ele>
        <time>2012-09-23T08:50:20Z</time>
      </trkpt>
      <trkpt lat="41.704826000" lon="2.522698100">
        <ele>114.10</ele>
        <time>2012-09-23T08:50:25Z</time>
      </trkpt>
      <trkpt lat="41.705029000" lon="2.523021100">
        <ele>113.60</ele>
        <time>2012-09-23T08:50:30Z</time>
      </trkpt>
      <trkpt lat="41.705147000" lon="2.523242100">
        <ele>113.60</ele>
        <time>2012-09-23T08:50:34Z</time>
      </trkpt>
      <trkpt lat="41.705246000" lon="2.523561100">
        <ele>113.10</ele>
        <time>2012-09-23T08:50:39Z</time>
      </trkpt>
      <trkpt lat="41.705307000" lon="2.523819100">
        <ele>113.10</ele>
        <time>2012-09-23T08:50:43Z</time>
      </trkpt>
      <trkpt lat="41.705544000" lon="2.524356100">
        <ele>112.10</ele>
        <time>2012-09-23T08:50:53Z</time>
      </trkpt>
      <trkpt lat="41.705807000" lon="2.524884100">
        <ele>111.70</ele>
        <time>2012-09-23T08:51:00Z</time>
      </trkpt>
      <trkpt lat="41.705887000" lon="2.525090100">
        <ele>111.70</ele>
        <time>2012-09-23T08:51:04Z</time>
      </trkpt>
      <trkpt lat="41.706020000" lon="2.525729100">
        <ele>111.20</ele>
        <time>2012-09-23T08:51:12Z</time>
      </trkpt>
      <trkpt lat="41.706032000" lon="2.525795100">
        <ele>111.20</ele>
        <time>2012-09-23T08:51:14Z</time>
      </trkpt>
      <trkpt lat="41.706181000" lon="2.526371100">
        <ele>110.70</ele>
        <time>2012-09-23T08:51:23Z</time>
      </trkpt>
      <trkpt lat="41.706245000" lon="2.526564100">
        <ele>110.70</ele>
        <time>2012-09-23T08:51:26Z</time>
      </trkpt>
      <trkpt lat="41.706345000" lon="2.526823100">
        <ele>110.20</ele>
        <time>2012-09-23T08:51:30Z</time>
      </trkpt>
      <trkpt lat="41.706509000" lon="2.527162100">
        <ele>110.20</ele>
        <time>2012-09-23T08:51:35Z</time>
      </trkpt>
      <trkpt lat="41.706558000" lon="2.527413100">
        <ele>110.20</ele>
        <time>2012-09-23T08:51:40Z</time>
      </trkpt>
      <trkpt lat="41.706524000" lon="2.527770100">
        <ele>110.20</ele>
        <time>2012-09-23T08:51:45Z</time>
      </trkpt>
      <trkpt lat="41.706615000" lon="2.528108100">
        <ele>110.20</ele>
        <time>2012-09-23T08:51:52Z</time>
      </trkpt>
      <trkpt lat="41.706860000" lon="2.528644100">
        <ele>111.20</ele>
        <time>2012-09-23T08:52:03Z</time>
      </trkpt>
      <trkpt lat="41.707088000" lon="2.529116100">
        <ele>111.20</ele>
        <time>2012-09-23T08:52:11Z</time>
      </trkpt>
      <trkpt lat="41.707390000" lon="2.529735100">
        <ele>111.20</ele>
        <time>2012-09-23T08:52:22Z</time>
      </trkpt>
      <trkpt lat="41.707680000" lon="2.530283100">
        <ele>111.20</ele>
        <time>2012-09-23T08:52:31Z</time>
      </trkpt>
      <trkpt lat="41.707954000" lon="2.530783100">
        <ele>111.20</ele>
        <time>2012-09-23T08:52:39Z</time>
      </trkpt>
      <trkpt lat="41.708256000" lon="2.531282100">
        <ele>111.20</ele>
        <time>2012-09-23T08:52:48Z</time>
      </trkpt>
      <trkpt lat="41.708626000" lon="2.531880100">
        <ele>110.20</ele>
        <time>2012-09-23T08:52:57Z</time>
      </trkpt>
      <trkpt lat="41.708870000" lon="2.532278100">
        <ele>109.70</ele>
        <time>2012-09-23T08:53:04Z</time>
      </trkpt>
      <trkpt lat="41.709229000" lon="2.532859100">
        <ele>109.70</ele>
        <time>2012-09-23T08:53:14Z</time>
      </trkpt>
      <trkpt lat="41.709373000" lon="2.533068100">
        <ele>109.70</ele>
        <time>2012-09-23T08:53:18Z</time>
      </trkpt>
      <trkpt lat="41.709618000" lon="2.533266100">
        <ele>109.20</ele>
        <time>2012-09-23T08:53:23Z</time>
      </trkpt>
      <trkpt lat="41.709911000" lon="2.533622100">
        <ele>108.80</ele>
        <time>2012-09-23T08:53:30Z</time>
      </trkpt>
      <trkpt lat="41.710163000" lon="2.533837100">
        <ele>105.40</ele>
        <time>2012-09-23T08:53:35Z</time>
      </trkpt>
      <trkpt lat="41.710232000" lon="2.534062100">
        <ele>102.50</ele>
        <time>2012-09-23T08:53:40Z</time>
      </trkpt>
      <trkpt lat="41.710274000" lon="2.534146100">
        <ele>103.50</ele>
        <time>2012-09-23T08:53:42Z</time>
      </trkpt>
      <trkpt lat="41.710510000" lon="2.534563100">
        <ele>104.40</ele>
        <time>2012-09-23T08:53:51Z</time>
      </trkpt>
      <trkpt lat="41.710842000" lon="2.535273100">
        <ele>104.40</ele>
        <time>2012-09-23T08:54:05Z</time>
      </trkpt>
      <trkpt lat="41.711048000" lon="2.535692100">
        <ele>104.40</ele>
        <time>2012-09-23T08:54:12Z</time>
      </trkpt>
      <trkpt lat="41.711262000" lon="2.536097100">
        <ele>104.40</ele>
        <time>2012-09-23T08:54:20Z</time>
      </trkpt>
      <trkpt lat="41.711502000" lon="2.536633100">
        <ele>104.40</ele>
        <time>2012-09-23T08:54:29Z</time>
      </trkpt>
      <trkpt lat="41.711700000" lon="2.537100100">
        <ele>104.40</ele>
        <time>2012-09-23T08:54:36Z</time>
      </trkpt>
      <trkpt lat="41.712021000" lon="2.537770100">
        <ele>104.40</ele>
        <time>2012-09-23T08:54:47Z</time>
      </trkpt>
      <trkpt lat="41.712208000" lon="2.538383100">
        <ele>104.40</ele>
        <time>2012-09-23T08:54:55Z</time>
      </trkpt>
      <trkpt lat="41.712254000" lon="2.538527100">
        <ele>103.50</ele>
        <time>2012-09-23T08:54:57Z</time>
      </trkpt>
      <trkpt lat="41.712429000" lon="2.539167100">
        <ele>103.00</ele>
        <time>2012-09-23T08:55:06Z</time>
      </trkpt>
      <trkpt lat="41.712605000" lon="2.539719100">
        <ele>102.50</ele>
        <time>2012-09-23T08:55:13Z</time>
      </trkpt>
      <trkpt lat="41.712757000" lon="2.540289100">
        <ele>102.00</ele>
        <time>2012-09-23T08:55:21Z</time>
      </trkpt>
      <trkpt lat="41.712936000" lon="2.541075100">
        <ele>101.60</ele>
        <time>2012-09-23T08:55:32Z</time>
      </trkpt>
      <trkpt lat="41.713074000" lon="2.541732100">
        <ele>101.10</ele>
        <time>2012-09-23T08:55:42Z</time>
      </trkpt>
      <trkpt lat="41.713161000" lon="2.542207100">
        <ele>100.60</ele>
        <time>2012-09-23T08:55:48Z</time>
      </trkpt>
      <trkpt lat="41.713257000" lon="2.542907100">
        <ele>100.10</ele>
        <time>2012-09-23T08:55:56Z</time>
      </trkpt>
      <trkpt lat="41.713272000" lon="2.543216100">
        <ele>100.10</ele>
        <time>2012-09-23T08:56:00Z</time>
      </trkpt>
      <trkpt lat="41.713326000" lon="2.543873100">
        <ele>100.10</ele>
        <time>2012-09-23T08:56:10Z</time>
      </trkpt>
      <trkpt lat="41.713394000" lon="2.544496100">
        <ele>100.10</ele>
        <time>2012-09-23T08:56:19Z</time>
      </trkpt>
      <trkpt lat="41.713425000" lon="2.545039100">
        <ele>101.60</ele>
        <time>2012-09-23T08:56:29Z</time>
      </trkpt>
      <trkpt lat="41.713440000" lon="2.545519100">
        <ele>102.00</ele>
        <time>2012-09-23T08:56:38Z</time>
      </trkpt>
      <trkpt lat="41.713459000" lon="2.545836100">
        <ele>102.50</ele>
        <time>2012-09-23T08:56:43Z</time>
      </trkpt>
      <trkpt lat="41.713531000" lon="2.546684100">
        <ele>102.50</ele>
        <time>2012-09-23T08:56:57Z</time>
      </trkpt>
      <trkpt lat="41.713566000" lon="2.547024100">
        <ele>102.50</ele>
        <time>2012-09-23T08:57:01Z</time>
      </trkpt>
      <trkpt lat="41.713566000" lon="2.547162100">
        <ele>102.50</ele>
        <time>2012-09-23T08:57:04Z</time>
      </trkpt>
      <trkpt lat="41.713638000" lon="2.547731100">
        <ele>102.50</ele>
        <time>2012-09-23T08:57:13Z</time>
      </trkpt>
      <trkpt lat="41.713692000" lon="2.547983100">
        <ele>101.10</ele>
        <time>2012-09-23T08:57:16Z</time>
      </trkpt>
      <trkpt lat="41.713764000" lon="2.548788100">
        <ele>99.60</ele>
        <time>2012-09-23T08:57:25Z</time>
      </trkpt>
      <trkpt lat="41.713814000" lon="2.549187100">
        <ele>99.60</ele>
        <time>2012-09-23T08:57:30Z</time>
      </trkpt>
      <trkpt lat="41.713875000" lon="2.549873100">
        <ele>99.20</ele>
        <time>2012-09-23T08:57:39Z</time>
      </trkpt>
      <trkpt lat="41.713940000" lon="2.550442100">
        <ele>98.70</ele>
        <time>2012-09-23T08:57:46Z</time>
      </trkpt>
      <trkpt lat="41.714005000" lon="2.551012100">
        <ele>98.70</ele>
        <time>2012-09-23T08:57:55Z</time>
      </trkpt>
      <trkpt lat="41.714081000" lon="2.551711100">
        <ele>98.70</ele>
        <time>2012-09-23T08:58:05Z</time>
      </trkpt>
      <trkpt lat="41.714161000" lon="2.552410100">
        <ele>98.20</ele>
        <time>2012-09-23T08:58:14Z</time>
      </trkpt>
      <trkpt lat="41.714241000" lon="2.553039100">
        <ele>98.20</ele>
        <time>2012-09-23T08:58:24Z</time>
      </trkpt>
      <trkpt lat="41.714336000" lon="2.553676100">
        <ele>97.70</ele>
        <time>2012-09-23T08:58:33Z</time>
      </trkpt>
      <trkpt lat="41.714451000" lon="2.554391100">
        <ele>97.70</ele>
        <time>2012-09-23T08:58:42Z</time>
      </trkpt>
      <trkpt lat="41.714542000" lon="2.554813100">
        <ele>97.20</ele>
        <time>2012-09-23T08:58:49Z</time>
      </trkpt>
      <trkpt lat="41.714668000" lon="2.555153100">
        <ele>96.30</ele>
        <time>2012-09-23T08:58:54Z</time>
      </trkpt>
      <trkpt lat="41.714825000" lon="2.555759100">
        <ele>96.30</ele>
        <time>2012-09-23T08:59:03Z</time>
      </trkpt>
      <trkpt lat="41.714844000" lon="2.555888100">
        <ele>96.30</ele>
        <time>2012-09-23T08:59:04Z</time>
      </trkpt>
      <trkpt lat="41.714870000" lon="2.556012100">
        <ele>96.30</ele>
        <time>2012-09-23T08:59:06Z</time>
      </trkpt>
      <trkpt lat="41.715019000" lon="2.556532100">
        <ele>95.80</ele>
        <time>2012-09-23T08:59:15Z</time>
      </trkpt>
      <trkpt lat="41.715168000" lon="2.557142100">
        <ele>95.30</ele>
        <time>2012-09-23T08:59:22Z</time>
      </trkpt>
      <trkpt lat="41.715313000" lon="2.557871100">
        <ele>94.80</ele>
        <time>2012-09-23T08:59:32Z</time>
      </trkpt>
      <trkpt lat="41.715458000" lon="2.558198100">
        <ele>94.80</ele>
        <time>2012-09-23T08:59:37Z</time>
      </trkpt>
      <trkpt lat="41.715572000" lon="2.558533100">
        <ele>94.30</ele>
        <time>2012-09-23T08:59:44Z</time>
      </trkpt>
      <trkpt lat="41.715668000" lon="2.558886100">
        <ele>94.30</ele>
        <time>2012-09-23T08:59:51Z</time>
      </trkpt>
      <trkpt lat="41.715649000" lon="2.558987100">
        <ele>95.80</ele>
        <time>2012-09-23T08:59:53Z</time>
      </trkpt>
      <trkpt lat="41.715542000" lon="2.559140100">
        <ele>99.60</ele>
        <time>2012-09-23T08:59:58Z</time>
      </trkpt>
      <trkpt lat="41.715492000" lon="2.559163100">
        <ele>102.00</ele>
        <time>2012-09-23T09:00:02Z</time>
      </trkpt>
      <trkpt lat="41.715462000" lon="2.559201100">
        <ele>102.50</ele>
        <time>2012-09-23T09:00:05Z</time>
      </trkpt>
      <trkpt lat="41.715374000" lon="2.559230100">
        <ele>102.50</ele>
        <time>2012-09-23T09:00:12Z</time>
      </trkpt>
      <trkpt lat="41.715229000" lon="2.559314100">
        <ele>102.50</ele>
        <time>2012-09-23T09:00:19Z</time>
      </trkpt>
      <trkpt lat="41.715050000" lon="2.559388100">
        <ele>101.60</ele>
        <time>2012-09-23T09:00:28Z</time>
      </trkpt>
      <trkpt lat="41.714855000" lon="2.559497100">
        <ele>101.10</ele>
        <time>2012-09-23T09:00:35Z</time>
      </trkpt>
      <trkpt lat="41.714718000" lon="2.559692100">
        <ele>100.60</ele>
        <time>2012-09-23T09:00:42Z</time>
      </trkpt>
      <trkpt lat="41.714676000" lon="2.559927100">
        <ele>99.60</ele>
        <time>2012-09-23T09:00:47Z</time>
      </trkpt>
      <trkpt lat="41.714687000" lon="2.560129100">
        <ele>98.70</ele>
        <time>2012-09-23T09:00:49Z</time>
      </trkpt>
      <trkpt lat="41.714729000" lon="2.560463100">
        <ele>93.90</ele>
        <time>2012-09-23T09:00:54Z</time>
      </trkpt>
      <trkpt lat="41.714752000" lon="2.560695100">
        <ele>91.50</ele>
        <time>2012-09-23T09:00:58Z</time>
      </trkpt>
      <trkpt lat="41.714809000" lon="2.561120100">
        <ele>91.00</ele>
        <time>2012-09-23T09:01:03Z</time>
      </trkpt>
      <trkpt lat="41.714882000" lon="2.561322100">
        <ele>92.40</ele>
        <time>2012-09-23T09:01:08Z</time>
      </trkpt>
      <trkpt lat="41.715073000" lon="2.561802100">
        <ele>93.40</ele>
        <time>2012-09-23T09:01:17Z</time>
      </trkpt>
      <trkpt lat="41.715397000" lon="2.562626100">
        <ele>93.40</ele>
        <time>2012-09-23T09:01:31Z</time>
      </trkpt>
      <trkpt lat="41.715530000" lon="2.562998100">
        <ele>93.40</ele>
        <time>2012-09-23T09:01:38Z</time>
      </trkpt>
      <trkpt lat="41.715633000" lon="2.563164100">
        <ele>93.40</ele>
        <time>2012-09-23T09:01:41Z</time>
      </trkpt>
      <trkpt lat="41.715816000" lon="2.563478100">
        <ele>93.90</ele>
        <time>2012-09-23T09:01:50Z</time>
      </trkpt>
      <trkpt lat="41.715923000" lon="2.563751100">
        <ele>94.30</ele>
        <time>2012-09-23T09:01:57Z</time>
      </trkpt>
      <trkpt lat="41.716034000" lon="2.564133100">
        <ele>95.30</ele>
        <time>2012-09-23T09:02:04Z</time>
      </trkpt>
      <trkpt lat="41.716049000" lon="2.564193100">
        <ele>95.30</ele>
        <time>2012-09-23T09:02:05Z</time>
      </trkpt>
      <trkpt lat="41.716217000" lon="2.564602100">
        <ele>95.30</ele>
        <time>2012-09-23T09:02:14Z</time>
      </trkpt>
      <trkpt lat="41.716362000" lon="2.564918100">
        <ele>96.30</ele>
        <time>2012-09-23T09:02:21Z</time>
      </trkpt>
      <trkpt lat="41.716492000" lon="2.565255100">
        <ele>96.80</ele>
        <time>2012-09-23T09:02:30Z</time>
      </trkpt>
      <trkpt lat="41.716682000" lon="2.565612100">
        <ele>97.20</ele>
        <time>2012-09-23T09:02:37Z</time>
      </trkpt>
      <trkpt lat="41.716892000" lon="2.565575100">
        <ele>97.20</ele>
        <time>2012-09-23T09:02:42Z</time>
      </trkpt>
      <trkpt lat="41.717178000" lon="2.565458100">
        <ele>95.30</ele>
        <time>2012-09-23T09:02:47Z</time>
      </trkpt>
      <trkpt lat="41.717422000" lon="2.565596100">
        <ele>92.40</ele>
        <time>2012-09-23T09:02:51Z</time>
      </trkpt>
      <trkpt lat="41.717468000" lon="2.565670100">
        <ele>91.50</ele>
        <time>2012-09-23T09:02:53Z</time>
      </trkpt>
      <trkpt lat="41.717651000" lon="2.566040100">
        <ele>87.10</ele>
        <time>2012-09-23T09:02:58Z</time>
      </trkpt>
      <trkpt lat="41.717972000" lon="2.566695100">
        <ele>87.60</ele>
        <time>2012-09-23T09:03:06Z</time>
      </trkpt>
      <trkpt lat="41.718342000" lon="2.567497100">
        <ele>87.10</ele>
        <time>2012-09-23T09:03:17Z</time>
      </trkpt>
      <trkpt lat="41.718639000" lon="2.568106100">
        <ele>87.10</ele>
        <time>2012-09-23T09:03:26Z</time>
      </trkpt>
      <trkpt lat="41.719006000" lon="2.568880100">
        <ele>86.70</ele>
        <time>2012-09-23T09:03:38Z</time>
      </trkpt>
      <trkpt lat="41.719273000" lon="2.569435100">
        <ele>86.70</ele>
        <time>2012-09-23T09:03:48Z</time>
      </trkpt>
      <trkpt lat="41.719593000" lon="2.570086100">
        <ele>86.20</ele>
        <time>2012-09-23T09:03:59Z</time>
      </trkpt>
      <trkpt lat="41.719883000" lon="2.570672100">
        <ele>86.20</ele>
        <time>2012-09-23T09:04:09Z</time>
      </trkpt>
      <trkpt lat="41.720207000" lon="2.571321100">
        <ele>85.70</ele>
        <time>2012-09-23T09:04:20Z</time>
      </trkpt>
      <trkpt lat="41.720490000" lon="2.571897100">
        <ele>85.70</ele>
        <time>2012-09-23T09:04:30Z</time>
      </trkpt>
      <trkpt lat="41.720673000" lon="2.572278100">
        <ele>85.70</ele>
        <time>2012-09-23T09:04:37Z</time>
      </trkpt>
      <trkpt lat="41.720646000" lon="2.572559100">
        <ele>85.20</ele>
        <time>2012-09-23T09:04:44Z</time>
      </trkpt>
      <trkpt lat="41.720638000" lon="2.572583100">
        <ele>85.20</ele>
        <time>2012-09-23T09:04:46Z</time>
      </trkpt>
      <trkpt lat="41.720612000" lon="2.572611100">
        <ele>84.70</ele>
        <time>2012-09-23T09:04:53Z</time>
      </trkpt>
      <trkpt lat="41.720612000" lon="2.572611100">
        <ele>84.70</ele>
        <time>2012-09-23T09:05:07Z</time>
      </trkpt>
      <trkpt lat="41.720612000" lon="2.572612100">
        <ele>83.80</ele>
        <time>2012-09-23T09:05:33Z</time>
      </trkpt>
      <trkpt lat="41.720600000" lon="2.572621100">
        <ele>83.80</ele>
        <time>2012-09-23T09:05:40Z</time>
      </trkpt>
      <trkpt lat="41.720474000" lon="2.572557100">
        <ele>83.80</ele>
        <time>2012-09-23T09:05:47Z</time>
      </trkpt>
      <trkpt lat="41.720287000" lon="2.572441100">
        <ele>83.80</ele>
        <time>2012-09-23T09:05:55Z</time>
      </trkpt>
      <trkpt lat="41.720016000" lon="2.572291100">
        <ele>83.80</ele>
        <time>2012-09-23T09:06:04Z</time>
      </trkpt>
      <trkpt lat="41.719681000" lon="2.572158100">
        <ele>83.80</ele>
        <time>2012-09-23T09:06:15Z</time>
      </trkpt>
      <trkpt lat="41.719360000" lon="2.572027100">
        <ele>83.80</ele>
        <time>2012-09-23T09:06:23Z</time>
      </trkpt>
      <trkpt lat="41.719028000" lon="2.571810100">
        <ele>84.20</ele>
        <time>2012-09-23T09:06:34Z</time>
      </trkpt>
      <trkpt lat="41.718754000" lon="2.571669100">
        <ele>84.20</ele>
        <time>2012-09-23T09:06:41Z</time>
      </trkpt>
      <trkpt lat="41.718464000" lon="2.571585100">
        <ele>85.20</ele>
        <time>2012-09-23T09:06:49Z</time>
      </trkpt>
      <trkpt lat="41.718258000" lon="2.571664100">
        <ele>85.20</ele>
        <time>2012-09-23T09:06:55Z</time>
      </trkpt>
      <trkpt lat="41.717995000" lon="2.571871100">
        <ele>85.20</ele>
        <time>2012-09-23T09:07:03Z</time>
      </trkpt>
      <trkpt lat="41.717880000" lon="2.572129100">
        <ele>86.20</ele>
        <time>2012-09-23T09:07:10Z</time>
      </trkpt>
      <trkpt lat="41.717892000" lon="2.572598100">
        <ele>86.20</ele>
        <time>2012-09-23T09:07:19Z</time>
      </trkpt>
      <trkpt lat="41.717888000" lon="2.572968100">
        <ele>86.20</ele>
        <time>2012-09-23T09:07:26Z</time>
      </trkpt>
      <trkpt lat="41.717873000" lon="2.573358100">
        <ele>86.70</ele>
        <time>2012-09-23T09:07:35Z</time>
      </trkpt>
      <trkpt lat="41.717865000" lon="2.573660100">
        <ele>87.10</ele>
        <time>2012-09-23T09:07:42Z</time>
      </trkpt>
      <trkpt lat="41.717857000" lon="2.573933100">
        <ele>87.60</ele>
        <time>2012-09-23T09:07:47Z</time>
      </trkpt>
      <trkpt lat="41.717770000" lon="2.574370100">
        <ele>87.60</ele>
        <time>2012-09-23T09:07:56Z</time>
      </trkpt>
      <trkpt lat="41.717587000" lon="2.574843100">
        <ele>87.60</ele>
        <time>2012-09-23T09:08:06Z</time>
      </trkpt>
      <trkpt lat="41.717396000" lon="2.575027100">
        <ele>87.60</ele>
        <time>2012-09-23T09:08:13Z</time>
      </trkpt>
      <trkpt lat="41.717110000" lon="2.575151100">
        <ele>88.10</ele>
        <time>2012-09-23T09:08:20Z</time>
      </trkpt>
      <trkpt lat="41.716835000" lon="2.575290100">
        <ele>88.10</ele>
        <time>2012-09-23T09:08:29Z</time>
      </trkpt>
      <trkpt lat="41.716568000" lon="2.575315100">
        <ele>88.60</ele>
        <time>2012-09-23T09:08:36Z</time>
      </trkpt>
      <trkpt lat="41.716331000" lon="2.575189100">
        <ele>89.10</ele>
        <time>2012-09-23T09:08:43Z</time>
      </trkpt>
      <trkpt lat="41.716099000" lon="2.574914100">
        <ele>89.10</ele>
        <time>2012-09-23T09:08:50Z</time>
      </trkpt>
      <trkpt lat="41.715950000" lon="2.574624100">
        <ele>89.50</ele>
        <time>2012-09-23T09:08:58Z</time>
      </trkpt>
      <trkpt lat="41.715816000" lon="2.574361100">
        <ele>90.00</ele>
        <time>2012-09-23T09:09:05Z</time>
      </trkpt>
      <trkpt lat="41.715725000" lon="2.574142100">
        <ele>90.50</ele>
        <time>2012-09-23T09:09:12Z</time>
      </trkpt>
      <trkpt lat="41.715553000" lon="2.573945100">
        <ele>91.50</ele>
        <time>2012-09-23T09:09:19Z</time>
      </trkpt>
      <trkpt lat="41.715351000" lon="2.573837100">
        <ele>91.90</ele>
        <time>2012-09-23T09:09:26Z</time>
      </trkpt>
      <trkpt lat="41.715118000" lon="2.573822100">
        <ele>92.90</ele>
        <time>2012-09-23T09:09:33Z</time>
      </trkpt>
      <trkpt lat="41.714851000" lon="2.573889100">
        <ele>93.90</ele>
        <time>2012-09-23T09:09:40Z</time>
      </trkpt>
      <trkpt lat="41.714584000" lon="2.574010100">
        <ele>94.30</ele>
        <time>2012-09-23T09:09:49Z</time>
      </trkpt>
      <trkpt lat="41.714321000" lon="2.574181100">
        <ele>94.80</ele>
        <time>2012-09-23T09:09:56Z</time>
      </trkpt>
      <trkpt lat="41.714108000" lon="2.574437100">
        <ele>94.80</ele>
        <time>2012-09-23T09:10:05Z</time>
      </trkpt>
      <trkpt lat="41.713886000" lon="2.574771100">
        <ele>95.30</ele>
        <time>2012-09-23T09:10:13Z</time>
      </trkpt>
      <trkpt lat="41.713654000" lon="2.575055100">
        <ele>95.80</ele>
        <time>2012-09-23T09:10:22Z</time>
      </trkpt>
      <trkpt lat="41.713303000" lon="2.575348100">
        <ele>95.80</ele>
        <time>2012-09-23T09:10:31Z</time>
      </trkpt>
      <trkpt lat="41.713230000" lon="2.575406100">
        <ele>95.30</ele>
        <time>2012-09-23T09:10:34Z</time>
      </trkpt>
      <trkpt lat="41.712940000" lon="2.575751100">
        <ele>95.30</ele>
        <time>2012-09-23T09:10:43Z</time>
      </trkpt>
      <trkpt lat="41.712711000" lon="2.576095100">
        <ele>95.30</ele>
        <time>2012-09-23T09:10:52Z</time>
      </trkpt>
      <trkpt lat="41.712513000" lon="2.576417100">
        <ele>95.80</ele>
        <time>2012-09-23T09:11:00Z</time>
      </trkpt>
      <trkpt lat="41.712288000" lon="2.576828100">
        <ele>95.80</ele>
        <time>2012-09-23T09:11:11Z</time>
      </trkpt>
      <trkpt lat="41.712070000" lon="2.577114100">
        <ele>96.30</ele>
        <time>2012-09-23T09:11:18Z</time>
      </trkpt>
      <trkpt lat="41.711922000" lon="2.577426100">
        <ele>96.80</ele>
        <time>2012-09-23T09:11:26Z</time>
      </trkpt>
      <trkpt lat="41.711758000" lon="2.577746100">
        <ele>96.80</ele>
        <time>2012-09-23T09:11:33Z</time>
      </trkpt>
      <trkpt lat="41.711563000" lon="2.577961100">
        <ele>96.80</ele>
        <time>2012-09-23T09:11:40Z</time>
      </trkpt>
      <trkpt lat="41.711277000" lon="2.578204100">
        <ele>97.20</ele>
        <time>2012-09-23T09:11:49Z</time>
      </trkpt>
      <trkpt lat="41.711060000" lon="2.578433100">
        <ele>97.70</ele>
        <time>2012-09-23T09:11:58Z</time>
      </trkpt>
      <trkpt lat="41.710854000" lon="2.578757100">
        <ele>99.20</ele>
        <time>2012-09-23T09:12:06Z</time>
      </trkpt>
      <trkpt lat="41.710594000" lon="2.578905100">
        <ele>99.60</ele>
        <time>2012-09-23T09:12:13Z</time>
      </trkpt>
      <trkpt lat="41.710300000" lon="2.579012100">
        <ele>100.10</ele>
        <time>2012-09-23T09:12:20Z</time>
      </trkpt>
      <trkpt lat="41.710026000" lon="2.579216100">
        <ele>100.10</ele>
        <time>2012-09-23T09:12:27Z</time>
      </trkpt>
      <trkpt lat="41.709671000" lon="2.579383100">
        <ele>100.10</ele>
        <time>2012-09-23T09:12:36Z</time>
      </trkpt>
      <trkpt lat="41.709248000" lon="2.579587100">
        <ele>100.60</ele>
        <time>2012-09-23T09:12:48Z</time>
      </trkpt>
      <trkpt lat="41.708984000" lon="2.579731100">
        <ele>101.60</ele>
        <time>2012-09-23T09:12:57Z</time>
      </trkpt>
      <trkpt lat="41.708721000" lon="2.579962100">
        <ele>103.00</ele>
        <time>2012-09-23T09:13:06Z</time>
      </trkpt>
      <trkpt lat="41.708496000" lon="2.580136100">
        <ele>104.40</ele>
        <time>2012-09-23T09:13:14Z</time>
      </trkpt>
      <trkpt lat="41.708183000" lon="2.580294100">
        <ele>105.40</ele>
        <time>2012-09-23T09:13:23Z</time>
      </trkpt>
      <trkpt lat="41.707916000" lon="2.580494100">
        <ele>105.90</ele>
        <time>2012-09-23T09:13:32Z</time>
      </trkpt>
      <trkpt lat="41.707680000" lon="2.580760100">
        <ele>105.90</ele>
        <time>2012-09-23T09:13:39Z</time>
      </trkpt>
      <trkpt lat="41.707569000" lon="2.580968100">
        <ele>105.90</ele>
        <time>2012-09-23T09:13:42Z</time>
      </trkpt>
      <trkpt lat="41.707413000" lon="2.581368100">
        <ele>105.40</ele>
        <time>2012-09-23T09:13:51Z</time>
      </trkpt>
      <trkpt lat="41.707302000" lon="2.581620100">
        <ele>105.40</ele>
        <time>2012-09-23T09:13:56Z</time>
      </trkpt>
      <trkpt lat="41.707092000" lon="2.581968100">
        <ele>105.90</ele>
        <time>2012-09-23T09:14:05Z</time>
      </trkpt>
      <trkpt lat="41.706974000" lon="2.582101100">
        <ele>105.90</ele>
        <time>2012-09-23T09:14:10Z</time>
      </trkpt>
      <trkpt lat="41.706932000" lon="2.582102100">
        <ele>105.90</ele>
        <time>2012-09-23T09:14:14Z</time>
      </trkpt>
      <trkpt lat="41.706814000" lon="2.581889100">
        <ele>105.90</ele>
        <time>2012-09-23T09:14:22Z</time>
      </trkpt>
      <trkpt lat="41.706776000" lon="2.581850100">
        <ele>106.40</ele>
        <time>2012-09-23T09:14:24Z</time>
      </trkpt>
      <trkpt lat="41.706680000" lon="2.581816100">
        <ele>106.80</ele>
        <time>2012-09-23T09:14:28Z</time>
      </trkpt>
      <trkpt lat="41.706383000" lon="2.581762100">
        <ele>108.80</ele>
        <time>2012-09-23T09:14:38Z</time>
      </trkpt>
      <trkpt lat="41.706070000" lon="2.581687100">
        <ele>110.20</ele>
        <time>2012-09-23T09:14:50Z</time>
      </trkpt>
      <trkpt lat="41.705849000" lon="2.581605100">
        <ele>111.70</ele>
        <time>2012-09-23T09:14:57Z</time>
      </trkpt>
      <trkpt lat="41.705639000" lon="2.581491100">
        <ele>112.60</ele>
        <time>2012-09-23T09:15:06Z</time>
      </trkpt>
      <trkpt lat="41.705444000" lon="2.581315100">
        <ele>113.60</ele>
        <time>2012-09-23T09:15:13Z</time>
      </trkpt>
      <trkpt lat="41.705330000" lon="2.581072100">
        <ele>115.00</ele>
        <time>2012-09-23T09:15:22Z</time>
      </trkpt>
      <trkpt lat="41.705208000" lon="2.580952100">
        <ele>116.00</ele>
        <time>2012-09-23T09:15:27Z</time>
      </trkpt>
      <trkpt lat="41.705051000" lon="2.580834100">
        <ele>116.90</ele>
        <time>2012-09-23T09:15:34Z</time>
      </trkpt>
      <trkpt lat="41.704937000" lon="2.580639100">
        <ele>118.40</ele>
        <time>2012-09-23T09:15:41Z</time>
      </trkpt>
      <trkpt lat="41.704788000" lon="2.580405100">
        <ele>118.90</ele>
        <time>2012-09-23T09:15:49Z</time>
      </trkpt>
      <trkpt lat="41.704586000" lon="2.580121100">
        <ele>119.30</ele>
        <time>2012-09-23T09:15:58Z</time>
      </trkpt>
      <trkpt lat="41.704350000" lon="2.580007100">
        <ele>119.30</ele>
        <time>2012-09-23T09:16:05Z</time>
      </trkpt>
      <trkpt lat="41.704174000" lon="2.579937100">
        <ele>119.80</ele>
        <time>2012-09-23T09:16:10Z</time>
      </trkpt>
      <trkpt lat="41.703991000" lon="2.579843100">
        <ele>120.30</ele>
        <time>2012-09-23T09:16:17Z</time>
      </trkpt>
      <trkpt lat="41.703789000" lon="2.579803100">
        <ele>121.30</ele>
        <time>2012-09-23T09:16:24Z</time>
      </trkpt>
      <trkpt lat="41.703552000" lon="2.579747100">
        <ele>121.70</ele>
        <time>2012-09-23T09:16:31Z</time>
      </trkpt>
      <trkpt lat="41.703342000" lon="2.579649100">
        <ele>123.70</ele>
        <time>2012-09-23T09:16:40Z</time>
      </trkpt>
      <trkpt lat="41.703156000" lon="2.579517100">
        <ele>124.60</ele>
        <time>2012-09-23T09:16:47Z</time>
      </trkpt>
      <trkpt lat="41.702988000" lon="2.579454100">
        <ele>125.10</ele>
        <time>2012-09-23T09:16:52Z</time>
      </trkpt>
      <trkpt lat="41.702652000" lon="2.579385100">
        <ele>125.10</ele>
        <time>2012-09-23T09:17:01Z</time>
      </trkpt>
      <trkpt lat="41.702309000" lon="2.579379100">
        <ele>125.10</ele>
        <time>2012-09-23T09:17:10Z</time>
      </trkpt>
      <trkpt lat="41.701981000" lon="2.579413100">
        <ele>125.60</ele>
        <time>2012-09-23T09:17:18Z</time>
      </trkpt>
      <trkpt lat="41.701744000" lon="2.579471100">
        <ele>126.10</ele>
        <time>2012-09-23T09:17:25Z</time>
      </trkpt>
      <trkpt lat="41.701500000" lon="2.579558100">
        <ele>127.00</ele>
        <time>2012-09-23T09:17:34Z</time>
      </trkpt>
      <trkpt lat="41.701176000" lon="2.579705100">
        <ele>128.00</ele>
        <time>2012-09-23T09:17:43Z</time>
      </trkpt>
      <trkpt lat="41.700974000" lon="2.579830100">
        <ele>128.50</ele>
        <time>2012-09-23T09:17:48Z</time>
      </trkpt>
      <trkpt lat="41.700665000" lon="2.579939100">
        <ele>128.50</ele>
        <time>2012-09-23T09:17:57Z</time>
      </trkpt>
      <trkpt lat="41.700405000" lon="2.579907100">
        <ele>128.50</ele>
        <time>2012-09-23T09:18:04Z</time>
      </trkpt>
      <trkpt lat="41.700165000" lon="2.579773100">
        <ele>128.90</ele>
        <time>2012-09-23T09:18:12Z</time>
      </trkpt>
      <trkpt lat="41.700008000" lon="2.579598100">
        <ele>128.90</ele>
        <time>2012-09-23T09:18:18Z</time>
      </trkpt>
      <trkpt lat="41.699928000" lon="2.579446100">
        <ele>128.90</ele>
        <time>2012-09-23T09:18:21Z</time>
      </trkpt>
      <trkpt lat="41.699688000" lon="2.579247100">
        <ele>128.90</ele>
        <time>2012-09-23T09:18:28Z</time>
      </trkpt>
      <trkpt lat="41.699387000" lon="2.579120100">
        <ele>128.50</ele>
        <time>2012-09-23T09:18:35Z</time>
      </trkpt>
      <trkpt lat="41.699223000" lon="2.578842100">
        <ele>129.40</ele>
        <time>2012-09-23T09:18:44Z</time>
      </trkpt>
      <trkpt lat="41.699112000" lon="2.578647100">
        <ele>130.40</ele>
        <time>2012-09-23T09:18:51Z</time>
      </trkpt>
      <trkpt lat="41.699024000" lon="2.578408100">
        <ele>132.30</ele>
        <time>2012-09-23T09:18:59Z</time>
      </trkpt>
      <trkpt lat="41.699009000" lon="2.578381100">
        <ele>132.30</ele>
        <time>2012-09-23T09:18:59Z</time>
      </trkpt>
      <trkpt lat="41.698887000" lon="2.578421100">
        <ele>132.80</ele>
        <time>2012-09-23T09:19:05Z</time>
      </trkpt>
      <trkpt lat="41.698887000" lon="2.578564100">
        <ele>133.80</ele>
        <time>2012-09-23T09:19:08Z</time>
      </trkpt>
      <trkpt lat="41.698895000" lon="2.578880100">
        <ele>135.20</ele>
        <time>2012-09-23T09:19:17Z</time>
      </trkpt>
      <trkpt lat="41.698780000" lon="2.579002100">
        <ele>135.70</ele>
        <time>2012-09-23T09:19:24Z</time>
      </trkpt>
      <trkpt lat="41.698574000" lon="2.579044100">
        <ele>137.60</ele>
        <time>2012-09-23T09:19:31Z</time>
      </trkpt>
      <trkpt lat="41.698357000" lon="2.579112100">
        <ele>138.60</ele>
        <time>2012-09-23T09:19:39Z</time>
      </trkpt>
      <trkpt lat="41.698196000" lon="2.579263100">
        <ele>139.50</ele>
        <time>2012-09-23T09:19:46Z</time>
      </trkpt>
      <trkpt lat="41.698071000" lon="2.579525100">
        <ele>141.00</ele>
        <time>2012-09-23T09:19:55Z</time>
      </trkpt>
      <trkpt lat="41.698021000" lon="2.579624100">
        <ele>141.40</ele>
        <time>2012-09-23T09:19:57Z</time>
      </trkpt>
      <trkpt lat="41.697903000" lon="2.579626100">
        <ele>141.90</ele>
        <time>2012-09-23T09:20:02Z</time>
      </trkpt>
      <trkpt lat="41.697872000" lon="2.579425100">
        <ele>142.40</ele>
        <time>2012-09-23T09:20:09Z</time>
      </trkpt>
      <trkpt lat="41.697834000" lon="2.578925100">
        <ele>142.40</ele>
        <time>2012-09-23T09:20:18Z</time>
      </trkpt>
      <trkpt lat="41.697769000" lon="2.578732100">
        <ele>142.40</ele>
        <time>2012-09-23T09:20:21Z</time>
      </trkpt>
      <trkpt lat="41.697662000" lon="2.578547100">
        <ele>142.40</ele>
        <time>2012-09-23T09:20:23Z</time>
      </trkpt>
      <trkpt lat="41.697392000" lon="2.578342100">
        <ele>141.00</ele>
        <time>2012-09-23T09:20:30Z</time>
      </trkpt>
      <trkpt lat="41.697041000" lon="2.578087100">
        <ele>141.00</ele>
        <time>2012-09-23T09:20:39Z</time>
      </trkpt>
      <trkpt lat="41.696819000" lon="2.577867100">
        <ele>140.50</ele>
        <time>2012-09-23T09:20:46Z</time>
      </trkpt>
      <trkpt lat="41.696690000" lon="2.577732100">
        <ele>140.50</ele>
        <time>2012-09-23T09:20:49Z</time>
      </trkpt>
      <trkpt lat="41.696369000" lon="2.577561100">
        <ele>140.00</ele>
        <time>2012-09-23T09:20:56Z</time>
      </trkpt>
      <trkpt lat="41.696091000" lon="2.577503100">
        <ele>139.50</ele>
        <time>2012-09-23T09:21:03Z</time>
      </trkpt>
      <trkpt lat="41.695911000" lon="2.577453100">
        <ele>139.50</ele>
        <time>2012-09-23T09:21:08Z</time>
      </trkpt>
      <trkpt lat="41.695614000" lon="2.577314100">
        <ele>139.50</ele>
        <time>2012-09-23T09:21:15Z</time>
      </trkpt>
      <trkpt lat="41.695419000" lon="2.577149100">
        <ele>139.50</ele>
        <time>2012-09-23T09:21:24Z</time>
      </trkpt>
      <trkpt lat="41.695255000" lon="2.576973100">
        <ele>139.50</ele>
        <time>2012-09-23T09:21:31Z</time>
      </trkpt>
      <trkpt lat="41.695213000" lon="2.576931100">
        <ele>141.00</ele>
        <time>2012-09-23T09:21:34Z</time>
      </trkpt>
      <trkpt lat="41.695045000" lon="2.576864100">
        <ele>142.40</ele>
        <time>2012-09-23T09:21:40Z</time>
      </trkpt>
      <trkpt lat="41.694790000" lon="2.576902100">
        <ele>142.40</ele>
        <time>2012-09-23T09:21:47Z</time>
      </trkpt>
      <trkpt lat="41.694546000" lon="2.576968100">
        <ele>142.90</ele>
        <time>2012-09-23T09:21:52Z</time>
      </trkpt>
      <trkpt lat="41.694386000" lon="2.577052100">
        <ele>142.90</ele>
        <time>2012-09-23T09:21:57Z</time>
      </trkpt>
      <trkpt lat="41.694172000" lon="2.577265100">
        <ele>143.40</ele>
        <time>2012-09-23T09:22:02Z</time>
      </trkpt>
      <trkpt lat="41.693913000" lon="2.577382100">
        <ele>143.40</ele>
        <time>2012-09-23T09:22:09Z</time>
      </trkpt>
      <trkpt lat="41.693668000" lon="2.577315100">
        <ele>143.40</ele>
        <time>2012-09-23T09:22:16Z</time>
      </trkpt>
      <trkpt lat="41.693558000" lon="2.577221100">
        <ele>143.40</ele>
        <time>2012-09-23T09:22:20Z</time>
      </trkpt>
      <trkpt lat="41.693401000" lon="2.577137100">
        <ele>143.40</ele>
        <time>2012-09-23T09:22:23Z</time>
      </trkpt>
      <trkpt lat="41.693146000" lon="2.577136100">
        <ele>143.40</ele>
        <time>2012-09-23T09:22:30Z</time>
      </trkpt>
      <trkpt lat="41.692852000" lon="2.577182100">
        <ele>143.90</ele>
        <time>2012-09-23T09:22:39Z</time>
      </trkpt>
      <trkpt lat="41.692562000" lon="2.577149100">
        <ele>145.80</ele>
        <time>2012-09-23T09:22:49Z</time>
      </trkpt>
      <trkpt lat="41.692329000" lon="2.576998100">
        <ele>146.70</ele>
        <time>2012-09-23T09:22:56Z</time>
      </trkpt>
      <trkpt lat="41.692120000" lon="2.576799100">
        <ele>148.20</ele>
        <time>2012-09-23T09:23:05Z</time>
      </trkpt>
      <trkpt lat="41.691986000" lon="2.576659100">
        <ele>148.70</ele>
        <time>2012-09-23T09:23:12Z</time>
      </trkpt>
      <trkpt lat="41.691807000" lon="2.576427100">
        <ele>150.60</ele>
        <time>2012-09-23T09:23:19Z</time>
      </trkpt>
      <trkpt lat="41.691612000" lon="2.576052100">
        <ele>151.50</ele>
        <time>2012-09-23T09:23:29Z</time>
      </trkpt>
      <trkpt lat="41.691452000" lon="2.575729100">
        <ele>152.00</ele>
        <time>2012-09-23T09:23:38Z</time>
      </trkpt>
      <trkpt lat="41.691330000" lon="2.575499100">
        <ele>152.50</ele>
        <time>2012-09-23T09:23:45Z</time>
      </trkpt>
      <trkpt lat="41.691151000" lon="2.575359100">
        <ele>153.50</ele>
        <time>2012-09-23T09:23:52Z</time>
      </trkpt>
      <trkpt lat="41.690918000" lon="2.575151100">
        <ele>153.90</ele>
        <time>2012-09-23T09:24:01Z</time>
      </trkpt>
      <trkpt lat="41.690769000" lon="2.574853100">
        <ele>153.90</ele>
        <time>2012-09-23T09:24:08Z</time>
      </trkpt>
      <trkpt lat="41.690750000" lon="2.574802100">
        <ele>153.90</ele>
        <time>2012-09-23T09:24:09Z</time>
      </trkpt>
      <trkpt lat="41.690590000" lon="2.574407100">
        <ele>154.90</ele>
        <time>2012-09-23T09:24:18Z</time>
      </trkpt>
      <trkpt lat="41.690453000" lon="2.574045100">
        <ele>155.40</ele>
        <time>2012-09-23T09:24:27Z</time>
      </trkpt>
      <trkpt lat="41.690353000" lon="2.573740100">
        <ele>156.40</ele>
        <time>2012-09-23T09:24:34Z</time>
      </trkpt>
      <trkpt lat="41.690266000" lon="2.573480100">
        <ele>156.80</ele>
        <time>2012-09-23T09:24:41Z</time>
      </trkpt>
      <trkpt lat="41.690147000" lon="2.573421100">
        <ele>157.30</ele>
        <time>2012-09-23T09:24:46Z</time>
      </trkpt>
      <trkpt lat="41.689972000" lon="2.573320100">
        <ele>157.30</ele>
        <time>2012-09-23T09:24:51Z</time>
      </trkpt>
      <trkpt lat="41.689686000" lon="2.573205100">
        <ele>156.40</ele>
        <time>2012-09-23T09:24:58Z</time>
      </trkpt>
      <trkpt lat="41.689636000" lon="2.573187100">
        <ele>156.40</ele>
        <time>2012-09-23T09:24:58Z</time>
      </trkpt>
      <trkpt lat="41.689156000" lon="2.573074100">
        <ele>154.90</ele>
        <time>2012-09-23T09:25:07Z</time>
      </trkpt>
      <trkpt lat="41.688808000" lon="2.573026100">
        <ele>154.40</ele>
        <time>2012-09-23T09:25:17Z</time>
      </trkpt>
      <trkpt lat="41.688625000" lon="2.573178100">
        <ele>154.40</ele>
        <time>2012-09-23T09:25:24Z</time>
      </trkpt>
      <trkpt lat="41.688492000" lon="2.573338100">
        <ele>155.90</ele>
        <time>2012-09-23T09:25:31Z</time>
      </trkpt>
      <trkpt lat="41.688339000" lon="2.573496100">
        <ele>156.80</ele>
        <time>2012-09-23T09:25:36Z</time>
      </trkpt>
      <trkpt lat="41.688175000" lon="2.573766100">
        <ele>158.80</ele>
        <time>2012-09-23T09:25:45Z</time>
      </trkpt>
      <trkpt lat="41.688061000" lon="2.573993100">
        <ele>159.70</ele>
        <time>2012-09-23T09:25:52Z</time>
      </trkpt>
      <trkpt lat="41.687946000" lon="2.574275100">
        <ele>160.70</ele>
        <time>2012-09-23T09:26:01Z</time>
      </trkpt>
      <trkpt lat="41.687859000" lon="2.574489100">
        <ele>161.20</ele>
        <time>2012-09-23T09:26:06Z</time>
      </trkpt>
      <trkpt lat="41.687824000" lon="2.574737100">
        <ele>162.10</ele>
        <time>2012-09-23T09:26:13Z</time>
      </trkpt>
      <trkpt lat="41.687763000" lon="2.574887100">
        <ele>163.10</ele>
        <time>2012-09-23T09:26:20Z</time>
      </trkpt>
      <trkpt lat="41.687668000" lon="2.575076100">
        <ele>163.10</ele>
        <time>2012-09-23T09:26:25Z</time>
      </trkpt>
      <trkpt lat="41.687546000" lon="2.575124100">
        <ele>163.10</ele>
        <time>2012-09-23T09:26:27Z</time>
      </trkpt>
      <trkpt lat="41.687370000" lon="2.575207100">
        <ele>163.10</ele>
        <time>2012-09-23T09:26:32Z</time>
      </trkpt>
      <trkpt lat="41.687130000" lon="2.575467100">
        <ele>163.10</ele>
        <time>2012-09-23T09:26:41Z</time>
      </trkpt>
      <trkpt lat="41.687000000" lon="2.575600100">
        <ele>163.60</ele>
        <time>2012-09-23T09:26:46Z</time>
      </trkpt>
      <trkpt lat="41.686787000" lon="2.575549100">
        <ele>164.50</ele>
        <time>2012-09-23T09:26:53Z</time>
      </trkpt>
      <trkpt lat="41.686607000" lon="2.575382100">
        <ele>164.50</ele>
        <time>2012-09-23T09:27:02Z</time>
      </trkpt>
      <trkpt lat="41.686573000" lon="2.575369100">
        <ele>164.50</ele>
        <time>2012-09-23T09:27:02Z</time>
      </trkpt>
      <trkpt lat="41.686356000" lon="2.575403100">
        <ele>164.50</ele>
        <time>2012-09-23T09:27:07Z</time>
      </trkpt>
      <trkpt lat="41.686138000" lon="2.575531100">
        <ele>164.50</ele>
        <time>2012-09-23T09:27:16Z</time>
      </trkpt>
      <trkpt lat="41.686020000" lon="2.575710100">
        <ele>164.50</ele>
        <time>2012-09-23T09:27:21Z</time>
      </trkpt>
      <trkpt lat="41.685966000" lon="2.575870100">
        <ele>164.50</ele>
        <time>2012-09-23T09:27:26Z</time>
      </trkpt>
      <trkpt lat="41.685917000" lon="2.576025100">
        <ele>164.50</ele>
        <time>2012-09-23T09:27:33Z</time>
      </trkpt>
      <trkpt lat="41.685829000" lon="2.576265100">
        <ele>165.50</ele>
        <time>2012-09-23T09:27:42Z</time>
      </trkpt>
      <trkpt lat="41.685791000" lon="2.576441100">
        <ele>166.90</ele>
        <time>2012-09-23T09:27:47Z</time>
      </trkpt>
      <trkpt lat="41.685757000" lon="2.576720100">
        <ele>167.90</ele>
        <time>2012-09-23T09:27:56Z</time>
      </trkpt>
      <trkpt lat="41.685734000" lon="2.576929100">
        <ele>168.90</ele>
        <time>2012-09-23T09:28:01Z</time>
      </trkpt>
      <trkpt lat="41.685738000" lon="2.577194100">
        <ele>170.30</ele>
        <time>2012-09-23T09:28:10Z</time>
      </trkpt>
      <trkpt lat="41.685715000" lon="2.577378100">
        <ele>171.20</ele>
        <time>2012-09-23T09:28:15Z</time>
      </trkpt>
      <trkpt lat="41.685707000" lon="2.577405100">
        <ele>171.20</ele>
        <time>2012-09-23T09:28:17Z</time>
      </trkpt>
      <trkpt lat="41.685688000" lon="2.577520100">
        <ele>171.70</ele>
        <time>2012-09-23T09:28:20Z</time>
      </trkpt>
      <trkpt lat="41.685619000" lon="2.577699100">
        <ele>175.60</ele>
        <time>2012-09-23T09:28:27Z</time>
      </trkpt>
      <trkpt lat="41.685551000" lon="2.577801100">
        <ele>178.90</ele>
        <time>2012-09-23T09:28:31Z</time>
      </trkpt>
      <trkpt lat="41.685436000" lon="2.577981100">
        <ele>179.90</ele>
        <time>2012-09-23T09:28:39Z</time>
      </trkpt>
      <trkpt lat="41.685352000" lon="2.578162100">
        <ele>179.90</ele>
        <time>2012-09-23T09:28:46Z</time>
      </trkpt>
      <trkpt lat="41.685238000" lon="2.578317100">
        <ele>179.90</ele>
        <time>2012-09-23T09:28:52Z</time>
      </trkpt>
      <trkpt lat="41.685055000" lon="2.578580100">
        <ele>179.90</ele>
        <time>2012-09-23T09:29:00Z</time>
      </trkpt>
      <trkpt lat="41.684925000" lon="2.578744100">
        <ele>179.90</ele>
        <time>2012-09-23T09:29:06Z</time>
      </trkpt>
      <trkpt lat="41.684776000" lon="2.579012100">
        <ele>179.90</ele>
        <time>2012-09-23T09:29:14Z</time>
      </trkpt>
      <trkpt lat="41.684673000" lon="2.579213100">
        <ele>179.90</ele>
        <time>2012-09-23T09:29:19Z</time>
      </trkpt>
      <trkpt lat="41.684479000" lon="2.579437100">
        <ele>179.90</ele>
        <time>2012-09-23T09:29:28Z</time>
      </trkpt>
      <trkpt lat="41.684345000" lon="2.579614100">
        <ele>180.40</ele>
        <time>2012-09-23T09:29:33Z</time>
      </trkpt>
      <trkpt lat="41.684223000" lon="2.579773100">
        <ele>180.40</ele>
        <time>2012-09-23T09:29:40Z</time>
      </trkpt>
      <trkpt lat="41.684143000" lon="2.579929100">
        <ele>180.90</ele>
        <time>2012-09-23T09:29:44Z</time>
      </trkpt>
      <trkpt lat="41.684002000" lon="2.580050100">
        <ele>181.80</ele>
        <time>2012-09-23T09:29:51Z</time>
      </trkpt>
      <trkpt lat="41.683849000" lon="2.580111100">
        <ele>183.30</ele>
        <time>2012-09-23T09:29:58Z</time>
      </trkpt>
      <trkpt lat="41.683712000" lon="2.580097100">
        <ele>186.60</ele>
        <time>2012-09-23T09:30:03Z</time>
      </trkpt>
      <trkpt lat="41.683632000" lon="2.580053100">
        <ele>190.00</ele>
        <time>2012-09-23T09:30:08Z</time>
      </trkpt>
      <trkpt lat="41.683487000" lon="2.579938100">
        <ele>191.90</ele>
        <time>2012-09-23T09:30:15Z</time>
      </trkpt>
      <trkpt lat="41.683311000" lon="2.579722100">
        <ele>192.40</ele>
        <time>2012-09-23T09:30:26Z</time>
      </trkpt>
      <trkpt lat="41.683167000" lon="2.579605100">
        <ele>193.40</ele>
        <time>2012-09-23T09:30:34Z</time>
      </trkpt>
      <trkpt lat="41.683014000" lon="2.579592100">
        <ele>193.80</ele>
        <time>2012-09-23T09:30:41Z</time>
      </trkpt>
      <trkpt lat="41.682930000" lon="2.579670100">
        <ele>194.80</ele>
        <time>2012-09-23T09:30:48Z</time>
      </trkpt>
      <trkpt lat="41.682770000" lon="2.579765100">
        <ele>197.20</ele>
        <time>2012-09-23T09:30:57Z</time>
      </trkpt>
      <trkpt lat="41.682671000" lon="2.579777100">
        <ele>201.10</ele>
        <time>2012-09-23T09:31:02Z</time>
      </trkpt>
      <trkpt lat="41.682575000" lon="2.579791100">
        <ele>204.40</ele>
        <time>2012-09-23T09:31:07Z</time>
      </trkpt>
      <trkpt lat="41.682274000" lon="2.579873100">
        <ele>204.40</ele>
        <time>2012-09-23T09:31:23Z</time>
      </trkpt>
      <trkpt lat="41.682110000" lon="2.579731100">
        <ele>204.40</ele>
        <time>2012-09-23T09:31:32Z</time>
      </trkpt>
      <trkpt lat="41.682045000" lon="2.579447100">
        <ele>204.40</ele>
        <time>2012-09-23T09:31:37Z</time>
      </trkpt>
      <trkpt lat="41.681915000" lon="2.579410100">
        <ele>204.40</ele>
        <time>2012-09-23T09:31:42Z</time>
      </trkpt>
      <trkpt lat="41.681892000" lon="2.579429100">
        <ele>204.40</ele>
        <time>2012-09-23T09:31:42Z</time>
      </trkpt>
      <trkpt lat="41.681713000" lon="2.579590100">
        <ele>204.40</ele>
        <time>2012-09-23T09:31:51Z</time>
      </trkpt>
      <trkpt lat="41.681622000" lon="2.579676100">
        <ele>204.40</ele>
        <time>2012-09-23T09:31:53Z</time>
      </trkpt>
      <trkpt lat="41.681515000" lon="2.579965100">
        <ele>204.40</ele>
        <time>2012-09-23T09:32:03Z</time>
      </trkpt>
      <trkpt lat="41.681339000" lon="2.580168100">
        <ele>204.40</ele>
        <time>2012-09-23T09:32:10Z</time>
      </trkpt>
      <trkpt lat="41.681236000" lon="2.580311100">
        <ele>204.40</ele>
        <time>2012-09-23T09:32:14Z</time>
      </trkpt>
      <trkpt lat="41.681065000" lon="2.580584100">
        <ele>203.00</ele>
        <time>2012-09-23T09:32:19Z</time>
      </trkpt>
      <trkpt lat="41.680885000" lon="2.580781100">
        <ele>201.10</ele>
        <time>2012-09-23T09:32:22Z</time>
      </trkpt>
      <trkpt lat="41.680817000" lon="2.581052100">
        <ele>197.20</ele>
        <time>2012-09-23T09:32:26Z</time>
      </trkpt>
      <trkpt lat="41.680679000" lon="2.581408100">
        <ele>193.80</ele>
        <time>2012-09-23T09:32:31Z</time>
      </trkpt>
      <trkpt lat="41.680626000" lon="2.581466100">
        <ele>192.90</ele>
        <time>2012-09-23T09:32:33Z</time>
      </trkpt>
      <trkpt lat="41.680473000" lon="2.581623100">
        <ele>191.40</ele>
        <time>2012-09-23T09:32:36Z</time>
      </trkpt>
      <trkpt lat="41.680359000" lon="2.581964100">
        <ele>187.60</ele>
        <time>2012-09-23T09:32:40Z</time>
      </trkpt>
      <trkpt lat="41.680408000" lon="2.582048100">
        <ele>186.60</ele>
        <time>2012-09-23T09:32:43Z</time>
      </trkpt>
      <trkpt lat="41.680485000" lon="2.582126100">
        <ele>186.60</ele>
        <time>2012-09-23T09:32:45Z</time>
      </trkpt>
      <trkpt lat="41.680504000" lon="2.582228100">
        <ele>190.50</ele>
        <time>2012-09-23T09:32:50Z</time>
      </trkpt>
      <trkpt lat="41.680454000" lon="2.582388100">
        <ele>194.30</ele>
        <time>2012-09-23T09:32:54Z</time>
      </trkpt>
      <trkpt lat="41.680405000" lon="2.582514100">
        <ele>194.80</ele>
        <time>2012-09-23T09:33:01Z</time>
      </trkpt>
      <trkpt lat="41.680252000" lon="2.582683100">
        <ele>194.80</ele>
        <time>2012-09-23T09:33:09Z</time>
      </trkpt>
      <trkpt lat="41.680069000" lon="2.582803100">
        <ele>195.30</ele>
        <time>2012-09-23T09:33:16Z</time>
      </trkpt>
      <trkpt lat="41.679916000" lon="2.582849100">
        <ele>195.80</ele>
        <time>2012-09-23T09:33:23Z</time>
      </trkpt>
      <trkpt lat="41.679779000" lon="2.582923100">
        <ele>195.80</ele>
        <time>2012-09-23T09:33:29Z</time>
      </trkpt>
      <trkpt lat="41.679596000" lon="2.583027100">
        <ele>196.20</ele>
        <time>2012-09-23T09:33:34Z</time>
      </trkpt>
      <trkpt lat="41.679512000" lon="2.583064100">
        <ele>196.20</ele>
        <time>2012-09-23T09:33:37Z</time>
      </trkpt>
      <trkpt lat="41.679188000" lon="2.583280100">
        <ele>196.20</ele>
        <time>2012-09-23T09:33:44Z</time>
      </trkpt>
      <trkpt lat="41.679054000" lon="2.583412100">
        <ele>196.20</ele>
        <time>2012-09-23T09:33:46Z</time>
      </trkpt>
      <trkpt lat="41.678776000" lon="2.583796100">
        <ele>195.30</ele>
        <time>2012-09-23T09:33:53Z</time>
      </trkpt>
      <trkpt lat="41.678478000" lon="2.583998100">
        <ele>195.30</ele>
        <time>2012-09-23T09:34:02Z</time>
      </trkpt>
      <trkpt lat="41.678333000" lon="2.584064100">
        <ele>195.30</ele>
        <time>2012-09-23T09:34:07Z</time>
      </trkpt>
      <trkpt lat="41.678200000" lon="2.584136100">
        <ele>195.30</ele>
        <time>2012-09-23T09:34:14Z</time>
      </trkpt>
      <trkpt lat="41.678055000" lon="2.584223100">
        <ele>195.30</ele>
        <time>2012-09-23T09:34:19Z</time>
      </trkpt>
      <trkpt lat="41.677910000" lon="2.584352100">
        <ele>195.30</ele>
        <time>2012-09-23T09:34:24Z</time>
      </trkpt>
      <trkpt lat="41.677830000" lon="2.584590100">
        <ele>195.30</ele>
        <time>2012-09-23T09:34:31Z</time>
      </trkpt>
      <trkpt lat="41.677734000" lon="2.584715100">
        <ele>196.20</ele>
        <time>2012-09-23T09:34:38Z</time>
      </trkpt>
      <trkpt lat="41.677605000" lon="2.584853100">
        <ele>196.70</ele>
        <time>2012-09-23T09:34:43Z</time>
      </trkpt>
      <trkpt lat="41.677486000" lon="2.585097100">
        <ele>197.70</ele>
        <time>2012-09-23T09:34:52Z</time>
      </trkpt>
      <trkpt lat="41.677406000" lon="2.585297100">
        <ele>198.20</ele>
        <time>2012-09-23T09:34:59Z</time>
      </trkpt>
      <trkpt lat="41.677406000" lon="2.585507100">
        <ele>199.10</ele>
        <time>2012-09-23T09:35:06Z</time>
      </trkpt>
      <trkpt lat="41.677418000" lon="2.585627100">
        <ele>200.60</ele>
        <time>2012-09-23T09:35:11Z</time>
      </trkpt>
      <trkpt lat="41.677387000" lon="2.585696100">
        <ele>203.90</ele>
        <time>2012-09-23T09:35:15Z</time>
      </trkpt>
      <trkpt lat="41.677326000" lon="2.585763100">
        <ele>207.80</ele>
        <time>2012-09-23T09:35:20Z</time>
      </trkpt>
      <trkpt lat="41.677303000" lon="2.585794100">
        <ele>208.70</ele>
        <time>2012-09-23T09:35:22Z</time>
      </trkpt>
      <trkpt lat="41.677265000" lon="2.585846100">
        <ele>208.30</ele>
        <time>2012-09-23T09:35:27Z</time>
      </trkpt>
      <trkpt lat="41.677170000" lon="2.586009100">
        <ele>209.20</ele>
        <time>2012-09-23T09:35:36Z</time>
      </trkpt>
      <trkpt lat="41.677094000" lon="2.586131100">
        <ele>210.20</ele>
        <time>2012-09-23T09:35:44Z</time>
      </trkpt>
      <trkpt lat="41.676968000" lon="2.586260100">
        <ele>210.70</ele>
        <time>2012-09-23T09:35:53Z</time>
      </trkpt>
      <trkpt lat="41.676914000" lon="2.586397100">
        <ele>210.70</ele>
        <time>2012-09-23T09:35:55Z</time>
      </trkpt>
      <trkpt lat="41.676849000" lon="2.586639100">
        <ele>210.70</ele>
        <time>2012-09-23T09:36:02Z</time>
      </trkpt>
      <trkpt lat="41.676807000" lon="2.586670100">
        <ele>210.70</ele>
        <time>2012-09-23T09:36:04Z</time>
      </trkpt>
      <trkpt lat="41.676682000" lon="2.586721100">
        <ele>211.60</ele>
        <time>2012-09-23T09:36:09Z</time>
      </trkpt>
      <trkpt lat="41.676548000" lon="2.586804100">
        <ele>212.10</ele>
        <time>2012-09-23T09:36:17Z</time>
      </trkpt>
      <trkpt lat="41.676464000" lon="2.586980100">
        <ele>212.10</ele>
        <time>2012-09-23T09:36:23Z</time>
      </trkpt>
      <trkpt lat="41.676323000" lon="2.587136100">
        <ele>212.10</ele>
        <time>2012-09-23T09:36:30Z</time>
      </trkpt>
      <trkpt lat="41.676289000" lon="2.587142100">
        <ele>212.10</ele>
        <time>2012-09-23T09:36:35Z</time>
      </trkpt>
      <trkpt lat="41.676262000" lon="2.587150100">
        <ele>212.10</ele>
        <time>2012-09-23T09:36:40Z</time>
      </trkpt>
      <trkpt lat="41.676167000" lon="2.587191100">
        <ele>212.10</ele>
        <time>2012-09-23T09:36:47Z</time>
      </trkpt>
      <trkpt lat="41.676018000" lon="2.587280100">
        <ele>210.70</ele>
        <time>2012-09-23T09:36:56Z</time>
      </trkpt>
      <trkpt lat="41.675995000" lon="2.587309100">
        <ele>210.70</ele>
        <time>2012-09-23T09:37:01Z</time>
      </trkpt>
      <trkpt lat="41.675980000" lon="2.587372100">
        <ele>210.70</ele>
        <time>2012-09-23T09:37:10Z</time>
      </trkpt>
      <trkpt lat="41.675976000" lon="2.587371100">
        <ele>209.70</ele>
        <time>2012-09-23T09:38:04Z</time>
      </trkpt>
      <trkpt lat="41.675976000" lon="2.587370100">
        <ele>209.70</ele>
        <time>2012-09-23T09:38:40Z</time>
      </trkpt>
      <trkpt lat="41.675968000" lon="2.587375100">
        <ele>209.70</ele>
        <time>2012-09-23T09:40:09Z</time>
      </trkpt>
      <trkpt lat="41.675968000" lon="2.587369100">
        <ele>209.70</ele>
        <time>2012-09-23T09:40:30Z</time>
      </trkpt>
      <trkpt lat="41.675964000" lon="2.587375100">
        <ele>209.70</ele>
        <time>2012-09-23T09:41:17Z</time>
      </trkpt>
      <trkpt lat="41.675957000" lon="2.587368100">
        <ele>209.70</ele>
        <time>2012-09-23T09:41:52Z</time>
      </trkpt>
      <trkpt lat="41.675953000" lon="2.587367100">
        <ele>209.70</ele>
        <time>2012-09-23T09:42:34Z</time>
      </trkpt>
      <trkpt lat="41.675953000" lon="2.587363100">
        <ele>209.70</ele>
        <time>2012-09-23T09:43:19Z</time>
      </trkpt>
      <trkpt lat="41.675953000" lon="2.587364100">
        <ele>209.70</ele>
        <time>2012-09-23T09:44:03Z</time>
      </trkpt>
      <trkpt lat="41.675949000" lon="2.587360100">
        <ele>209.70</ele>
        <time>2012-09-23T09:44:20Z</time>
      </trkpt>
      <trkpt lat="41.675922000" lon="2.587387100">
        <ele>209.70</ele>
        <time>2012-09-23T09:44:43Z</time>
      </trkpt>
      <trkpt lat="41.675919000" lon="2.587391100">
        <ele>209.70</ele>
        <time>2012-09-23T09:44:50Z</time>
      </trkpt>
      <trkpt lat="41.675922000" lon="2.587389100">
        <ele>209.70</ele>
        <time>2012-09-23T09:44:55Z</time>
      </trkpt>
      <trkpt lat="41.675907000" lon="2.587406100">
        <ele>209.70</ele>
        <time>2012-09-23T09:44:58Z</time>
      </trkpt>
      <trkpt lat="41.675854000" lon="2.587539100">
        <ele>209.70</ele>
        <time>2012-09-23T09:45:07Z</time>
      </trkpt>
      <trkpt lat="41.675900000" lon="2.588048100">
        <ele>209.70</ele>
        <time>2012-09-23T09:45:19Z</time>
      </trkpt>
      <trkpt lat="41.675922000" lon="2.588311100">
        <ele>209.70</ele>
        <time>2012-09-23T09:45:24Z</time>
      </trkpt>
      <trkpt lat="41.675861000" lon="2.588538100">
        <ele>209.70</ele>
        <time>2012-09-23T09:45:31Z</time>
      </trkpt>
      <trkpt lat="41.675758000" lon="2.588690100">
        <ele>209.70</ele>
        <time>2012-09-23T09:45:37Z</time>
      </trkpt>
      <trkpt lat="41.675671000" lon="2.588822100">
        <ele>209.70</ele>
        <time>2012-09-23T09:45:44Z</time>
      </trkpt>
      <trkpt lat="41.675560000" lon="2.589073100">
        <ele>211.10</ele>
        <time>2012-09-23T09:45:52Z</time>
      </trkpt>
      <trkpt lat="41.675472000" lon="2.589350100">
        <ele>212.10</ele>
        <time>2012-09-23T09:45:59Z</time>
      </trkpt>
      <trkpt lat="41.675480000" lon="2.589529100">
        <ele>213.60</ele>
        <time>2012-09-23T09:46:06Z</time>
      </trkpt>
      <trkpt lat="41.675499000" lon="2.589699100">
        <ele>216.90</ele>
        <time>2012-09-23T09:46:13Z</time>
      </trkpt>
      <trkpt lat="41.675430000" lon="2.589988100">
        <ele>218.40</ele>
        <time>2012-09-23T09:46:20Z</time>
      </trkpt>
      <trkpt lat="41.675392000" lon="2.590164100">
        <ele>218.40</ele>
        <time>2012-09-23T09:46:24Z</time>
      </trkpt>
      <trkpt lat="41.675362000" lon="2.590269100">
        <ele>218.40</ele>
        <time>2012-09-23T09:46:25Z</time>
      </trkpt>
      <trkpt lat="41.675266000" lon="2.590516100">
        <ele>216.90</ele>
        <time>2012-09-23T09:46:31Z</time>
      </trkpt>
      <trkpt lat="41.675312000" lon="2.590979100">
        <ele>216.90</ele>
        <time>2012-09-23T09:46:43Z</time>
      </trkpt>
      <trkpt lat="41.675285000" lon="2.591242100">
        <ele>217.90</ele>
        <time>2012-09-23T09:46:50Z</time>
      </trkpt>
      <trkpt lat="41.675255000" lon="2.591533100">
        <ele>219.80</ele>
        <time>2012-09-23T09:46:59Z</time>
      </trkpt>
      <trkpt lat="41.675190000" lon="2.591804100">
        <ele>221.20</ele>
        <time>2012-09-23T09:47:05Z</time>
      </trkpt>
      <trkpt lat="41.675114000" lon="2.592154100">
        <ele>222.70</ele>
        <time>2012-09-23T09:47:16Z</time>
      </trkpt>
      <trkpt lat="41.675014000" lon="2.592392100">
        <ele>223.20</ele>
        <time>2012-09-23T09:47:23Z</time>
      </trkpt>
      <trkpt lat="41.674911000" lon="2.592570100">
        <ele>223.60</ele>
        <time>2012-09-23T09:47:32Z</time>
      </trkpt>
      <trkpt lat="41.674862000" lon="2.592781100">
        <ele>224.10</ele>
        <time>2012-09-23T09:47:40Z</time>
      </trkpt>
      <trkpt lat="41.674759000" lon="2.592991100">
        <ele>224.60</ele>
        <time>2012-09-23T09:47:49Z</time>
      </trkpt>
      <trkpt lat="41.674664000" lon="2.593211100">
        <ele>225.10</ele>
        <time>2012-09-23T09:47:56Z</time>
      </trkpt>
      <trkpt lat="41.674572000" lon="2.593441100">
        <ele>226.10</ele>
        <time>2012-09-23T09:48:05Z</time>
      </trkpt>
      <trkpt lat="41.674496000" lon="2.593645100">
        <ele>227.00</ele>
        <time>2012-09-23T09:48:13Z</time>
      </trkpt>
      <trkpt lat="41.674404000" lon="2.593876100">
        <ele>227.50</ele>
        <time>2012-09-23T09:48:22Z</time>
      </trkpt>
      <trkpt lat="41.674335000" lon="2.594024100">
        <ele>228.90</ele>
        <time>2012-09-23T09:48:29Z</time>
      </trkpt>
      <trkpt lat="41.674255000" lon="2.594176100">
        <ele>229.90</ele>
        <time>2012-09-23T09:48:38Z</time>
      </trkpt>
      <trkpt lat="41.674149000" lon="2.594382100">
        <ele>230.90</ele>
        <time>2012-09-23T09:48:48Z</time>
      </trkpt>
      <trkpt lat="41.674061000" lon="2.594533100">
        <ele>231.30</ele>
        <time>2012-09-23T09:48:55Z</time>
      </trkpt>
      <trkpt lat="41.673969000" lon="2.594700100">
        <ele>232.30</ele>
        <time>2012-09-23T09:49:02Z</time>
      </trkpt>
      <trkpt lat="41.673847000" lon="2.594930100">
        <ele>232.30</ele>
        <time>2012-09-23T09:49:09Z</time>
      </trkpt>
      <trkpt lat="41.673740000" lon="2.595142100">
        <ele>232.30</ele>
        <time>2012-09-23T09:49:16Z</time>
      </trkpt>
      <trkpt lat="41.673676000" lon="2.595272100">
        <ele>232.80</ele>
        <time>2012-09-23T09:49:23Z</time>
      </trkpt>
      <trkpt lat="41.673649000" lon="2.595304100">
        <ele>232.80</ele>
        <time>2012-09-23T09:49:25Z</time>
      </trkpt>
      <trkpt lat="41.673553000" lon="2.595521100">
        <ele>233.70</ele>
        <time>2012-09-23T09:49:34Z</time>
      </trkpt>
      <trkpt lat="41.673477000" lon="2.595649100">
        <ele>235.20</ele>
        <time>2012-09-23T09:49:41Z</time>
      </trkpt>
      <trkpt lat="41.673378000" lon="2.595769100">
        <ele>236.10</ele>
        <time>2012-09-23T09:49:47Z</time>
      </trkpt>
      <trkpt lat="41.673264000" lon="2.595912100">
        <ele>237.60</ele>
        <time>2012-09-23T09:49:56Z</time>
      </trkpt>
      <trkpt lat="41.673168000" lon="2.596015100">
        <ele>237.60</ele>
        <time>2012-09-23T09:50:01Z</time>
      </trkpt>
      <trkpt lat="41.673069000" lon="2.596133100">
        <ele>239.00</ele>
        <time>2012-09-23T09:50:08Z</time>
      </trkpt>
      <trkpt lat="41.672958000" lon="2.596234100">
        <ele>239.50</ele>
        <time>2012-09-23T09:50:15Z</time>
      </trkpt>
      <trkpt lat="41.672844000" lon="2.596336100">
        <ele>240.50</ele>
        <time>2012-09-23T09:50:22Z</time>
      </trkpt>
      <trkpt lat="41.672764000" lon="2.596498100">
        <ele>240.90</ele>
        <time>2012-09-23T09:50:29Z</time>
      </trkpt>
      <trkpt lat="41.672661000" lon="2.596678100">
        <ele>242.40</ele>
        <time>2012-09-23T09:50:36Z</time>
      </trkpt>
      <trkpt lat="41.672554000" lon="2.596818100">
        <ele>242.90</ele>
        <time>2012-09-23T09:50:43Z</time>
      </trkpt>
      <trkpt lat="41.672459000" lon="2.596981100">
        <ele>243.40</ele>
        <time>2012-09-23T09:50:50Z</time>
      </trkpt>
      <trkpt lat="41.672344000" lon="2.597167100">
        <ele>244.30</ele>
        <time>2012-09-23T09:50:59Z</time>
      </trkpt>
      <trkpt lat="41.672260000" lon="2.597365100">
        <ele>245.80</ele>
        <time>2012-09-23T09:51:08Z</time>
      </trkpt>
      <trkpt lat="41.672157000" lon="2.597557100">
        <ele>246.20</ele>
        <time>2012-09-23T09:51:15Z</time>
      </trkpt>
      <trkpt lat="41.672009000" lon="2.597768100">
        <ele>246.20</ele>
        <time>2012-09-23T09:51:23Z</time>
      </trkpt>
      <trkpt lat="41.671856000" lon="2.597892100">
        <ele>247.20</ele>
        <time>2012-09-23T09:51:32Z</time>
      </trkpt>
      <trkpt lat="41.671688000" lon="2.597949100">
        <ele>248.60</ele>
        <time>2012-09-23T09:51:41Z</time>
      </trkpt>
      <trkpt lat="41.671558000" lon="2.597988100">
        <ele>249.10</ele>
        <time>2012-09-23T09:51:46Z</time>
      </trkpt>
      <trkpt lat="41.671379000" lon="2.598017100">
        <ele>250.10</ele>
        <time>2012-09-23T09:51:55Z</time>
      </trkpt>
      <trkpt lat="41.671234000" lon="2.597999100">
        <ele>251.00</ele>
        <time>2012-09-23T09:52:02Z</time>
      </trkpt>
      <trkpt lat="41.671120000" lon="2.597972100">
        <ele>252.50</ele>
        <time>2012-09-23T09:52:10Z</time>
      </trkpt>
      <trkpt lat="41.670979000" lon="2.597950100">
        <ele>254.40</ele>
        <time>2012-09-23T09:52:19Z</time>
      </trkpt>
      <trkpt lat="41.670826000" lon="2.597962100">
        <ele>256.30</ele>
        <time>2012-09-23T09:52:28Z</time>
      </trkpt>
      <trkpt lat="41.670704000" lon="2.597993100">
        <ele>259.70</ele>
        <time>2012-09-23T09:52:36Z</time>
      </trkpt>
      <trkpt lat="41.670616000" lon="2.598009100">
        <ele>262.10</ele>
        <time>2012-09-23T09:52:42Z</time>
      </trkpt>
      <trkpt lat="41.670513000" lon="2.598034100">
        <ele>263.10</ele>
        <time>2012-09-23T09:52:49Z</time>
      </trkpt>
      <trkpt lat="41.670341000" lon="2.598032100">
        <ele>263.10</ele>
        <time>2012-09-23T09:52:57Z</time>
      </trkpt>
      <trkpt lat="41.670189000" lon="2.597913100">
        <ele>263.10</ele>
        <time>2012-09-23T09:53:04Z</time>
      </trkpt>
      <trkpt lat="41.670002000" lon="2.597784100">
        <ele>263.10</ele>
        <time>2012-09-23T09:53:11Z</time>
      </trkpt>
      <trkpt lat="41.669899000" lon="2.597757100">
        <ele>263.50</ele>
        <time>2012-09-23T09:53:20Z</time>
      </trkpt>
      <trkpt lat="41.669857000" lon="2.597745100">
        <ele>264.00</ele>
        <time>2012-09-23T09:53:22Z</time>
      </trkpt>
      <trkpt lat="41.669750000" lon="2.597756100">
        <ele>265.90</ele>
        <time>2012-09-23T09:53:32Z</time>
      </trkpt>
      <trkpt lat="41.669674000" lon="2.597776100">
        <ele>268.80</ele>
        <time>2012-09-23T09:53:39Z</time>
      </trkpt>
      <trkpt lat="41.669636000" lon="2.597793100">
        <ele>272.70</ele>
        <time>2012-09-23T09:53:43Z</time>
      </trkpt>
      <trkpt lat="41.669613000" lon="2.597809100">
        <ele>273.10</ele>
        <time>2012-09-23T09:53:44Z</time>
      </trkpt>
      <trkpt lat="41.669575000" lon="2.597830100">
        <ele>274.10</ele>
        <time>2012-09-23T09:53:48Z</time>
      </trkpt>
      <trkpt lat="41.669460000" lon="2.597916100">
        <ele>274.10</ele>
        <time>2012-09-23T09:53:55Z</time>
      </trkpt>
      <trkpt lat="41.669353000" lon="2.598106100">
        <ele>274.60</ele>
        <time>2012-09-23T09:54:05Z</time>
      </trkpt>
      <trkpt lat="41.669300000" lon="2.598258100">
        <ele>274.60</ele>
        <time>2012-09-23T09:54:12Z</time>
      </trkpt>
      <trkpt lat="41.669277000" lon="2.598404100">
        <ele>275.10</ele>
        <time>2012-09-23T09:54:18Z</time>
      </trkpt>
      <trkpt lat="41.669277000" lon="2.598492100">
        <ele>275.60</ele>
        <time>2012-09-23T09:54:21Z</time>
      </trkpt>
      <trkpt lat="41.669315000" lon="2.598676100">
        <ele>277.00</ele>
        <time>2012-09-23T09:54:30Z</time>
      </trkpt>
      <trkpt lat="41.669357000" lon="2.598860100">
        <ele>279.40</ele>
        <time>2012-09-23T09:54:40Z</time>
      </trkpt>
      <trkpt lat="41.669403000" lon="2.599032100">
        <ele>281.80</ele>
        <time>2012-09-23T09:54:49Z</time>
      </trkpt>
      <trkpt lat="41.669434000" lon="2.599237100">
        <ele>282.80</ele>
        <time>2012-09-23T09:54:58Z</time>
      </trkpt>
      <trkpt lat="41.669403000" lon="2.599416100">
        <ele>283.70</ele>
        <time>2012-09-23T09:55:05Z</time>
      </trkpt>
      <trkpt lat="41.669353000" lon="2.599568100">
        <ele>284.20</ele>
        <time>2012-09-23T09:55:12Z</time>
      </trkpt>
      <trkpt lat="41.669342000" lon="2.599591100">
        <ele>284.20</ele>
        <time>2012-09-23T09:55:13Z</time>
      </trkpt>
      <trkpt lat="41.669228000" lon="2.599759100">
        <ele>285.60</ele>
        <time>2012-09-23T09:55:22Z</time>
      </trkpt>
      <trkpt lat="41.669151000" lon="2.599920100">
        <ele>286.60</ele>
        <time>2012-09-23T09:55:29Z</time>
      </trkpt>
      <trkpt lat="41.669083000" lon="2.600103100">
        <ele>287.10</ele>
        <time>2012-09-23T09:55:36Z</time>
      </trkpt>
      <trkpt lat="41.668964000" lon="2.600250100">
        <ele>288.00</ele>
        <time>2012-09-23T09:55:45Z</time>
      </trkpt>
      <trkpt lat="41.668797000" lon="2.600218100">
        <ele>289.00</ele>
        <time>2012-09-23T09:55:53Z</time>
      </trkpt>
      <trkpt lat="41.668663000" lon="2.600098100">
        <ele>290.00</ele>
        <time>2012-09-23T09:56:00Z</time>
      </trkpt>
      <trkpt lat="41.668507000" lon="2.599966100">
        <ele>290.90</ele>
        <time>2012-09-23T09:56:09Z</time>
      </trkpt>
      <trkpt lat="41.668362000" lon="2.599944100">
        <ele>291.40</ele>
        <time>2012-09-23T09:56:18Z</time>
      </trkpt>
      <trkpt lat="41.668236000" lon="2.599994100">
        <ele>292.40</ele>
        <time>2012-09-23T09:56:25Z</time>
      </trkpt>
      <trkpt lat="41.668087000" lon="2.600132100">
        <ele>293.30</ele>
        <time>2012-09-23T09:56:33Z</time>
      </trkpt>
      <trkpt lat="41.667950000" lon="2.600303100">
        <ele>293.30</ele>
        <time>2012-09-23T09:56:37Z</time>
      </trkpt>
      <trkpt lat="41.667877000" lon="2.600468100">
        <ele>294.30</ele>
        <time>2012-09-23T09:56:44Z</time>
      </trkpt>
      <trkpt lat="41.667774000" lon="2.600586100">
        <ele>295.30</ele>
        <time>2012-09-23T09:56:53Z</time>
      </trkpt>
      <trkpt lat="41.667652000" lon="2.600696100">
        <ele>296.20</ele>
        <time>2012-09-23T09:57:00Z</time>
      </trkpt>
      <trkpt lat="41.667511000" lon="2.600832100">
        <ele>297.70</ele>
        <time>2012-09-23T09:57:08Z</time>
      </trkpt>
      <trkpt lat="41.667377000" lon="2.600956100">
        <ele>298.10</ele>
        <time>2012-09-23T09:57:15Z</time>
      </trkpt>
      <trkpt lat="41.667286000" lon="2.601038100">
        <ele>298.10</ele>
        <time>2012-09-23T09:57:19Z</time>
      </trkpt>
      <trkpt lat="41.667263000" lon="2.601084100">
        <ele>298.10</ele>
        <time>2012-09-23T09:57:20Z</time>
      </trkpt>
      <trkpt lat="41.667282000" lon="2.601277100">
        <ele>298.60</ele>
        <time>2012-09-23T09:57:29Z</time>
      </trkpt>
      <trkpt lat="41.667274000" lon="2.601464100">
        <ele>300.10</ele>
        <time>2012-09-23T09:57:36Z</time>
      </trkpt>
      <trkpt lat="41.667263000" lon="2.601576100">
        <ele>300.50</ele>
        <time>2012-09-23T09:57:40Z</time>
      </trkpt>
      <trkpt lat="41.667202000" lon="2.601796100">
        <ele>301.50</ele>
        <time>2012-09-23T09:57:48Z</time>
      </trkpt>
      <trkpt lat="41.667145000" lon="2.601918100">
        <ele>302.50</ele>
        <time>2012-09-23T09:57:55Z</time>
      </trkpt>
      <trkpt lat="41.667210000" lon="2.602077100">
        <ele>303.00</ele>
        <time>2012-09-23T09:58:00Z</time>
      </trkpt>
      <trkpt lat="41.667278000" lon="2.602300100">
        <ele>303.40</ele>
        <time>2012-09-23T09:58:09Z</time>
      </trkpt>
      <trkpt lat="41.667355000" lon="2.602530100">
        <ele>304.90</ele>
        <time>2012-09-23T09:58:18Z</time>
      </trkpt>
      <trkpt lat="41.667427000" lon="2.602740100">
        <ele>305.80</ele>
        <time>2012-09-23T09:58:25Z</time>
      </trkpt>
      <trkpt lat="41.667507000" lon="2.602947100">
        <ele>307.30</ele>
        <time>2012-09-23T09:58:34Z</time>
      </trkpt>
      <trkpt lat="41.667568000" lon="2.603172100">
        <ele>307.80</ele>
        <time>2012-09-23T09:58:42Z</time>
      </trkpt>
      <trkpt lat="41.667625000" lon="2.603449100">
        <ele>309.20</ele>
        <time>2012-09-23T09:58:51Z</time>
      </trkpt>
      <trkpt lat="41.667656000" lon="2.603629100">
        <ele>310.20</ele>
        <time>2012-09-23T09:58:58Z</time>
      </trkpt>
      <trkpt lat="41.667683000" lon="2.603814100">
        <ele>311.10</ele>
        <time>2012-09-23T09:59:05Z</time>
      </trkpt>
      <trkpt lat="41.667744000" lon="2.604014100">
        <ele>312.10</ele>
        <time>2012-09-23T09:59:14Z</time>
      </trkpt>
      <trkpt lat="41.667728000" lon="2.604183100">
        <ele>313.50</ele>
        <time>2012-09-23T09:59:24Z</time>
      </trkpt>
      <trkpt lat="41.667686000" lon="2.604281100">
        <ele>315.50</ele>
        <time>2012-09-23T09:59:33Z</time>
      </trkpt>
      <trkpt lat="41.667679000" lon="2.604294100">
        <ele>316.90</ele>
        <time>2012-09-23T09:59:41Z</time>
      </trkpt>
      <trkpt lat="41.667683000" lon="2.604288100">
        <ele>318.30</ele>
        <time>2012-09-23T09:59:50Z</time>
      </trkpt>
      <trkpt lat="41.667683000" lon="2.604292100">
        <ele>319.30</ele>
        <time>2012-09-23T09:59:57Z</time>
      </trkpt>
      <trkpt lat="41.667667000" lon="2.604312100">
        <ele>319.80</ele>
        <time>2012-09-23T10:00:06Z</time>
      </trkpt>
      <trkpt lat="41.667641000" lon="2.604361100">
        <ele>320.30</ele>
        <time>2012-09-23T10:00:15Z</time>
      </trkpt>
      <trkpt lat="41.667576000" lon="2.604501100">
        <ele>321.70</ele>
        <time>2012-09-23T10:00:23Z</time>
      </trkpt>
      <trkpt lat="41.667530000" lon="2.604602100">
        <ele>322.70</ele>
        <time>2012-09-23T10:00:29Z</time>
      </trkpt>
      <trkpt lat="41.667496000" lon="2.604694100">
        <ele>323.10</ele>
        <time>2012-09-23T10:00:34Z</time>
      </trkpt>
      <trkpt lat="41.667412000" lon="2.604902100">
        <ele>325.10</ele>
        <time>2012-09-23T10:00:44Z</time>
      </trkpt>
      <trkpt lat="41.667355000" lon="2.605092100">
        <ele>327.00</ele>
        <time>2012-09-23T10:00:55Z</time>
      </trkpt>
      <trkpt lat="41.667324000" lon="2.605237100">
        <ele>328.40</ele>
        <time>2012-09-23T10:01:03Z</time>
      </trkpt>
      <trkpt lat="41.667305000" lon="2.605441100">
        <ele>330.80</ele>
        <time>2012-09-23T10:01:14Z</time>
      </trkpt>
      <trkpt lat="41.667301000" lon="2.605475100">
        <ele>331.30</ele>
        <time>2012-09-23T10:01:17Z</time>
      </trkpt>
      <trkpt lat="41.667278000" lon="2.605645100">
        <ele>332.80</ele>
        <time>2012-09-23T10:01:26Z</time>
      </trkpt>
      <trkpt lat="41.667259000" lon="2.605844100">
        <ele>334.20</ele>
        <time>2012-09-23T10:01:36Z</time>
      </trkpt>
      <trkpt lat="41.667225000" lon="2.605978100">
        <ele>335.20</ele>
        <time>2012-09-23T10:01:45Z</time>
      </trkpt>
      <trkpt lat="41.667229000" lon="2.606112100">
        <ele>336.60</ele>
        <time>2012-09-23T10:01:52Z</time>
      </trkpt>
      <trkpt lat="41.667240000" lon="2.606203100">
        <ele>339.50</ele>
        <time>2012-09-23T10:01:59Z</time>
      </trkpt>
      <trkpt lat="41.667244000" lon="2.606215100">
        <ele>342.90</ele>
        <time>2012-09-23T10:02:03Z</time>
      </trkpt>
      <trkpt lat="41.667236000" lon="2.606233100">
        <ele>343.30</ele>
        <time>2012-09-23T10:02:08Z</time>
      </trkpt>
      <trkpt lat="41.667244000" lon="2.606324100">
        <ele>343.30</ele>
        <time>2012-09-23T10:02:20Z</time>
      </trkpt>
      <trkpt lat="41.667248000" lon="2.606364100">
        <ele>343.30</ele>
        <time>2012-09-23T10:02:25Z</time>
      </trkpt>
      <trkpt lat="41.667271000" lon="2.606486100">
        <ele>343.80</ele>
        <time>2012-09-23T10:02:32Z</time>
      </trkpt>
      <trkpt lat="41.667286000" lon="2.606646100">
        <ele>344.80</ele>
        <time>2012-09-23T10:02:39Z</time>
      </trkpt>
      <trkpt lat="41.667294000" lon="2.606881100">
        <ele>346.70</ele>
        <time>2012-09-23T10:02:51Z</time>
      </trkpt>
      <trkpt lat="41.667294000" lon="2.607047100">
        <ele>348.60</ele>
        <time>2012-09-23T10:03:00Z</time>
      </trkpt>
      <trkpt lat="41.667301000" lon="2.607168100">
        <ele>349.60</ele>
        <time>2012-09-23T10:03:07Z</time>
      </trkpt>
      <trkpt lat="41.667301000" lon="2.607291100">
        <ele>353.40</ele>
        <time>2012-09-23T10:03:14Z</time>
      </trkpt>
      <trkpt lat="41.667286000" lon="2.607385100">
        <ele>356.30</ele>
        <time>2012-09-23T10:03:18Z</time>
      </trkpt>
      <trkpt lat="41.667255000" lon="2.607555100">
        <ele>357.30</ele>
        <time>2012-09-23T10:03:26Z</time>
      </trkpt>
      <trkpt lat="41.667248000" lon="2.607602100">
        <ele>357.30</ele>
        <time>2012-09-23T10:03:30Z</time>
      </trkpt>
      <trkpt lat="41.667248000" lon="2.607631100">
        <ele>357.80</ele>
        <time>2012-09-23T10:03:31Z</time>
      </trkpt>
      <trkpt lat="41.667274000" lon="2.607712100">
        <ele>358.70</ele>
        <time>2012-09-23T10:03:37Z</time>
      </trkpt>
      <trkpt lat="41.667301000" lon="2.607869100">
        <ele>360.60</ele>
        <time>2012-09-23T10:03:45Z</time>
      </trkpt>
      <trkpt lat="41.667271000" lon="2.607966100">
        <ele>363.00</ele>
        <time>2012-09-23T10:03:52Z</time>
      </trkpt>
      <trkpt lat="41.667248000" lon="2.608015100">
        <ele>366.40</ele>
        <time>2012-09-23T10:03:56Z</time>
      </trkpt>
      <trkpt lat="41.667194000" lon="2.608152100">
        <ele>368.80</ele>
        <time>2012-09-23T10:04:06Z</time>
      </trkpt>
      <trkpt lat="41.667141000" lon="2.608301100">
        <ele>368.80</ele>
        <time>2012-09-23T10:04:15Z</time>
      </trkpt>
      <trkpt lat="41.667103000" lon="2.608433100">
        <ele>370.20</ele>
        <time>2012-09-23T10:04:24Z</time>
      </trkpt>
      <trkpt lat="41.667065000" lon="2.608558100">
        <ele>371.70</ele>
        <time>2012-09-23T10:04:34Z</time>
      </trkpt>
      <trkpt lat="41.666996000" lon="2.608695100">
        <ele>373.60</ele>
        <time>2012-09-23T10:04:45Z</time>
      </trkpt>
      <trkpt lat="41.666981000" lon="2.608722100">
        <ele>374.10</ele>
        <time>2012-09-23T10:04:46Z</time>
      </trkpt>
      <trkpt lat="41.666931000" lon="2.608842100">
        <ele>375.50</ele>
        <time>2012-09-23T10:04:55Z</time>
      </trkpt>
      <trkpt lat="41.666874000" lon="2.609021100">
        <ele>377.50</ele>
        <time>2012-09-23T10:05:04Z</time>
      </trkpt>
      <trkpt lat="41.666817000" lon="2.609177100">
        <ele>377.90</ele>
        <time>2012-09-23T10:05:12Z</time>
      </trkpt>
      <trkpt lat="41.666740000" lon="2.609324100">
        <ele>378.40</ele>
        <time>2012-09-23T10:05:21Z</time>
      </trkpt>
      <trkpt lat="41.666695000" lon="2.609455100">
        <ele>379.90</ele>
        <time>2012-09-23T10:05:28Z</time>
      </trkpt>
      <trkpt lat="41.666656000" lon="2.609582100">
        <ele>380.80</ele>
        <time>2012-09-23T10:05:37Z</time>
      </trkpt>
      <trkpt lat="41.666630000" lon="2.609736100">
        <ele>383.20</ele>
        <time>2012-09-23T10:05:47Z</time>
      </trkpt>
      <trkpt lat="41.666595000" lon="2.609857100">
        <ele>385.60</ele>
        <time>2012-09-23T10:05:56Z</time>
      </trkpt>
      <trkpt lat="41.666546000" lon="2.609927100">
        <ele>388.50</ele>
        <time>2012-09-23T10:06:01Z</time>
      </trkpt>
      <trkpt lat="41.666500000" lon="2.609987100">
        <ele>392.40</ele>
        <time>2012-09-23T10:06:08Z</time>
      </trkpt>
      <trkpt lat="41.666412000" lon="2.610101100">
        <ele>391.90</ele>
        <time>2012-09-23T10:06:17Z</time>
      </trkpt>
      <trkpt lat="41.666355000" lon="2.610232100">
        <ele>392.40</ele>
        <time>2012-09-23T10:06:26Z</time>
      </trkpt>
      <trkpt lat="41.666313000" lon="2.610372100">
        <ele>392.80</ele>
        <time>2012-09-23T10:06:34Z</time>
      </trkpt>
      <trkpt lat="41.666260000" lon="2.610487100">
        <ele>394.80</ele>
        <time>2012-09-23T10:06:45Z</time>
      </trkpt>
      <trkpt lat="41.666237000" lon="2.610517100">
        <ele>395.20</ele>
        <time>2012-09-23T10:06:48Z</time>
      </trkpt>
      <trkpt lat="41.666187000" lon="2.610623100">
        <ele>396.70</ele>
        <time>2012-09-23T10:06:55Z</time>
      </trkpt>
      <trkpt lat="41.666138000" lon="2.610706100">
        <ele>398.10</ele>
        <time>2012-09-23T10:07:04Z</time>
      </trkpt>
      <trkpt lat="41.666073000" lon="2.610792100">
        <ele>400.00</ele>
        <time>2012-09-23T10:07:11Z</time>
      </trkpt>
      <trkpt lat="41.666016000" lon="2.610880100">
        <ele>401.50</ele>
        <time>2012-09-23T10:07:18Z</time>
      </trkpt>
      <trkpt lat="41.665974000" lon="2.610952100">
        <ele>402.90</ele>
        <time>2012-09-23T10:07:23Z</time>
      </trkpt>
      <trkpt lat="41.665913000" lon="2.611018100">
        <ele>406.30</ele>
        <time>2012-09-23T10:07:30Z</time>
      </trkpt>
      <trkpt lat="41.665874000" lon="2.611053100">
        <ele>409.70</ele>
        <time>2012-09-23T10:07:35Z</time>
      </trkpt>
      <trkpt lat="41.665783000" lon="2.611133100">
        <ele>411.10</ele>
        <time>2012-09-23T10:07:42Z</time>
      </trkpt>
      <trkpt lat="41.665710000" lon="2.611191100">
        <ele>411.10</ele>
        <time>2012-09-23T10:07:51Z</time>
      </trkpt>
      <trkpt lat="41.665638000" lon="2.611239100">
        <ele>411.60</ele>
        <time>2012-09-23T10:07:58Z</time>
      </trkpt>
      <trkpt lat="41.665543000" lon="2.611307100">
        <ele>413.00</ele>
        <time>2012-09-23T10:08:07Z</time>
      </trkpt>
      <trkpt lat="41.665470000" lon="2.611350100">
        <ele>414.00</ele>
        <time>2012-09-23T10:08:14Z</time>
      </trkpt>
      <trkpt lat="41.665417000" lon="2.611448100">
        <ele>415.40</ele>
        <time>2012-09-23T10:08:22Z</time>
      </trkpt>
      <trkpt lat="41.665371000" lon="2.611507100">
        <ele>415.90</ele>
        <time>2012-09-23T10:08:28Z</time>
      </trkpt>
      <trkpt lat="41.665314000" lon="2.611495100">
        <ele>416.40</ele>
        <time>2012-09-23T10:08:33Z</time>
      </trkpt>
      <trkpt lat="41.665283000" lon="2.611407100">
        <ele>417.80</ele>
        <time>2012-09-23T10:08:40Z</time>
      </trkpt>
      <trkpt lat="41.665276000" lon="2.611270100">
        <ele>419.30</ele>
        <time>2012-09-23T10:08:50Z</time>
      </trkpt>
      <trkpt lat="41.665314000" lon="2.611122100">
        <ele>421.70</ele>
        <time>2012-09-23T10:08:59Z</time>
      </trkpt>
      <trkpt lat="41.665371000" lon="2.610998100">
        <ele>422.60</ele>
        <time>2012-09-23T10:09:09Z</time>
      </trkpt>
      <trkpt lat="41.665436000" lon="2.610888100">
        <ele>423.60</ele>
        <time>2012-09-23T10:09:16Z</time>
      </trkpt>
      <trkpt lat="41.665440000" lon="2.610876100">
        <ele>424.10</ele>
        <time>2012-09-23T10:09:18Z</time>
      </trkpt>
      <trkpt lat="41.665478000" lon="2.610737100">
        <ele>425.50</ele>
        <time>2012-09-23T10:09:27Z</time>
      </trkpt>
      <trkpt lat="41.665462000" lon="2.610585100">
        <ele>426.50</ele>
        <time>2012-09-23T10:09:34Z</time>
      </trkpt>
      <trkpt lat="41.665474000" lon="2.610404100">
        <ele>427.90</ele>
        <time>2012-09-23T10:09:44Z</time>
      </trkpt>
      <trkpt lat="41.665497000" lon="2.610314100">
        <ele>428.40</ele>
        <time>2012-09-23T10:09:51Z</time>
      </trkpt>
      <trkpt lat="41.665562000" lon="2.610172100">
        <ele>429.40</ele>
        <time>2012-09-23T10:10:00Z</time>
      </trkpt>
      <trkpt lat="41.665653000" lon="2.610083100">
        <ele>430.30</ele>
        <time>2012-09-23T10:10:09Z</time>
      </trkpt>
      <trkpt lat="41.665737000" lon="2.609981100">
        <ele>431.80</ele>
        <time>2012-09-23T10:10:17Z</time>
      </trkpt>
      <trkpt lat="41.665768000" lon="2.609884100">
        <ele>432.70</ele>
        <time>2012-09-23T10:10:24Z</time>
      </trkpt>
      <trkpt lat="41.665775000" lon="2.609748100">
        <ele>433.70</ele>
        <time>2012-09-23T10:10:31Z</time>
      </trkpt>
      <trkpt lat="41.665771000" lon="2.609571100">
        <ele>435.10</ele>
        <time>2012-09-23T10:10:42Z</time>
      </trkpt>
      <trkpt lat="41.665764000" lon="2.609532100">
        <ele>435.60</ele>
        <time>2012-09-23T10:10:43Z</time>
      </trkpt>
      <trkpt lat="41.665661000" lon="2.609496100">
        <ele>436.10</ele>
        <time>2012-09-23T10:10:52Z</time>
      </trkpt>
      <trkpt lat="41.665600000" lon="2.609537100">
        <ele>436.60</ele>
        <time>2012-09-23T10:10:57Z</time>
      </trkpt>
      <trkpt lat="41.665459000" lon="2.609630100">
        <ele>438.50</ele>
        <time>2012-09-23T10:11:08Z</time>
      </trkpt>
      <trkpt lat="41.665306000" lon="2.609665100">
        <ele>439.50</ele>
        <time>2012-09-23T10:11:17Z</time>
      </trkpt>
      <trkpt lat="41.665119000" lon="2.609704100">
        <ele>441.90</ele>
        <time>2012-09-23T10:11:29Z</time>
      </trkpt>
      <trkpt lat="41.665009000" lon="2.609747100">
        <ele>443.30</ele>
        <time>2012-09-23T10:11:36Z</time>
      </trkpt>
      <trkpt lat="41.664886000" lon="2.609813100">
        <ele>445.20</ele>
        <time>2012-09-23T10:11:46Z</time>
      </trkpt>
      <trkpt lat="41.664806000" lon="2.609855100">
        <ele>449.10</ele>
        <time>2012-09-23T10:11:51Z</time>
      </trkpt>
      <trkpt lat="41.664726000" lon="2.609900100">
        <ele>452.00</ele>
        <time>2012-09-23T10:11:58Z</time>
      </trkpt>
      <trkpt lat="41.664612000" lon="2.609968100">
        <ele>452.00</ele>
        <time>2012-09-23T10:12:07Z</time>
      </trkpt>
      <trkpt lat="41.664520000" lon="2.610036100">
        <ele>452.90</ele>
        <time>2012-09-23T10:12:14Z</time>
      </trkpt>
      <trkpt lat="41.664448000" lon="2.610105100">
        <ele>453.90</ele>
        <time>2012-09-23T10:12:21Z</time>
      </trkpt>
      <trkpt lat="41.664391000" lon="2.610124100">
        <ele>454.40</ele>
        <time>2012-09-23T10:12:26Z</time>
      </trkpt>
      <trkpt lat="41.664330000" lon="2.609998100">
        <ele>456.80</ele>
        <time>2012-09-23T10:12:35Z</time>
      </trkpt>
      <trkpt lat="41.664288000" lon="2.609868100">
        <ele>457.70</ele>
        <time>2012-09-23T10:12:44Z</time>
      </trkpt>
      <trkpt lat="41.664230000" lon="2.609748100">
        <ele>459.20</ele>
        <time>2012-09-23T10:12:52Z</time>
      </trkpt>
      <trkpt lat="41.664196000" lon="2.609603100">
        <ele>460.60</ele>
        <time>2012-09-23T10:13:01Z</time>
      </trkpt>
      <trkpt lat="41.664211000" lon="2.609462100">
        <ele>462.00</ele>
        <time>2012-09-23T10:13:08Z</time>
      </trkpt>
      <trkpt lat="41.664207000" lon="2.609445100">
        <ele>462.00</ele>
        <time>2012-09-23T10:13:10Z</time>
      </trkpt>
      <trkpt lat="41.664242000" lon="2.609193100">
        <ele>464.50</ele>
        <time>2012-09-23T10:13:22Z</time>
      </trkpt>
      <trkpt lat="41.664253000" lon="2.609132100">
        <ele>464.90</ele>
        <time>2012-09-23T10:13:27Z</time>
      </trkpt>
      <trkpt lat="41.664246000" lon="2.609082100">
        <ele>465.40</ele>
        <time>2012-09-23T10:13:29Z</time>
      </trkpt>
      <trkpt lat="41.664169000" lon="2.609048100">
        <ele>466.40</ele>
        <time>2012-09-23T10:13:36Z</time>
      </trkpt>
      <trkpt lat="41.664158000" lon="2.609055100">
        <ele>466.40</ele>
        <time>2012-09-23T10:13:38Z</time>
      </trkpt>
      <trkpt lat="41.664108000" lon="2.609173100">
        <ele>468.30</ele>
        <time>2012-09-23T10:13:46Z</time>
      </trkpt>
      <trkpt lat="41.664032000" lon="2.609284100">
        <ele>470.70</ele>
        <time>2012-09-23T10:13:57Z</time>
      </trkpt>
      <trkpt lat="41.663960000" lon="2.609391100">
        <ele>472.60</ele>
        <time>2012-09-23T10:14:07Z</time>
      </trkpt>
      <trkpt lat="41.663891000" lon="2.609522100">
        <ele>474.10</ele>
        <time>2012-09-23T10:14:16Z</time>
      </trkpt>
      <trkpt lat="41.663830000" lon="2.609680100">
        <ele>476.50</ele>
        <time>2012-09-23T10:14:26Z</time>
      </trkpt>
      <trkpt lat="41.663795000" lon="2.609822100">
        <ele>478.40</ele>
        <time>2012-09-23T10:14:35Z</time>
      </trkpt>
      <trkpt lat="41.663754000" lon="2.609942100">
        <ele>481.30</ele>
        <time>2012-09-23T10:14:44Z</time>
      </trkpt>
      <trkpt lat="41.663734000" lon="2.610016100">
        <ele>485.10</ele>
        <time>2012-09-23T10:14:49Z</time>
      </trkpt>
      <trkpt lat="41.663689000" lon="2.610141100">
        <ele>485.60</ele>
        <time>2012-09-23T10:14:58Z</time>
      </trkpt>
      <trkpt lat="41.663658000" lon="2.610233100">
        <ele>485.60</ele>
        <time>2012-09-23T10:15:05Z</time>
      </trkpt>
      <trkpt lat="41.663692000" lon="2.610364100">
        <ele>486.10</ele>
        <time>2012-09-23T10:15:12Z</time>
      </trkpt>
      <trkpt lat="41.663715000" lon="2.610382100">
        <ele>486.10</ele>
        <time>2012-09-23T10:15:15Z</time>
      </trkpt>
      <trkpt lat="41.663799000" lon="2.610458100">
        <ele>486.60</ele>
        <time>2012-09-23T10:15:22Z</time>
      </trkpt>
      <trkpt lat="41.663921000" lon="2.610550100">
        <ele>487.00</ele>
        <time>2012-09-23T10:15:29Z</time>
      </trkpt>
      <trkpt lat="41.664024000" lon="2.610636100">
        <ele>487.50</ele>
        <time>2012-09-23T10:15:36Z</time>
      </trkpt>
      <trkpt lat="41.664059000" lon="2.610662100">
        <ele>487.50</ele>
        <time>2012-09-23T10:15:38Z</time>
      </trkpt>
      <trkpt lat="41.664085000" lon="2.610796100">
        <ele>488.00</ele>
        <time>2012-09-23T10:15:45Z</time>
      </trkpt>
      <trkpt lat="41.664040000" lon="2.610933100">
        <ele>489.50</ele>
        <time>2012-09-23T10:15:54Z</time>
      </trkpt>
      <trkpt lat="41.663963000" lon="2.611061100">
        <ele>490.90</ele>
        <time>2012-09-23T10:16:02Z</time>
      </trkpt>
      <trkpt lat="41.663876000" lon="2.611200100">
        <ele>492.30</ele>
        <time>2012-09-23T10:16:11Z</time>
      </trkpt>
      <trkpt lat="41.663826000" lon="2.611299100">
        <ele>493.30</ele>
        <time>2012-09-23T10:16:18Z</time>
      </trkpt>
      <trkpt lat="41.663754000" lon="2.611447100">
        <ele>494.70</ele>
        <time>2012-09-23T10:16:27Z</time>
      </trkpt>
      <trkpt lat="41.663662000" lon="2.611665100">
        <ele>496.70</ele>
        <time>2012-09-23T10:16:37Z</time>
      </trkpt>
      <trkpt lat="41.663681000" lon="2.611855100">
        <ele>498.10</ele>
        <time>2012-09-23T10:16:48Z</time>
      </trkpt>
      <trkpt lat="41.663719000" lon="2.611976100">
        <ele>499.10</ele>
        <time>2012-09-23T10:16:53Z</time>
      </trkpt>
      <trkpt lat="41.663784000" lon="2.612125100">
        <ele>500.00</ele>
        <time>2012-09-23T10:17:03Z</time>
      </trkpt>
      <trkpt lat="41.663795000" lon="2.612298100">
        <ele>502.40</ele>
        <time>2012-09-23T10:17:10Z</time>
      </trkpt>
      <trkpt lat="41.663776000" lon="2.612468100">
        <ele>503.40</ele>
        <time>2012-09-23T10:17:17Z</time>
      </trkpt>
      <trkpt lat="41.663746000" lon="2.612655100">
        <ele>504.80</ele>
        <time>2012-09-23T10:17:26Z</time>
      </trkpt>
      <trkpt lat="41.663681000" lon="2.612775100">
        <ele>506.30</ele>
        <time>2012-09-23T10:17:35Z</time>
      </trkpt>
      <trkpt lat="41.663612000" lon="2.612898100">
        <ele>508.20</ele>
        <time>2012-09-23T10:17:45Z</time>
      </trkpt>
      <trkpt lat="41.663593000" lon="2.612916100">
        <ele>508.70</ele>
        <time>2012-09-23T10:17:52Z</time>
      </trkpt>
      <trkpt lat="41.663593000" lon="2.612916100">
        <ele>508.70</ele>
        <time>2012-09-23T10:18:01Z</time>
      </trkpt>
      <trkpt lat="41.663597000" lon="2.612918100">
        <ele>509.20</ele>
        <time>2012-09-23T10:18:13Z</time>
      </trkpt>
      <trkpt lat="41.663597000" lon="2.612918100">
        <ele>509.20</ele>
        <time>2012-09-23T10:18:27Z</time>
      </trkpt>
      <trkpt lat="41.663597000" lon="2.612931100">
        <ele>510.10</ele>
        <time>2012-09-23T10:20:20Z</time>
      </trkpt>
      <trkpt lat="41.663601000" lon="2.612929100">
        <ele>510.10</ele>
        <time>2012-09-23T10:20:58Z</time>
      </trkpt>
      <trkpt lat="41.663601000" lon="2.612933100">
        <ele>510.10</ele>
        <time>2012-09-23T10:21:35Z</time>
      </trkpt>
      <trkpt lat="41.663601000" lon="2.612928100">
        <ele>510.10</ele>
        <time>2012-09-23T10:22:55Z</time>
      </trkpt>
      <trkpt lat="41.663605000" lon="2.612929100">
        <ele>510.10</ele>
        <time>2012-09-23T10:24:31Z</time>
      </trkpt>
      <trkpt lat="41.663601000" lon="2.612931100">
        <ele>510.10</ele>
        <time>2012-09-23T10:24:52Z</time>
      </trkpt>
      <trkpt lat="41.663555000" lon="2.613047100">
        <ele>509.20</ele>
        <time>2012-09-23T10:25:06Z</time>
      </trkpt>
      <trkpt lat="41.663551000" lon="2.613067100">
        <ele>509.20</ele>
        <time>2012-09-23T10:25:07Z</time>
      </trkpt>
      <trkpt lat="41.663586000" lon="2.613214100">
        <ele>509.20</ele>
        <time>2012-09-23T10:25:16Z</time>
      </trkpt>
      <trkpt lat="41.663616000" lon="2.613317100">
        <ele>509.20</ele>
        <time>2012-09-23T10:25:21Z</time>
      </trkpt>
      <trkpt lat="41.663681000" lon="2.613490100">
        <ele>510.60</ele>
        <time>2012-09-23T10:25:30Z</time>
      </trkpt>
      <trkpt lat="41.663708000" lon="2.613630100">
        <ele>511.60</ele>
        <time>2012-09-23T10:25:37Z</time>
      </trkpt>
      <trkpt lat="41.663719000" lon="2.613829100">
        <ele>512.00</ele>
        <time>2012-09-23T10:25:44Z</time>
      </trkpt>
      <trkpt lat="41.663738000" lon="2.614129100">
        <ele>513.00</ele>
        <time>2012-09-23T10:25:53Z</time>
      </trkpt>
      <trkpt lat="41.663761000" lon="2.614337100">
        <ele>513.50</ele>
        <time>2012-09-23T10:26:00Z</time>
      </trkpt>
      <trkpt lat="41.663849000" lon="2.614547100">
        <ele>513.50</ele>
        <time>2012-09-23T10:26:07Z</time>
      </trkpt>
      <trkpt lat="41.664009000" lon="2.614662100">
        <ele>514.00</ele>
        <time>2012-09-23T10:26:15Z</time>
      </trkpt>
      <trkpt lat="41.664082000" lon="2.614717100">
        <ele>514.40</ele>
        <time>2012-09-23T10:26:19Z</time>
      </trkpt>
      <trkpt lat="41.664116000" lon="2.614742100">
        <ele>514.40</ele>
        <time>2012-09-23T10:26:26Z</time>
      </trkpt>
      <trkpt lat="41.664112000" lon="2.614730100">
        <ele>514.40</ele>
        <time>2012-09-23T10:26:35Z</time>
      </trkpt>
      <trkpt lat="41.664097000" lon="2.614712100">
        <ele>514.40</ele>
        <time>2012-09-23T10:26:40Z</time>
      </trkpt>
      <trkpt lat="41.664097000" lon="2.614706100">
        <ele>514.40</ele>
        <time>2012-09-23T10:27:37Z</time>
      </trkpt>
      <trkpt lat="41.664108000" lon="2.614697100">
        <ele>514.90</ele>
        <time>2012-09-23T10:28:03Z</time>
      </trkpt>
      <trkpt lat="41.664108000" lon="2.614694100">
        <ele>514.90</ele>
        <time>2012-09-23T10:29:34Z</time>
      </trkpt>
      <trkpt lat="41.664112000" lon="2.614691100">
        <ele>514.90</ele>
        <time>2012-09-23T10:30:19Z</time>
      </trkpt>
      <trkpt lat="41.664116000" lon="2.614701100">
        <ele>514.90</ele>
        <time>2012-09-23T10:30:44Z</time>
      </trkpt>
      <trkpt lat="41.664120000" lon="2.614699100">
        <ele>514.90</ele>
        <time>2012-09-23T10:31:31Z</time>
      </trkpt>
      <trkpt lat="41.664112000" lon="2.614698100">
        <ele>514.90</ele>
        <time>2012-09-23T10:32:11Z</time>
      </trkpt>
      <trkpt lat="41.664112000" lon="2.614698100">
        <ele>514.90</ele>
        <time>2012-09-23T10:32:30Z</time>
      </trkpt>
      <trkpt lat="41.664112000" lon="2.614700100">
        <ele>515.40</ele>
        <time>2012-09-23T10:32:51Z</time>
      </trkpt>
      <trkpt lat="41.664116000" lon="2.614705100">
        <ele>515.40</ele>
        <time>2012-09-23T10:33:19Z</time>
      </trkpt>
      <trkpt lat="41.664116000" lon="2.614703100">
        <ele>515.40</ele>
        <time>2012-09-23T10:34:09Z</time>
      </trkpt>
      <trkpt lat="41.664120000" lon="2.614700100">
        <ele>515.40</ele>
        <time>2012-09-23T10:35:19Z</time>
      </trkpt>
      <trkpt lat="41.664120000" lon="2.614705100">
        <ele>515.40</ele>
        <time>2012-09-23T10:36:23Z</time>
      </trkpt>
      <trkpt lat="41.664120000" lon="2.614697100">
        <ele>515.40</ele>
        <time>2012-09-23T10:37:26Z</time>
      </trkpt>
      <trkpt lat="41.664120000" lon="2.614700100">
        <ele>514.40</ele>
        <time>2012-09-23T10:38:17Z</time>
      </trkpt>
      <trkpt lat="41.664124000" lon="2.614693100">
        <ele>514.40</ele>
        <time>2012-09-23T10:40:03Z</time>
      </trkpt>
      <trkpt lat="41.664127000" lon="2.614692100">
        <ele>514.40</ele>
        <time>2012-09-23T10:40:46Z</time>
      </trkpt>
      <trkpt lat="41.664127000" lon="2.614687100">
        <ele>514.40</ele>
        <time>2012-09-23T10:41:30Z</time>
      </trkpt>
      <trkpt lat="41.664127000" lon="2.614691100">
        <ele>514.40</ele>
        <time>2012-09-23T10:42:22Z</time>
      </trkpt>
      <trkpt lat="41.664124000" lon="2.614690100">
        <ele>514.40</ele>
        <time>2012-09-23T10:42:43Z</time>
      </trkpt>
      <trkpt lat="41.664131000" lon="2.614690100">
        <ele>514.40</ele>
        <time>2012-09-23T10:43:23Z</time>
      </trkpt>
      <trkpt lat="41.664127000" lon="2.614692100">
        <ele>514.40</ele>
        <time>2012-09-23T10:44:08Z</time>
      </trkpt>
      <trkpt lat="41.664120000" lon="2.614686100">
        <ele>514.40</ele>
        <time>2012-09-23T10:45:01Z</time>
      </trkpt>
      <trkpt lat="41.664097000" lon="2.614679100">
        <ele>514.40</ele>
        <time>2012-09-23T10:45:15Z</time>
      </trkpt>
      <trkpt lat="41.664082000" lon="2.614681100">
        <ele>514.40</ele>
        <time>2012-09-23T10:45:49Z</time>
      </trkpt>
      <trkpt lat="41.663956000" lon="2.614635100">
        <ele>514.40</ele>
        <time>2012-09-23T10:45:55Z</time>
      </trkpt>
      <trkpt lat="41.663837000" lon="2.614502100">
        <ele>514.40</ele>
        <time>2012-09-23T10:46:00Z</time>
      </trkpt>
      <trkpt lat="41.663795000" lon="2.614400100">
        <ele>514.40</ele>
        <time>2012-09-23T10:46:02Z</time>
      </trkpt>
      <trkpt lat="41.663746000" lon="2.614184100">
        <ele>514.40</ele>
        <time>2012-09-23T10:46:05Z</time>
      </trkpt>
      <trkpt lat="41.663712000" lon="2.613737100">
        <ele>514.40</ele>
        <time>2012-09-23T10:46:12Z</time>
      </trkpt>
      <trkpt lat="41.663681000" lon="2.613618100">
        <ele>513.50</ele>
        <time>2012-09-23T10:46:14Z</time>
      </trkpt>
      <trkpt lat="41.663555000" lon="2.613293100">
        <ele>513.50</ele>
        <time>2012-09-23T10:46:19Z</time>
      </trkpt>
      <trkpt lat="41.663494000" lon="2.613009100">
        <ele>511.60</ele>
        <time>2012-09-23T10:46:23Z</time>
      </trkpt>
      <trkpt lat="41.663521000" lon="2.612954100">
        <ele>511.10</ele>
        <time>2012-09-23T10:46:24Z</time>
      </trkpt>
      <trkpt lat="41.663624000" lon="2.612728100">
        <ele>509.60</ele>
        <time>2012-09-23T10:46:28Z</time>
      </trkpt>
      <trkpt lat="41.663651000" lon="2.612384100">
        <ele>509.20</ele>
        <time>2012-09-23T10:46:33Z</time>
      </trkpt>
      <trkpt lat="41.663548000" lon="2.612231100">
        <ele>510.10</ele>
        <time>2012-09-23T10:46:38Z</time>
      </trkpt>
      <trkpt lat="41.663395000" lon="2.612081100">
        <ele>510.10</ele>
        <time>2012-09-23T10:46:47Z</time>
      </trkpt>
      <trkpt lat="41.663361000" lon="2.611885100">
        <ele>511.60</ele>
        <time>2012-09-23T10:46:52Z</time>
      </trkpt>
      <trkpt lat="41.663406000" lon="2.611649100">
        <ele>512.00</ele>
        <time>2012-09-23T10:46:59Z</time>
      </trkpt>
      <trkpt lat="41.663532000" lon="2.611341100">
        <ele>512.50</ele>
        <time>2012-09-23T10:47:06Z</time>
      </trkpt>
      <trkpt lat="41.663616000" lon="2.611011100">
        <ele>513.50</ele>
        <time>2012-09-23T10:47:13Z</time>
      </trkpt>
      <trkpt lat="41.663517000" lon="2.610853100">
        <ele>513.50</ele>
        <time>2012-09-23T10:47:18Z</time>
      </trkpt>
      <trkpt lat="41.663219000" lon="2.610630100">
        <ele>515.40</ele>
        <time>2012-09-23T10:47:29Z</time>
      </trkpt>
      <trkpt lat="41.663136000" lon="2.610390100">
        <ele>515.90</ele>
        <time>2012-09-23T10:47:34Z</time>
      </trkpt>
      <trkpt lat="41.663177000" lon="2.610067100">
        <ele>516.80</ele>
        <time>2012-09-23T10:47:41Z</time>
      </trkpt>
      <trkpt lat="41.663120000" lon="2.609817100">
        <ele>517.30</ele>
        <time>2012-09-23T10:47:48Z</time>
      </trkpt>
      <trkpt lat="41.662930000" lon="2.609716100">
        <ele>517.80</ele>
        <time>2012-09-23T10:47:53Z</time>
      </trkpt>
      <trkpt lat="41.662704000" lon="2.609622100">
        <ele>519.20</ele>
        <time>2012-09-23T10:48:00Z</time>
      </trkpt>
      <trkpt lat="41.662487000" lon="2.609519100">
        <ele>520.20</ele>
        <time>2012-09-23T10:48:07Z</time>
      </trkpt>
      <trkpt lat="41.662167000" lon="2.609417100">
        <ele>521.70</ele>
        <time>2012-09-23T10:48:18Z</time>
      </trkpt>
      <trkpt lat="41.662075000" lon="2.609307100">
        <ele>522.60</ele>
        <time>2012-09-23T10:48:23Z</time>
      </trkpt>
      <trkpt lat="41.661972000" lon="2.609075100">
        <ele>523.60</ele>
        <time>2012-09-23T10:48:30Z</time>
      </trkpt>
      <trkpt lat="41.661995000" lon="2.608876100">
        <ele>524.10</ele>
        <time>2012-09-23T10:48:35Z</time>
      </trkpt>
      <trkpt lat="41.662010000" lon="2.608676100">
        <ele>524.50</ele>
        <time>2012-09-23T10:48:40Z</time>
      </trkpt>
      <trkpt lat="41.662003000" lon="2.608483100">
        <ele>525.00</ele>
        <time>2012-09-23T10:48:44Z</time>
      </trkpt>
      <trkpt lat="41.662167000" lon="2.608121100">
        <ele>526.50</ele>
        <time>2012-09-23T10:48:52Z</time>
      </trkpt>
      <trkpt lat="41.662285000" lon="2.607824100">
        <ele>527.40</ele>
        <time>2012-09-23T10:49:01Z</time>
      </trkpt>
      <trkpt lat="41.662323000" lon="2.607525100">
        <ele>527.90</ele>
        <time>2012-09-23T10:49:08Z</time>
      </trkpt>
      <trkpt lat="41.662388000" lon="2.607278100">
        <ele>529.30</ele>
        <time>2012-09-23T10:49:15Z</time>
      </trkpt>
      <trkpt lat="41.662392000" lon="2.607087100">
        <ele>529.80</ele>
        <time>2012-09-23T10:49:20Z</time>
      </trkpt>
      <trkpt lat="41.662277000" lon="2.606994100">
        <ele>530.80</ele>
        <time>2012-09-23T10:49:25Z</time>
      </trkpt>
      <trkpt lat="41.662098000" lon="2.607008100">
        <ele>531.80</ele>
        <time>2012-09-23T10:49:32Z</time>
      </trkpt>
      <trkpt lat="41.661850000" lon="2.606999100">
        <ele>533.20</ele>
        <time>2012-09-23T10:49:41Z</time>
      </trkpt>
      <trkpt lat="41.661701000" lon="2.607027100">
        <ele>533.70</ele>
        <time>2012-09-23T10:49:48Z</time>
      </trkpt>
      <trkpt lat="41.661594000" lon="2.607099100">
        <ele>534.60</ele>
        <time>2012-09-23T10:49:53Z</time>
      </trkpt>
      <trkpt lat="41.661423000" lon="2.607169100">
        <ele>536.50</ele>
        <time>2012-09-23T10:50:02Z</time>
      </trkpt>
      <trkpt lat="41.661274000" lon="2.607201100">
        <ele>537.00</ele>
        <time>2012-09-23T10:50:11Z</time>
      </trkpt>
      <trkpt lat="41.661121000" lon="2.607179100">
        <ele>537.50</ele>
        <time>2012-09-23T10:50:18Z</time>
      </trkpt>
      <trkpt lat="41.661007000" lon="2.607042100">
        <ele>537.50</ele>
        <time>2012-09-23T10:50:23Z</time>
      </trkpt>
      <trkpt lat="41.660847000" lon="2.606750100">
        <ele>537.50</ele>
        <time>2012-09-23T10:50:28Z</time>
      </trkpt>
      <trkpt lat="41.660595000" lon="2.606455100">
        <ele>537.50</ele>
        <time>2012-09-23T10:50:37Z</time>
      </trkpt>
      <trkpt lat="41.660339000" lon="2.606243100">
        <ele>537.50</ele>
        <time>2012-09-23T10:50:46Z</time>
      </trkpt>
      <trkpt lat="41.660137000" lon="2.606045100">
        <ele>537.50</ele>
        <time>2012-09-23T10:50:56Z</time>
      </trkpt>
      <trkpt lat="41.660004000" lon="2.605887100">
        <ele>538.50</ele>
        <time>2012-09-23T10:51:03Z</time>
      </trkpt>
      <trkpt lat="41.659878000" lon="2.605744100">
        <ele>539.90</ele>
        <time>2012-09-23T10:51:10Z</time>
      </trkpt>
      <trkpt lat="41.659744000" lon="2.605600100">
        <ele>540.90</ele>
        <time>2012-09-23T10:51:17Z</time>
      </trkpt>
      <trkpt lat="41.659718000" lon="2.605575100">
        <ele>540.90</ele>
        <time>2012-09-23T10:51:17Z</time>
      </trkpt>
      <trkpt lat="41.659695000" lon="2.605375100">
        <ele>541.40</ele>
        <time>2012-09-23T10:51:24Z</time>
      </trkpt>
      <trkpt lat="41.659748000" lon="2.605102100">
        <ele>541.40</ele>
        <time>2012-09-23T10:51:29Z</time>
      </trkpt>
      <trkpt lat="41.659832000" lon="2.604982100">
        <ele>541.40</ele>
        <time>2012-09-23T10:51:34Z</time>
      </trkpt>
      <trkpt lat="41.659847000" lon="2.604951100">
        <ele>541.40</ele>
        <time>2012-09-23T10:51:36Z</time>
      </trkpt>
      <trkpt lat="41.659870000" lon="2.604910100">
        <ele>539.90</ele>
        <time>2012-09-23T10:51:43Z</time>
      </trkpt>
      <trkpt lat="41.659870000" lon="2.604910100">
        <ele>539.90</ele>
        <time>2012-09-23T10:51:50Z</time>
      </trkpt>
      <trkpt lat="41.659847000" lon="2.604909100">
        <ele>539.00</ele>
        <time>2012-09-23T10:51:55Z</time>
      </trkpt>
      <trkpt lat="41.659832000" lon="2.604916100">
        <ele>539.00</ele>
        <time>2012-09-23T10:52:02Z</time>
      </trkpt>
      <trkpt lat="41.659847000" lon="2.604868100">
        <ele>539.40</ele>
        <time>2012-09-23T10:52:09Z</time>
      </trkpt>
      <trkpt lat="41.659847000" lon="2.604862100">
        <ele>539.40</ele>
        <time>2012-09-23T10:52:44Z</time>
      </trkpt>
      <trkpt lat="41.659855000" lon="2.604832100">
        <ele>539.40</ele>
        <time>2012-09-23T10:52:51Z</time>
      </trkpt>
      <trkpt lat="41.659870000" lon="2.604807100">
        <ele>539.40</ele>
        <time>2012-09-23T10:52:58Z</time>
      </trkpt>
      <trkpt lat="41.659878000" lon="2.604770100">
        <ele>539.40</ele>
        <time>2012-09-23T10:53:07Z</time>
      </trkpt>
      <trkpt lat="41.659882000" lon="2.604755100">
        <ele>540.40</ele>
        <time>2012-09-23T10:53:15Z</time>
      </trkpt>
      <trkpt lat="41.659897000" lon="2.604729100">
        <ele>541.40</ele>
        <time>2012-09-23T10:53:22Z</time>
      </trkpt>
      <trkpt lat="41.659897000" lon="2.604729100">
        <ele>541.40</ele>
        <time>2012-09-23T10:53:45Z</time>
      </trkpt>
      <trkpt lat="41.659893000" lon="2.604707100">
        <ele>542.80</ele>
        <time>2012-09-23T10:53:55Z</time>
      </trkpt>
      <trkpt lat="41.659885000" lon="2.604687100">
        <ele>542.80</ele>
        <time>2012-09-23T10:54:15Z</time>
      </trkpt>
      <trkpt lat="41.659885000" lon="2.604687100">
        <ele>542.80</ele>
        <time>2012-09-23T10:54:34Z</time>
      </trkpt>
      <trkpt lat="41.659885000" lon="2.604676100">
        <ele>543.30</ele>
        <time>2012-09-23T10:54:55Z</time>
      </trkpt>
      <trkpt lat="41.659889000" lon="2.604675100">
        <ele>543.30</ele>
        <time>2012-09-23T10:55:31Z</time>
      </trkpt>
      <trkpt lat="41.659889000" lon="2.604675100">
        <ele>543.30</ele>
        <time>2012-09-23T10:55:47Z</time>
      </trkpt>
      <trkpt lat="41.659897000" lon="2.604664100">
        <ele>543.80</ele>
        <time>2012-09-23T10:56:11Z</time>
      </trkpt>
      <trkpt lat="41.659931000" lon="2.604630100">
        <ele>543.80</ele>
        <time>2012-09-23T10:56:22Z</time>
      </trkpt>
      <trkpt lat="41.659931000" lon="2.604630100">
        <ele>543.80</ele>
        <time>2012-09-23T10:56:37Z</time>
      </trkpt>
      <trkpt lat="41.659908000" lon="2.604652100">
        <ele>542.30</ele>
        <time>2012-09-23T10:56:46Z</time>
      </trkpt>
      <trkpt lat="41.659897000" lon="2.604702100">
        <ele>541.80</ele>
        <time>2012-09-23T10:56:50Z</time>
      </trkpt>
      <trkpt lat="41.659859000" lon="2.604794100">
        <ele>540.90</ele>
        <time>2012-09-23T10:56:58Z</time>
      </trkpt>
      <trkpt lat="41.659859000" lon="2.604794100">
        <ele>540.90</ele>
        <time>2012-09-23T10:57:04Z</time>
      </trkpt>
      <trkpt lat="41.659981000" lon="2.604796100">
        <ele>539.90</ele>
        <time>2012-09-23T10:57:09Z</time>
      </trkpt>
      <trkpt lat="41.660061000" lon="2.604700100">
        <ele>539.90</ele>
        <time>2012-09-23T10:57:14Z</time>
      </trkpt>
      <trkpt lat="41.660065000" lon="2.604591100">
        <ele>539.40</ele>
        <time>2012-09-23T10:57:16Z</time>
      </trkpt>
      <trkpt lat="41.660057000" lon="2.604413100">
        <ele>539.40</ele>
        <time>2012-09-23T10:57:21Z</time>
      </trkpt>
      <trkpt lat="41.659977000" lon="2.604182100">
        <ele>539.40</ele>
        <time>2012-09-23T10:57:30Z</time>
      </trkpt>
      <trkpt lat="41.659851000" lon="2.604061100">
        <ele>539.40</ele>
        <time>2012-09-23T10:57:35Z</time>
      </trkpt>
      <trkpt lat="41.659843000" lon="2.603817100">
        <ele>539.40</ele>
        <time>2012-09-23T10:57:42Z</time>
      </trkpt>
      <trkpt lat="41.659790000" lon="2.603592100">
        <ele>540.90</ele>
        <time>2012-09-23T10:57:47Z</time>
      </trkpt>
      <trkpt lat="41.659882000" lon="2.603339100">
        <ele>540.90</ele>
        <time>2012-09-23T10:57:52Z</time>
      </trkpt>
      <trkpt lat="41.660069000" lon="2.603054100">
        <ele>540.90</ele>
        <time>2012-09-23T10:57:56Z</time>
      </trkpt>
      <trkpt lat="41.660244000" lon="2.602685100">
        <ele>540.90</ele>
        <time>2012-09-23T10:58:01Z</time>
      </trkpt>
      <trkpt lat="41.660393000" lon="2.602451100">
        <ele>539.40</ele>
        <time>2012-09-23T10:58:06Z</time>
      </trkpt>
      <trkpt lat="41.660484000" lon="2.602201100">
        <ele>539.90</ele>
        <time>2012-09-23T10:58:10Z</time>
      </trkpt>
      <trkpt lat="41.660454000" lon="2.602015100">
        <ele>539.90</ele>
        <time>2012-09-23T10:58:15Z</time>
      </trkpt>
      <trkpt lat="41.660358000" lon="2.601713100">
        <ele>539.90</ele>
        <time>2012-09-23T10:58:22Z</time>
      </trkpt>
      <trkpt lat="41.660183000" lon="2.601541100">
        <ele>539.90</ele>
        <time>2012-09-23T10:58:25Z</time>
      </trkpt>
      <trkpt lat="41.660027000" lon="2.601465100">
        <ele>536.50</ele>
        <time>2012-09-23T10:58:31Z</time>
      </trkpt>
      <trkpt lat="41.659988000" lon="2.601375100">
        <ele>532.20</ele>
        <time>2012-09-23T10:58:36Z</time>
      </trkpt>
      <trkpt lat="41.659988000" lon="2.601334100">
        <ele>532.70</ele>
        <time>2012-09-23T10:58:36Z</time>
      </trkpt>
      <trkpt lat="41.659916000" lon="2.601008100">
        <ele>532.20</ele>
        <time>2012-09-23T10:58:43Z</time>
      </trkpt>
      <trkpt lat="41.659851000" lon="2.600794100">
        <ele>532.20</ele>
        <time>2012-09-23T10:58:46Z</time>
      </trkpt>
      <trkpt lat="41.659866000" lon="2.600345100">
        <ele>532.20</ele>
        <time>2012-09-23T10:58:50Z</time>
      </trkpt>
      <trkpt lat="41.659843000" lon="2.599991100">
        <ele>531.80</ele>
        <time>2012-09-23T10:58:55Z</time>
      </trkpt>
      <trkpt lat="41.659786000" lon="2.599825100">
        <ele>531.80</ele>
        <time>2012-09-23T10:58:57Z</time>
      </trkpt>
      <trkpt lat="41.659744000" lon="2.599660100">
        <ele>531.30</ele>
        <time>2012-09-23T10:58:59Z</time>
      </trkpt>
      <trkpt lat="41.659843000" lon="2.599322100">
        <ele>530.80</ele>
        <time>2012-09-23T10:59:04Z</time>
      </trkpt>
      <trkpt lat="41.659950000" lon="2.598968100">
        <ele>529.80</ele>
        <time>2012-09-23T10:59:09Z</time>
      </trkpt>
      <trkpt lat="41.660030000" lon="2.598662100">
        <ele>529.30</ele>
        <time>2012-09-23T10:59:14Z</time>
      </trkpt>
      <trkpt lat="41.660145000" lon="2.598479100">
        <ele>529.30</ele>
        <time>2012-09-23T10:59:16Z</time>
      </trkpt>
      <trkpt lat="41.660389000" lon="2.598268100">
        <ele>528.90</ele>
        <time>2012-09-23T10:59:21Z</time>
      </trkpt>
      <trkpt lat="41.660564000" lon="2.598217100">
        <ele>528.40</ele>
        <time>2012-09-23T10:59:28Z</time>
      </trkpt>
      <trkpt lat="41.660561000" lon="2.598212100">
        <ele>528.40</ele>
        <time>2012-09-23T10:59:37Z</time>
      </trkpt>
      <trkpt lat="41.660561000" lon="2.598214100">
        <ele>528.40</ele>
        <time>2012-09-23T10:59:47Z</time>
      </trkpt>
      <trkpt lat="41.660610000" lon="2.598212100">
        <ele>528.40</ele>
        <time>2012-09-23T10:59:54Z</time>
      </trkpt>
      <trkpt lat="41.660656000" lon="2.598201100">
        <ele>528.40</ele>
        <time>2012-09-23T11:00:01Z</time>
      </trkpt>
      <trkpt lat="41.660706000" lon="2.598167100">
        <ele>528.40</ele>
        <time>2012-09-23T11:00:05Z</time>
      </trkpt>
      <trkpt lat="41.660778000" lon="2.598042100">
        <ele>529.80</ele>
        <time>2012-09-23T11:00:13Z</time>
      </trkpt>
      <trkpt lat="41.660809000" lon="2.597967100">
        <ele>530.80</ele>
        <time>2012-09-23T11:00:19Z</time>
      </trkpt>
      <trkpt lat="41.660843000" lon="2.597922100">
        <ele>531.80</ele>
        <time>2012-09-23T11:00:22Z</time>
      </trkpt>
      <trkpt lat="41.660931000" lon="2.597812100">
        <ele>533.20</ele>
        <time>2012-09-23T11:00:31Z</time>
      </trkpt>
      <trkpt lat="41.660992000" lon="2.597706100">
        <ele>534.20</ele>
        <time>2012-09-23T11:00:38Z</time>
      </trkpt>
      <trkpt lat="41.661083000" lon="2.597564100">
        <ele>535.60</ele>
        <time>2012-09-23T11:00:47Z</time>
      </trkpt>
      <trkpt lat="41.661186000" lon="2.597421100">
        <ele>537.00</ele>
        <time>2012-09-23T11:00:55Z</time>
      </trkpt>
      <trkpt lat="41.661259000" lon="2.597297100">
        <ele>538.50</ele>
        <time>2012-09-23T11:01:04Z</time>
      </trkpt>
      <trkpt lat="41.661274000" lon="2.597190100">
        <ele>541.40</ele>
        <time>2012-09-23T11:01:11Z</time>
      </trkpt>
      <trkpt lat="41.661274000" lon="2.597128100">
        <ele>544.20</ele>
        <time>2012-09-23T11:01:16Z</time>
      </trkpt>
      <trkpt lat="41.661274000" lon="2.597032100">
        <ele>546.20</ele>
        <time>2012-09-23T11:01:23Z</time>
      </trkpt>
      <trkpt lat="41.661255000" lon="2.596912100">
        <ele>546.20</ele>
        <time>2012-09-23T11:01:32Z</time>
      </trkpt>
      <trkpt lat="41.661243000" lon="2.596828100">
        <ele>547.10</ele>
        <time>2012-09-23T11:01:39Z</time>
      </trkpt>
      <trkpt lat="41.661232000" lon="2.596698100">
        <ele>549.00</ele>
        <time>2012-09-23T11:01:46Z</time>
      </trkpt>
      <trkpt lat="41.661217000" lon="2.596631100">
        <ele>550.00</ele>
        <time>2012-09-23T11:01:53Z</time>
      </trkpt>
      <trkpt lat="41.661201000" lon="2.596560100">
        <ele>551.90</ele>
        <time>2012-09-23T11:02:01Z</time>
      </trkpt>
      <trkpt lat="41.661190000" lon="2.596438100">
        <ele>552.90</ele>
        <time>2012-09-23T11:02:10Z</time>
      </trkpt>
      <trkpt lat="41.661186000" lon="2.596309100">
        <ele>555.30</ele>
        <time>2012-09-23T11:02:19Z</time>
      </trkpt>
      <trkpt lat="41.661201000" lon="2.596163100">
        <ele>556.30</ele>
        <time>2012-09-23T11:02:29Z</time>
      </trkpt>
      <trkpt lat="41.661209000" lon="2.595990100">
        <ele>557.20</ele>
        <time>2012-09-23T11:02:36Z</time>
      </trkpt>
      <trkpt lat="41.661171000" lon="2.595881100">
        <ele>558.20</ele>
        <time>2012-09-23T11:02:45Z</time>
      </trkpt>
      <trkpt lat="41.661144000" lon="2.595811100">
        <ele>559.10</ele>
        <time>2012-09-23T11:02:52Z</time>
      </trkpt>
      <trkpt lat="41.661140000" lon="2.595736100">
        <ele>561.10</ele>
        <time>2012-09-23T11:02:59Z</time>
      </trkpt>
      <trkpt lat="41.661114000" lon="2.595644100">
        <ele>562.50</ele>
        <time>2012-09-23T11:03:06Z</time>
      </trkpt>
      <trkpt lat="41.661110000" lon="2.595540100">
        <ele>564.40</ele>
        <time>2012-09-23T11:03:16Z</time>
      </trkpt>
      <trkpt lat="41.661156000" lon="2.595426100">
        <ele>565.90</ele>
        <time>2012-09-23T11:03:23Z</time>
      </trkpt>
      <trkpt lat="41.661205000" lon="2.595372100">
        <ele>566.30</ele>
        <time>2012-09-23T11:03:30Z</time>
      </trkpt>
      <trkpt lat="41.661282000" lon="2.595263100">
        <ele>567.80</ele>
        <time>2012-09-23T11:03:39Z</time>
      </trkpt>
      <trkpt lat="41.661381000" lon="2.595070100">
        <ele>569.70</ele>
        <time>2012-09-23T11:03:53Z</time>
      </trkpt>
      <trkpt lat="41.661434000" lon="2.594978100">
        <ele>571.20</ele>
        <time>2012-09-23T11:04:02Z</time>
      </trkpt>
      <trkpt lat="41.661484000" lon="2.594902100">
        <ele>573.10</ele>
        <time>2012-09-23T11:04:10Z</time>
      </trkpt>
      <trkpt lat="41.661514000" lon="2.594785100">
        <ele>574.50</ele>
        <time>2012-09-23T11:04:19Z</time>
      </trkpt>
      <trkpt lat="41.661514000" lon="2.594731100">
        <ele>576.00</ele>
        <time>2012-09-23T11:04:28Z</time>
      </trkpt>
      <trkpt lat="41.661522000" lon="2.594640100">
        <ele>577.40</ele>
        <time>2012-09-23T11:04:35Z</time>
      </trkpt>
      <trkpt lat="41.661572000" lon="2.594549100">
        <ele>578.40</ele>
        <time>2012-09-23T11:04:42Z</time>
      </trkpt>
      <trkpt lat="41.661629000" lon="2.594461100">
        <ele>579.80</ele>
        <time>2012-09-23T11:04:49Z</time>
      </trkpt>
      <trkpt lat="41.661652000" lon="2.594351100">
        <ele>582.70</ele>
        <time>2012-09-23T11:04:56Z</time>
      </trkpt>
      <trkpt lat="41.661636000" lon="2.594280100">
        <ele>586.10</ele>
        <time>2012-09-23T11:04:59Z</time>
      </trkpt>
      <trkpt lat="41.661541000" lon="2.594179100">
        <ele>588.00</ele>
        <time>2012-09-23T11:05:11Z</time>
      </trkpt>
      <trkpt lat="41.661484000" lon="2.594131100">
        <ele>588.00</ele>
        <time>2012-09-23T11:05:18Z</time>
      </trkpt>
      <trkpt lat="41.661419000" lon="2.594086100">
        <ele>589.00</ele>
        <time>2012-09-23T11:05:27Z</time>
      </trkpt>
      <trkpt lat="41.661373000" lon="2.594020100">
        <ele>590.90</ele>
        <time>2012-09-23T11:05:34Z</time>
      </trkpt>
      <trkpt lat="41.661358000" lon="2.593992100">
        <ele>593.30</ele>
        <time>2012-09-23T11:05:37Z</time>
      </trkpt>
      <trkpt lat="41.661301000" lon="2.593915100">
        <ele>597.10</ele>
        <time>2012-09-23T11:05:44Z</time>
      </trkpt>
      <trkpt lat="41.661255000" lon="2.593828100">
        <ele>596.60</ele>
        <time>2012-09-23T11:05:51Z</time>
      </trkpt>
      <trkpt lat="41.661140000" lon="2.593620100">
        <ele>597.60</ele>
        <time>2012-09-23T11:06:09Z</time>
      </trkpt>
      <trkpt lat="41.661076000" lon="2.593494100">
        <ele>599.00</ele>
        <time>2012-09-23T11:06:19Z</time>
      </trkpt>
      <trkpt lat="41.661022000" lon="2.593379100">
        <ele>600.00</ele>
        <time>2012-09-23T11:06:26Z</time>
      </trkpt>
      <trkpt lat="41.660976000" lon="2.593293100">
        <ele>601.00</ele>
        <time>2012-09-23T11:06:33Z</time>
      </trkpt>
      <trkpt lat="41.660885000" lon="2.593228100">
        <ele>605.30</ele>
        <time>2012-09-23T11:06:42Z</time>
      </trkpt>
      <trkpt lat="41.660873000" lon="2.593220100">
        <ele>605.80</ele>
        <time>2012-09-23T11:06:42Z</time>
      </trkpt>
      <trkpt lat="41.660820000" lon="2.593120100">
        <ele>607.20</ele>
        <time>2012-09-23T11:06:49Z</time>
      </trkpt>
      <trkpt lat="41.660789000" lon="2.592991100">
        <ele>605.80</ele>
        <time>2012-09-23T11:06:56Z</time>
      </trkpt>
      <trkpt lat="41.660789000" lon="2.592986100">
        <ele>605.80</ele>
        <time>2012-09-23T11:07:05Z</time>
      </trkpt>
      <trkpt lat="41.660789000" lon="2.592986100">
        <ele>605.80</ele>
        <time>2012-09-23T11:07:17Z</time>
      </trkpt>
      <trkpt lat="41.660793000" lon="2.592979100">
        <ele>604.80</ele>
        <time>2012-09-23T11:07:43Z</time>
      </trkpt>
      <trkpt lat="41.660793000" lon="2.592974100">
        <ele>604.80</ele>
        <time>2012-09-23T11:08:23Z</time>
      </trkpt>
      <trkpt lat="41.660789000" lon="2.592972100">
        <ele>604.80</ele>
        <time>2012-09-23T11:09:01Z</time>
      </trkpt>
      <trkpt lat="41.660793000" lon="2.592971100">
        <ele>604.80</ele>
        <time>2012-09-23T11:09:13Z</time>
      </trkpt>
      <trkpt lat="41.660793000" lon="2.592965100">
        <ele>604.80</ele>
        <time>2012-09-23T11:10:18Z</time>
      </trkpt>
      <trkpt lat="41.660797000" lon="2.592962100">
        <ele>604.80</ele>
        <time>2012-09-23T11:11:40Z</time>
      </trkpt>
      <trkpt lat="41.660793000" lon="2.592961100">
        <ele>604.80</ele>
        <time>2012-09-23T11:12:30Z</time>
      </trkpt>
      <trkpt lat="41.660793000" lon="2.592954100">
        <ele>604.80</ele>
        <time>2012-09-23T11:13:40Z</time>
      </trkpt>
      <trkpt lat="41.660812000" lon="2.592942100">
        <ele>604.80</ele>
        <time>2012-09-23T11:13:54Z</time>
      </trkpt>
      <trkpt lat="41.660820000" lon="2.592965100">
        <ele>604.80</ele>
        <time>2012-09-23T11:13:56Z</time>
      </trkpt>
      <trkpt lat="41.660816000" lon="2.593027100">
        <ele>604.80</ele>
        <time>2012-09-23T11:14:01Z</time>
      </trkpt>
      <trkpt lat="41.660843000" lon="2.593123100">
        <ele>605.30</ele>
        <time>2012-09-23T11:14:06Z</time>
      </trkpt>
      <trkpt lat="41.660877000" lon="2.593291100">
        <ele>605.30</ele>
        <time>2012-09-23T11:14:15Z</time>
      </trkpt>
      <trkpt lat="41.660858000" lon="2.593416100">
        <ele>606.70</ele>
        <time>2012-09-23T11:14:22Z</time>
      </trkpt>
      <trkpt lat="41.660847000" lon="2.593607100">
        <ele>607.20</ele>
        <time>2012-09-23T11:14:30Z</time>
      </trkpt>
      <trkpt lat="41.660820000" lon="2.593813100">
        <ele>608.70</ele>
        <time>2012-09-23T11:14:39Z</time>
      </trkpt>
      <trkpt lat="41.660801000" lon="2.594009100">
        <ele>609.60</ele>
        <time>2012-09-23T11:14:48Z</time>
      </trkpt>
      <trkpt lat="41.660786000" lon="2.594106100">
        <ele>610.10</ele>
        <time>2012-09-23T11:14:53Z</time>
      </trkpt>
      <trkpt lat="41.660774000" lon="2.594165100">
        <ele>611.10</ele>
        <time>2012-09-23T11:15:00Z</time>
      </trkpt>
      <trkpt lat="41.660774000" lon="2.594165100">
        <ele>611.10</ele>
        <time>2012-09-23T11:15:14Z</time>
      </trkpt>
      <trkpt lat="41.660744000" lon="2.594243100">
        <ele>612.00</ele>
        <time>2012-09-23T11:15:21Z</time>
      </trkpt>
      <trkpt lat="41.660721000" lon="2.594333100">
        <ele>613.00</ele>
        <time>2012-09-23T11:15:26Z</time>
      </trkpt>
      <trkpt lat="41.660686000" lon="2.594378100">
        <ele>613.50</ele>
        <time>2012-09-23T11:15:30Z</time>
      </trkpt>
      <trkpt lat="41.660622000" lon="2.594577100">
        <ele>614.40</ele>
        <time>2012-09-23T11:15:40Z</time>
      </trkpt>
      <trkpt lat="41.660568000" lon="2.594715100">
        <ele>615.40</ele>
        <time>2012-09-23T11:15:47Z</time>
      </trkpt>
      <trkpt lat="41.660553000" lon="2.594747100">
        <ele>615.90</ele>
        <time>2012-09-23T11:15:51Z</time>
      </trkpt>
      <trkpt lat="41.660477000" lon="2.594911100">
        <ele>616.80</ele>
        <time>2012-09-23T11:15:59Z</time>
      </trkpt>
      <trkpt lat="41.660389000" lon="2.595144100">
        <ele>618.80</ele>
        <time>2012-09-23T11:16:08Z</time>
      </trkpt>
      <trkpt lat="41.660324000" lon="2.595305100">
        <ele>620.20</ele>
        <time>2012-09-23T11:16:15Z</time>
      </trkpt>
      <trkpt lat="41.660278000" lon="2.595397100">
        <ele>621.20</ele>
        <time>2012-09-23T11:16:20Z</time>
      </trkpt>
      <trkpt lat="41.660149000" lon="2.595569100">
        <ele>623.50</ele>
        <time>2012-09-23T11:16:31Z</time>
      </trkpt>
      <trkpt lat="41.660061000" lon="2.595708100">
        <ele>624.50</ele>
        <time>2012-09-23T11:16:39Z</time>
      </trkpt>
      <trkpt lat="41.659985000" lon="2.595846100">
        <ele>625.50</ele>
        <time>2012-09-23T11:16:48Z</time>
      </trkpt>
      <trkpt lat="41.659874000" lon="2.596078100">
        <ele>626.90</ele>
        <time>2012-09-23T11:16:57Z</time>
      </trkpt>
      <trkpt lat="41.659782000" lon="2.596267100">
        <ele>627.40</ele>
        <time>2012-09-23T11:17:05Z</time>
      </trkpt>
      <trkpt lat="41.659676000" lon="2.596399100">
        <ele>627.40</ele>
        <time>2012-09-23T11:17:12Z</time>
      </trkpt>
      <trkpt lat="41.659542000" lon="2.596555100">
        <ele>627.40</ele>
        <time>2012-09-23T11:17:21Z</time>
      </trkpt>
      <trkpt lat="41.659416000" lon="2.596723100">
        <ele>627.90</ele>
        <time>2012-09-23T11:17:26Z</time>
      </trkpt>
      <trkpt lat="41.659290000" lon="2.596812100">
        <ele>628.40</ele>
        <time>2012-09-23T11:17:33Z</time>
      </trkpt>
      <trkpt lat="41.659138000" lon="2.596888100">
        <ele>628.80</ele>
        <time>2012-09-23T11:17:40Z</time>
      </trkpt>
      <trkpt lat="41.658970000" lon="2.596910100">
        <ele>629.80</ele>
        <time>2012-09-23T11:17:47Z</time>
      </trkpt>
      <trkpt lat="41.658775000" lon="2.597007100">
        <ele>630.30</ele>
        <time>2012-09-23T11:17:54Z</time>
      </trkpt>
      <trkpt lat="41.658718000" lon="2.597082100">
        <ele>630.30</ele>
        <time>2012-09-23T11:17:56Z</time>
      </trkpt>
      <trkpt lat="41.658657000" lon="2.597185100">
        <ele>630.30</ele>
        <time>2012-09-23T11:17:58Z</time>
      </trkpt>
      <trkpt lat="41.658470000" lon="2.597533100">
        <ele>630.30</ele>
        <time>2012-09-23T11:18:05Z</time>
      </trkpt>
      <trkpt lat="41.658386000" lon="2.597656100">
        <ele>628.80</ele>
        <time>2012-09-23T11:18:06Z</time>
      </trkpt>
      <trkpt lat="41.658245000" lon="2.597812100">
        <ele>629.30</ele>
        <time>2012-09-23T11:18:10Z</time>
      </trkpt>
      <trkpt lat="41.658123000" lon="2.598129100">
        <ele>627.90</ele>
        <time>2012-09-23T11:18:15Z</time>
      </trkpt>
      <trkpt lat="41.658073000" lon="2.598352100">
        <ele>627.40</ele>
        <time>2012-09-23T11:18:19Z</time>
      </trkpt>
      <trkpt lat="41.658035000" lon="2.598539100">
        <ele>626.40</ele>
        <time>2012-09-23T11:18:24Z</time>
      </trkpt>
      <trkpt lat="41.657990000" lon="2.598774100">
        <ele>625.50</ele>
        <time>2012-09-23T11:18:27Z</time>
      </trkpt>
      <trkpt lat="41.657913000" lon="2.599077100">
        <ele>619.20</ele>
        <time>2012-09-23T11:18:33Z</time>
      </trkpt>
      <trkpt lat="41.657871000" lon="2.599190100">
        <ele>615.90</ele>
        <time>2012-09-23T11:18:34Z</time>
      </trkpt>
      <trkpt lat="41.657742000" lon="2.599411100">
        <ele>610.10</ele>
        <time>2012-09-23T11:18:38Z</time>
      </trkpt>
      <trkpt lat="41.657654000" lon="2.599591100">
        <ele>607.20</ele>
        <time>2012-09-23T11:18:41Z</time>
      </trkpt>
      <trkpt lat="41.657623000" lon="2.599957100">
        <ele>604.30</ele>
        <time>2012-09-23T11:18:48Z</time>
      </trkpt>
      <trkpt lat="41.657558000" lon="2.600194100">
        <ele>599.50</ele>
        <time>2012-09-23T11:18:52Z</time>
      </trkpt>
      <trkpt lat="41.657402000" lon="2.600339100">
        <ele>594.70</ele>
        <time>2012-09-23T11:18:57Z</time>
      </trkpt>
      <trkpt lat="41.657276000" lon="2.600306100">
        <ele>589.90</ele>
        <time>2012-09-23T11:19:02Z</time>
      </trkpt>
      <trkpt lat="41.657280000" lon="2.600286100">
        <ele>589.00</ele>
        <time>2012-09-23T11:19:04Z</time>
      </trkpt>
      <trkpt lat="41.657318000" lon="2.600045100">
        <ele>585.60</ele>
        <time>2012-09-23T11:19:09Z</time>
      </trkpt>
      <trkpt lat="41.657227000" lon="2.599809100">
        <ele>584.10</ele>
        <time>2012-09-23T11:19:14Z</time>
      </trkpt>
      <trkpt lat="41.657185000" lon="2.599475100">
        <ele>579.30</ele>
        <time>2012-09-23T11:19:21Z</time>
      </trkpt>
      <trkpt lat="41.657166000" lon="2.599333100">
        <ele>577.90</ele>
        <time>2012-09-23T11:19:23Z</time>
      </trkpt>
      <trkpt lat="41.657127000" lon="2.599127100">
        <ele>573.60</ele>
        <time>2012-09-23T11:19:25Z</time>
      </trkpt>
      <trkpt lat="41.657051000" lon="2.598986100">
        <ele>569.70</ele>
        <time>2012-09-23T11:19:28Z</time>
      </trkpt>
      <trkpt lat="41.656864000" lon="2.598842100">
        <ele>566.30</ele>
        <time>2012-09-23T11:19:32Z</time>
      </trkpt>
      <trkpt lat="41.656746000" lon="2.598763100">
        <ele>566.80</ele>
        <time>2012-09-23T11:19:35Z</time>
      </trkpt>
      <trkpt lat="41.656563000" lon="2.598562100">
        <ele>566.80</ele>
        <time>2012-09-23T11:19:39Z</time>
      </trkpt>
      <trkpt lat="41.656609000" lon="2.598387100">
        <ele>564.90</ele>
        <time>2012-09-23T11:19:44Z</time>
      </trkpt>
      <trkpt lat="41.656780000" lon="2.598174100">
        <ele>560.60</ele>
        <time>2012-09-23T11:19:49Z</time>
      </trkpt>
      <trkpt lat="41.656811000" lon="2.598122100">
        <ele>560.60</ele>
        <time>2012-09-23T11:19:49Z</time>
      </trkpt>
      <trkpt lat="41.656925000" lon="2.597933100">
        <ele>556.70</ele>
        <time>2012-09-23T11:19:54Z</time>
      </trkpt>
      <trkpt lat="41.656971000" lon="2.597703100">
        <ele>555.30</ele>
        <time>2012-09-23T11:19:58Z</time>
      </trkpt>
      <trkpt lat="41.656822000" lon="2.597369100">
        <ele>551.90</ele>
        <time>2012-09-23T11:20:05Z</time>
      </trkpt>
      <trkpt lat="41.656502000" lon="2.597261100">
        <ele>548.10</ele>
        <time>2012-09-23T11:20:10Z</time>
      </trkpt>
      <trkpt lat="41.656334000" lon="2.597205100">
        <ele>545.20</ele>
        <time>2012-09-23T11:20:14Z</time>
      </trkpt>
      <trkpt lat="41.656067000" lon="2.597198100">
        <ele>539.90</ele>
        <time>2012-09-23T11:20:19Z</time>
      </trkpt>
      <trkpt lat="41.655815000" lon="2.597022100">
        <ele>535.10</ele>
        <time>2012-09-23T11:20:24Z</time>
      </trkpt>
      <trkpt lat="41.655762000" lon="2.596740100">
        <ele>532.20</ele>
        <time>2012-09-23T11:20:28Z</time>
      </trkpt>
      <trkpt lat="41.655613000" lon="2.596554100">
        <ele>529.80</ele>
        <time>2012-09-23T11:20:31Z</time>
      </trkpt>
      <trkpt lat="41.655472000" lon="2.596334100">
        <ele>526.50</ele>
        <time>2012-09-23T11:20:36Z</time>
      </trkpt>
      <trkpt lat="41.655525000" lon="2.596102100">
        <ele>522.60</ele>
        <time>2012-09-23T11:20:40Z</time>
      </trkpt>
      <trkpt lat="41.655781000" lon="2.595842100">
        <ele>520.20</ele>
        <time>2012-09-23T11:20:45Z</time>
      </trkpt>
      <trkpt lat="41.655937000" lon="2.595586100">
        <ele>517.80</ele>
        <time>2012-09-23T11:20:50Z</time>
      </trkpt>
      <trkpt lat="41.655846000" lon="2.595311100">
        <ele>514.40</ele>
        <time>2012-09-23T11:20:55Z</time>
      </trkpt>
      <trkpt lat="41.655670000" lon="2.595128100">
        <ele>510.10</ele>
        <time>2012-09-23T11:21:01Z</time>
      </trkpt>
      <trkpt lat="41.655716000" lon="2.594887100">
        <ele>507.70</ele>
        <time>2012-09-23T11:21:06Z</time>
      </trkpt>
      <trkpt lat="41.655678000" lon="2.594740100">
        <ele>507.20</ele>
        <time>2012-09-23T11:21:09Z</time>
      </trkpt>
      <trkpt lat="41.655499000" lon="2.594615100">
        <ele>507.20</ele>
        <time>2012-09-23T11:21:13Z</time>
      </trkpt>
      <trkpt lat="41.655190000" lon="2.594465100">
        <ele>504.40</ele>
        <time>2012-09-23T11:21:20Z</time>
      </trkpt>
      <trkpt lat="41.655144000" lon="2.594415100">
        <ele>503.40</ele>
        <time>2012-09-23T11:21:20Z</time>
      </trkpt>
      <trkpt lat="41.654972000" lon="2.594201100">
        <ele>498.10</ele>
        <time>2012-09-23T11:21:25Z</time>
      </trkpt>
      <trkpt lat="41.654900000" lon="2.594097100">
        <ele>495.70</ele>
        <time>2012-09-23T11:21:27Z</time>
      </trkpt>
      <trkpt lat="41.654739000" lon="2.593946100">
        <ele>490.90</ele>
        <time>2012-09-23T11:21:30Z</time>
      </trkpt>
      <trkpt lat="41.654549000" lon="2.593839100">
        <ele>487.50</ele>
        <time>2012-09-23T11:21:34Z</time>
      </trkpt>
      <trkpt lat="41.654354000" lon="2.593712100">
        <ele>484.20</ele>
        <time>2012-09-23T11:21:39Z</time>
      </trkpt>
      <trkpt lat="41.654224000" lon="2.593665100">
        <ele>481.30</ele>
        <time>2012-09-23T11:21:42Z</time>
      </trkpt>
      <trkpt lat="41.653980000" lon="2.593563100">
        <ele>475.50</ele>
        <time>2012-09-23T11:21:48Z</time>
      </trkpt>
      <trkpt lat="41.653881000" lon="2.593520100">
        <ele>472.60</ele>
        <time>2012-09-23T11:21:49Z</time>
      </trkpt>
      <trkpt lat="41.653687000" lon="2.593368100">
        <ele>466.90</ele>
        <time>2012-09-23T11:21:53Z</time>
      </trkpt>
      <trkpt lat="41.653572000" lon="2.593318100">
        <ele>463.50</ele>
        <time>2012-09-23T11:21:56Z</time>
      </trkpt>
      <trkpt lat="41.653522000" lon="2.593367100">
        <ele>462.50</ele>
        <time>2012-09-23T11:22:00Z</time>
      </trkpt>
      <trkpt lat="41.653564000" lon="2.593543100">
        <ele>462.50</ele>
        <time>2012-09-23T11:22:05Z</time>
      </trkpt>
      <trkpt lat="41.653599000" lon="2.593598100">
        <ele>462.50</ele>
        <time>2012-09-23T11:22:05Z</time>
      </trkpt>
      <trkpt lat="41.653767000" lon="2.593954100">
        <ele>461.60</ele>
        <time>2012-09-23T11:22:10Z</time>
      </trkpt>
      <trkpt lat="41.653885000" lon="2.594154100">
        <ele>457.20</ele>
        <time>2012-09-23T11:22:14Z</time>
      </trkpt>
      <trkpt lat="41.653919000" lon="2.594231100">
        <ele>455.30</ele>
        <time>2012-09-23T11:22:14Z</time>
      </trkpt>
      <trkpt lat="41.653976000" lon="2.594404100">
        <ele>452.00</ele>
        <time>2012-09-23T11:22:17Z</time>
      </trkpt>
      <trkpt lat="41.654106000" lon="2.594661100">
        <ele>447.10</ele>
        <time>2012-09-23T11:22:21Z</time>
      </trkpt>
      <trkpt lat="41.654064000" lon="2.594685100">
        <ele>446.20</ele>
        <time>2012-09-23T11:22:24Z</time>
      </trkpt>
      <trkpt lat="41.653954000" lon="2.594609100">
        <ele>447.10</ele>
        <time>2012-09-23T11:22:26Z</time>
      </trkpt>
      <trkpt lat="41.653847000" lon="2.594547100">
        <ele>447.10</ele>
        <time>2012-09-23T11:22:30Z</time>
      </trkpt>
      <trkpt lat="41.653717000" lon="2.594428100">
        <ele>446.70</ele>
        <time>2012-09-23T11:22:33Z</time>
      </trkpt>
      <trkpt lat="41.653484000" lon="2.594187100">
        <ele>441.90</ele>
        <time>2012-09-23T11:22:38Z</time>
      </trkpt>
      <trkpt lat="41.653286000" lon="2.594132100">
        <ele>438.50</ele>
        <time>2012-09-23T11:22:40Z</time>
      </trkpt>
      <trkpt lat="41.653229000" lon="2.594133100">
        <ele>437.10</ele>
        <time>2012-09-23T11:22:42Z</time>
      </trkpt>
      <trkpt lat="41.652962000" lon="2.594182100">
        <ele>432.20</ele>
        <time>2012-09-23T11:22:47Z</time>
      </trkpt>
      <trkpt lat="41.652767000" lon="2.594262100">
        <ele>428.40</ele>
        <time>2012-09-23T11:22:50Z</time>
      </trkpt>
      <trkpt lat="41.652531000" lon="2.594392100">
        <ele>423.10</ele>
        <time>2012-09-23T11:22:54Z</time>
      </trkpt>
      <trkpt lat="41.652355000" lon="2.594492100">
        <ele>419.80</ele>
        <time>2012-09-23T11:22:57Z</time>
      </trkpt>
      <trkpt lat="41.652096000" lon="2.594604100">
        <ele>415.90</ele>
        <time>2012-09-23T11:23:01Z</time>
      </trkpt>
      <trkpt lat="41.652020000" lon="2.594637100">
        <ele>416.40</ele>
        <time>2012-09-23T11:23:03Z</time>
      </trkpt>
      <trkpt lat="41.651848000" lon="2.594743100">
        <ele>414.50</ele>
        <time>2012-09-23T11:23:06Z</time>
      </trkpt>
      <trkpt lat="41.651600000" lon="2.594937100">
        <ele>410.60</ele>
        <time>2012-09-23T11:23:11Z</time>
      </trkpt>
      <trkpt lat="41.651360000" lon="2.595009100">
        <ele>406.30</ele>
        <time>2012-09-23T11:23:15Z</time>
      </trkpt>
      <trkpt lat="41.651291000" lon="2.594994100">
        <ele>404.90</ele>
        <time>2012-09-23T11:23:15Z</time>
      </trkpt>
      <trkpt lat="41.650963000" lon="2.594733100">
        <ele>398.10</ele>
        <time>2012-09-23T11:23:20Z</time>
      </trkpt>
      <trkpt lat="41.650841000" lon="2.594552100">
        <ele>396.20</ele>
        <time>2012-09-23T11:23:22Z</time>
      </trkpt>
      <trkpt lat="41.650654000" lon="2.594315100">
        <ele>394.80</ele>
        <time>2012-09-23T11:23:25Z</time>
      </trkpt>
      <trkpt lat="41.650459000" lon="2.594202100">
        <ele>394.80</ele>
        <time>2012-09-23T11:23:29Z</time>
      </trkpt>
      <trkpt lat="41.650364000" lon="2.594208100">
        <ele>394.80</ele>
        <time>2012-09-23T11:23:34Z</time>
      </trkpt>
      <trkpt lat="41.650333000" lon="2.594215100">
        <ele>394.80</ele>
        <time>2012-09-23T11:23:34Z</time>
      </trkpt>
      <trkpt lat="41.650112000" lon="2.594293100">
        <ele>394.80</ele>
        <time>2012-09-23T11:23:41Z</time>
      </trkpt>
      <trkpt lat="41.649975000" lon="2.594381100">
        <ele>394.30</ele>
        <time>2012-09-23T11:23:46Z</time>
      </trkpt>
      <trkpt lat="41.649811000" lon="2.594522100">
        <ele>393.30</ele>
        <time>2012-09-23T11:23:51Z</time>
      </trkpt>
      <trkpt lat="41.649750000" lon="2.594565100">
        <ele>392.40</ele>
        <time>2012-09-23T11:23:53Z</time>
      </trkpt>
      <trkpt lat="41.649467000" lon="2.594644100">
        <ele>389.00</ele>
        <time>2012-09-23T11:24:00Z</time>
      </trkpt>
      <trkpt lat="41.649212000" lon="2.594674100">
        <ele>385.10</ele>
        <time>2012-09-23T11:24:04Z</time>
      </trkpt>
      <trkpt lat="41.648792000" lon="2.594712100">
        <ele>382.30</ele>
        <time>2012-09-23T11:24:09Z</time>
      </trkpt>
      <trkpt lat="41.648491000" lon="2.594696100">
        <ele>380.30</ele>
        <time>2012-09-23T11:24:14Z</time>
      </trkpt>
      <trkpt lat="41.648216000" lon="2.594677100">
        <ele>376.50</ele>
        <time>2012-09-23T11:24:18Z</time>
      </trkpt>
      <trkpt lat="41.648148000" lon="2.594664100">
        <ele>375.00</ele>
        <time>2012-09-23T11:24:19Z</time>
      </trkpt>
      <trkpt lat="41.647957000" lon="2.594582100">
        <ele>370.20</ele>
        <time>2012-09-23T11:24:21Z</time>
      </trkpt>
      <trkpt lat="41.647896000" lon="2.594534100">
        <ele>368.80</ele>
        <time>2012-09-23T11:24:23Z</time>
      </trkpt>
      <trkpt lat="41.647644000" lon="2.594259100">
        <ele>363.50</ele>
        <time>2012-09-23T11:24:28Z</time>
      </trkpt>
      <trkpt lat="41.647449000" lon="2.594219100">
        <ele>361.60</ele>
        <time>2012-09-23T11:24:31Z</time>
      </trkpt>
      <trkpt lat="41.647251000" lon="2.594229100">
        <ele>361.60</ele>
        <time>2012-09-23T11:24:35Z</time>
      </trkpt>
      <trkpt lat="41.646824000" lon="2.594381100">
        <ele>361.60</ele>
        <time>2012-09-23T11:24:40Z</time>
      </trkpt>
      <trkpt lat="41.646759000" lon="2.594403100">
        <ele>360.60</ele>
        <time>2012-09-23T11:24:42Z</time>
      </trkpt>
      <trkpt lat="41.646481000" lon="2.594422100">
        <ele>357.80</ele>
        <time>2012-09-23T11:24:45Z</time>
      </trkpt>
      <trkpt lat="41.646309000" lon="2.594418100">
        <ele>355.30</ele>
        <time>2012-09-23T11:24:47Z</time>
      </trkpt>
      <trkpt lat="41.646072000" lon="2.594495100">
        <ele>349.60</ele>
        <time>2012-09-23T11:24:52Z</time>
      </trkpt>
      <trkpt lat="41.646027000" lon="2.594519100">
        <ele>348.60</ele>
        <time>2012-09-23T11:24:52Z</time>
      </trkpt>
      <trkpt lat="41.645893000" lon="2.594555100">
        <ele>347.20</ele>
        <time>2012-09-23T11:24:58Z</time>
      </trkpt>
      <trkpt lat="41.645893000" lon="2.594557100">
        <ele>349.10</ele>
        <time>2012-09-23T11:25:29Z</time>
      </trkpt>
      <trkpt lat="41.645897000" lon="2.594555100">
        <ele>349.10</ele>
        <time>2012-09-23T11:25:41Z</time>
      </trkpt>
      <trkpt lat="41.645744000" lon="2.594515100">
        <ele>349.10</ele>
        <time>2012-09-23T11:25:46Z</time>
      </trkpt>
      <trkpt lat="41.645348000" lon="2.594485100">
        <ele>349.10</ele>
        <time>2012-09-23T11:25:55Z</time>
      </trkpt>
      <trkpt lat="41.645077000" lon="2.594471100">
        <ele>347.60</ele>
        <time>2012-09-23T11:26:00Z</time>
      </trkpt>
      <trkpt lat="41.644711000" lon="2.594443100">
        <ele>347.20</ele>
        <time>2012-09-23T11:26:06Z</time>
      </trkpt>
      <trkpt lat="41.644432000" lon="2.594550100">
        <ele>346.20</ele>
        <time>2012-09-23T11:26:11Z</time>
      </trkpt>
      <trkpt lat="41.644161000" lon="2.594772100">
        <ele>344.80</ele>
        <time>2012-09-23T11:26:18Z</time>
      </trkpt>
      <trkpt lat="41.643944000" lon="2.594911100">
        <ele>344.30</ele>
        <time>2012-09-23T11:26:23Z</time>
      </trkpt>
      <trkpt lat="41.643776000" lon="2.595032100">
        <ele>343.80</ele>
        <time>2012-09-23T11:26:26Z</time>
      </trkpt>
      <trkpt lat="41.643597000" lon="2.595098100">
        <ele>342.40</ele>
        <time>2012-09-23T11:26:30Z</time>
      </trkpt>
      <trkpt lat="41.643272000" lon="2.595034100">
        <ele>338.00</ele>
        <time>2012-09-23T11:26:33Z</time>
      </trkpt>
      <trkpt lat="41.643124000" lon="2.594916100">
        <ele>334.70</ele>
        <time>2012-09-23T11:26:35Z</time>
      </trkpt>
      <trkpt lat="41.643013000" lon="2.594727100">
        <ele>331.80</ele>
        <time>2012-09-23T11:26:37Z</time>
      </trkpt>
      <trkpt lat="41.642941000" lon="2.594530100">
        <ele>329.40</ele>
        <time>2012-09-23T11:26:40Z</time>
      </trkpt>
      <trkpt lat="41.642570000" lon="2.594309100">
        <ele>327.00</ele>
        <time>2012-09-23T11:26:44Z</time>
      </trkpt>
      <trkpt lat="41.642239000" lon="2.594174100">
        <ele>327.00</ele>
        <time>2012-09-23T11:26:49Z</time>
      </trkpt>
      <trkpt lat="41.641834000" lon="2.594175100">
        <ele>327.00</ele>
        <time>2012-09-23T11:26:54Z</time>
      </trkpt>
      <trkpt lat="41.641769000" lon="2.594206100">
        <ele>327.00</ele>
        <time>2012-09-23T11:26:54Z</time>
      </trkpt>
      <trkpt lat="41.641582000" lon="2.594260100">
        <ele>324.10</ele>
        <time>2012-09-23T11:26:58Z</time>
      </trkpt>
      <trkpt lat="41.641331000" lon="2.594355100">
        <ele>320.30</ele>
        <time>2012-09-23T11:27:01Z</time>
      </trkpt>
      <trkpt lat="41.641113000" lon="2.594343100">
        <ele>316.40</ele>
        <time>2012-09-23T11:27:05Z</time>
      </trkpt>
      <trkpt lat="41.640644000" lon="2.594228100">
        <ele>311.60</ele>
        <time>2012-09-23T11:27:10Z</time>
      </trkpt>
      <trkpt lat="41.640545000" lon="2.594184100">
        <ele>310.60</ele>
        <time>2012-09-23T11:27:10Z</time>
      </trkpt>
      <trkpt lat="41.640152000" lon="2.593812100">
        <ele>306.30</ele>
        <time>2012-09-23T11:27:15Z</time>
      </trkpt>
      <trkpt lat="41.640045000" lon="2.593677100">
        <ele>304.40</ele>
        <time>2012-09-23T11:27:17Z</time>
      </trkpt>
      <trkpt lat="41.639751000" lon="2.593267100">
        <ele>303.40</ele>
        <time>2012-09-23T11:27:24Z</time>
      </trkpt>
      <trkpt lat="41.639397000" lon="2.592709100">
        <ele>299.60</ele>
        <time>2012-09-23T11:27:31Z</time>
      </trkpt>
      <trkpt lat="41.639332000" lon="2.592538100">
        <ele>296.20</ele>
        <time>2012-09-23T11:27:33Z</time>
      </trkpt>
      <trkpt lat="41.639297000" lon="2.592453100">
        <ele>293.80</ele>
        <time>2012-09-23T11:27:34Z</time>
      </trkpt>
      <trkpt lat="41.639248000" lon="2.592145100">
        <ele>287.60</ele>
        <time>2012-09-23T11:27:36Z</time>
      </trkpt>
      <trkpt lat="41.639256000" lon="2.592042100">
        <ele>285.60</ele>
        <time>2012-09-23T11:27:38Z</time>
      </trkpt>
      <trkpt lat="41.639397000" lon="2.591555100">
        <ele>283.70</ele>
        <time>2012-09-23T11:27:43Z</time>
      </trkpt>
      <trkpt lat="41.639542000" lon="2.591142100">
        <ele>286.60</ele>
        <time>2012-09-23T11:27:48Z</time>
      </trkpt>
      <trkpt lat="41.639381000" lon="2.590937100">
        <ele>287.10</ele>
        <time>2012-09-23T11:27:50Z</time>
      </trkpt>
      <trkpt lat="41.639099000" lon="2.590666100">
        <ele>283.20</ele>
        <time>2012-09-23T11:27:55Z</time>
      </trkpt>
      <trkpt lat="41.638885000" lon="2.590421100">
        <ele>279.90</ele>
        <time>2012-09-23T11:27:57Z</time>
      </trkpt>
      <trkpt lat="41.638584000" lon="2.590101100">
        <ele>276.50</ele>
        <time>2012-09-23T11:28:02Z</time>
      </trkpt>
      <trkpt lat="41.637974000" lon="2.589491100">
        <ele>274.60</ele>
        <time>2012-09-23T11:28:09Z</time>
      </trkpt>
      <trkpt lat="41.637455000" lon="2.588949100">
        <ele>274.60</ele>
        <time>2012-09-23T11:28:18Z</time>
      </trkpt>
      <trkpt lat="41.637272000" lon="2.588816100">
        <ele>274.10</ele>
        <time>2012-09-23T11:28:21Z</time>
      </trkpt>
      <trkpt lat="41.637173000" lon="2.588784100">
        <ele>274.10</ele>
        <time>2012-09-23T11:28:23Z</time>
      </trkpt>
      <trkpt lat="41.636974000" lon="2.588648100">
        <ele>274.10</ele>
        <time>2012-09-23T11:28:28Z</time>
      </trkpt>
      <trkpt lat="41.636814000" lon="2.588432100">
        <ele>274.10</ele>
        <time>2012-09-23T11:28:32Z</time>
      </trkpt>
      <trkpt lat="41.636696000" lon="2.588252100">
        <ele>274.10</ele>
        <time>2012-09-23T11:28:37Z</time>
      </trkpt>
      <trkpt lat="41.636501000" lon="2.587909100">
        <ele>274.10</ele>
        <time>2012-09-23T11:28:44Z</time>
      </trkpt>
      <trkpt lat="41.636169000" lon="2.587608100">
        <ele>274.10</ele>
        <time>2012-09-23T11:28:53Z</time>
      </trkpt>
      <trkpt lat="41.636024000" lon="2.587623100">
        <ele>274.10</ele>
        <time>2012-09-23T11:28:58Z</time>
      </trkpt>
      <trkpt lat="41.635960000" lon="2.587655100">
        <ele>273.60</ele>
        <time>2012-09-23T11:29:03Z</time>
      </trkpt>
      <trkpt lat="41.635872000" lon="2.587700100">
        <ele>273.60</ele>
        <time>2012-09-23T11:29:08Z</time>
      </trkpt>
      <trkpt lat="41.635777000" lon="2.587760100">
        <ele>273.60</ele>
        <time>2012-09-23T11:29:12Z</time>
      </trkpt>
      <trkpt lat="41.635525000" lon="2.587862100">
        <ele>273.10</ele>
        <time>2012-09-23T11:29:17Z</time>
      </trkpt>
      <trkpt lat="41.635059000" lon="2.587707100">
        <ele>272.20</ele>
        <time>2012-09-23T11:29:28Z</time>
      </trkpt>
      <trkpt lat="41.634731000" lon="2.587687100">
        <ele>271.70</ele>
        <time>2012-09-23T11:29:35Z</time>
      </trkpt>
      <trkpt lat="41.634647000" lon="2.587670100">
        <ele>271.70</ele>
        <time>2012-09-23T11:29:36Z</time>
      </trkpt>
      <trkpt lat="41.634495000" lon="2.587609100">
        <ele>271.70</ele>
        <time>2012-09-23T11:29:40Z</time>
      </trkpt>
      <trkpt lat="41.634270000" lon="2.587521100">
        <ele>271.20</ele>
        <time>2012-09-23T11:29:47Z</time>
      </trkpt>
      <trkpt lat="41.634090000" lon="2.587444100">
        <ele>271.20</ele>
        <time>2012-09-23T11:29:54Z</time>
      </trkpt>
      <trkpt lat="41.633850000" lon="2.587380100">
        <ele>273.60</ele>
        <time>2012-09-23T11:30:01Z</time>
      </trkpt>
      <trkpt lat="41.633644000" lon="2.587248100">
        <ele>276.50</ele>
        <time>2012-09-23T11:30:08Z</time>
      </trkpt>
      <trkpt lat="41.633373000" lon="2.587208100">
        <ele>278.90</ele>
        <time>2012-09-23T11:30:15Z</time>
      </trkpt>
      <trkpt lat="41.633232000" lon="2.587194100">
        <ele>278.90</ele>
        <time>2012-09-23T11:30:18Z</time>
      </trkpt>
      <trkpt lat="41.632866000" lon="2.587067100">
        <ele>274.10</ele>
        <time>2012-09-23T11:30:23Z</time>
      </trkpt>
      <trkpt lat="41.632652000" lon="2.587007100">
        <ele>269.80</ele>
        <time>2012-09-23T11:30:25Z</time>
      </trkpt>
      <trkpt lat="41.632515000" lon="2.586975100">
        <ele>266.40</ele>
        <time>2012-09-23T11:30:27Z</time>
      </trkpt>
      <trkpt lat="41.632439000" lon="2.586984100">
        <ele>265.00</ele>
        <time>2012-09-23T11:30:29Z</time>
      </trkpt>
      <trkpt lat="41.632072000" lon="2.586918100">
        <ele>261.60</ele>
        <time>2012-09-23T11:30:34Z</time>
      </trkpt>
      <trkpt lat="41.631760000" lon="2.586682100">
        <ele>261.10</ele>
        <time>2012-09-23T11:30:39Z</time>
      </trkpt>
      <trkpt lat="41.631535000" lon="2.586701100">
        <ele>257.80</ele>
        <time>2012-09-23T11:30:41Z</time>
      </trkpt>
      <trkpt lat="41.631321000" lon="2.586726100">
        <ele>252.50</ele>
        <time>2012-09-23T11:30:44Z</time>
      </trkpt>
      <trkpt lat="41.631191000" lon="2.586746100">
        <ele>248.60</ele>
        <time>2012-09-23T11:30:46Z</time>
      </trkpt>
      <trkpt lat="41.631050000" lon="2.586761100">
        <ele>245.30</ele>
        <time>2012-09-23T11:30:48Z</time>
      </trkpt>
      <trkpt lat="41.630978000" lon="2.586767100">
        <ele>243.40</ele>
        <time>2012-09-23T11:30:49Z</time>
      </trkpt>
      <trkpt lat="41.630703000" lon="2.586739100">
        <ele>237.60</ele>
        <time>2012-09-23T11:30:53Z</time>
      </trkpt>
      <trkpt lat="41.630646000" lon="2.586733100">
        <ele>236.60</ele>
        <time>2012-09-23T11:30:55Z</time>
      </trkpt>
      <trkpt lat="41.630489000" lon="2.586545100">
        <ele>235.20</ele>
        <time>2012-09-23T11:30:58Z</time>
      </trkpt>
      <trkpt lat="41.630402000" lon="2.586152100">
        <ele>234.70</ele>
        <time>2012-09-23T11:31:02Z</time>
      </trkpt>
      <trkpt lat="41.630207000" lon="2.585809100">
        <ele>231.80</ele>
        <time>2012-09-23T11:31:07Z</time>
      </trkpt>
      <trkpt lat="41.629902000" lon="2.585748100">
        <ele>226.50</ele>
        <time>2012-09-23T11:31:12Z</time>
      </trkpt>
      <trkpt lat="41.629757000" lon="2.585745100">
        <ele>225.10</ele>
        <time>2012-09-23T11:31:14Z</time>
      </trkpt>
      <trkpt lat="41.629620000" lon="2.585766100">
        <ele>224.10</ele>
        <time>2012-09-23T11:31:17Z</time>
      </trkpt>
      <trkpt lat="41.629181000" lon="2.585939100">
        <ele>224.60</ele>
        <time>2012-09-23T11:31:24Z</time>
      </trkpt>
      <trkpt lat="41.628670000" lon="2.586281100">
        <ele>224.10</ele>
        <time>2012-09-23T11:31:31Z</time>
      </trkpt>
      <trkpt lat="41.628349000" lon="2.586380100">
        <ele>223.60</ele>
        <time>2012-09-23T11:31:36Z</time>
      </trkpt>
      <trkpt lat="41.628143000" lon="2.586382100">
        <ele>220.30</ele>
        <time>2012-09-23T11:31:40Z</time>
      </trkpt>
      <trkpt lat="41.627937000" lon="2.586456100">
        <ele>214.00</ele>
        <time>2012-09-23T11:31:42Z</time>
      </trkpt>
      <trkpt lat="41.627834000" lon="2.586525100">
        <ele>209.20</ele>
        <time>2012-09-23T11:31:45Z</time>
      </trkpt>
      <trkpt lat="41.627777000" lon="2.586575100">
        <ele>205.40</ele>
        <time>2012-09-23T11:31:47Z</time>
      </trkpt>
      <trkpt lat="41.627731000" lon="2.586604100">
        <ele>202.00</ele>
        <time>2012-09-23T11:31:49Z</time>
      </trkpt>
      <trkpt lat="41.627647000" lon="2.586672100">
        <ele>200.10</ele>
        <time>2012-09-23T11:31:52Z</time>
      </trkpt>
      <trkpt lat="41.627514000" lon="2.586805100">
        <ele>201.10</ele>
        <time>2012-09-23T11:31:54Z</time>
      </trkpt>
      <trkpt lat="41.627392000" lon="2.587095100">
        <ele>202.00</ele>
        <time>2012-09-23T11:31:59Z</time>
      </trkpt>
      <trkpt lat="41.627354000" lon="2.587255100">
        <ele>200.10</ele>
        <time>2012-09-23T11:32:01Z</time>
      </trkpt>
      <trkpt lat="41.627228000" lon="2.587553100">
        <ele>195.80</ele>
        <time>2012-09-23T11:32:04Z</time>
      </trkpt>
      <trkpt lat="41.627140000" lon="2.587746100">
        <ele>191.00</ele>
        <time>2012-09-23T11:32:06Z</time>
      </trkpt>
      <trkpt lat="41.627098000" lon="2.587833100">
        <ele>188.60</ele>
        <time>2012-09-23T11:32:08Z</time>
      </trkpt>
      <trkpt lat="41.626915000" lon="2.588056100">
        <ele>180.90</ele>
        <time>2012-09-23T11:32:11Z</time>
      </trkpt>
      <trkpt lat="41.626842000" lon="2.588111100">
        <ele>178.90</ele>
        <time>2012-09-23T11:32:11Z</time>
      </trkpt>
      <trkpt lat="41.626587000" lon="2.588391100">
        <ele>175.60</ele>
        <time>2012-09-23T11:32:17Z</time>
      </trkpt>
      <trkpt lat="41.626442000" lon="2.588425100">
        <ele>175.10</ele>
        <time>2012-09-23T11:32:18Z</time>
      </trkpt>
      <trkpt lat="41.626205000" lon="2.588583100">
        <ele>175.10</ele>
        <time>2012-09-23T11:32:22Z</time>
      </trkpt>
      <trkpt lat="41.626072000" lon="2.588614100">
        <ele>174.10</ele>
        <time>2012-09-23T11:32:25Z</time>
      </trkpt>
      <trkpt lat="41.625713000" lon="2.588601100">
        <ele>171.20</ele>
        <time>2012-09-23T11:32:29Z</time>
      </trkpt>
      <trkpt lat="41.625385000" lon="2.588565100">
        <ele>167.90</ele>
        <time>2012-09-23T11:32:34Z</time>
      </trkpt>
      <trkpt lat="41.625072000" lon="2.588517100">
        <ele>165.00</ele>
        <time>2012-09-23T11:32:37Z</time>
      </trkpt>
      <trkpt lat="41.624687000" lon="2.588390100">
        <ele>161.20</ele>
        <time>2012-09-23T11:32:43Z</time>
      </trkpt>
      <trkpt lat="41.624615000" lon="2.588358100">
        <ele>160.20</ele>
        <time>2012-09-23T11:32:43Z</time>
      </trkpt>
      <trkpt lat="41.624416000" lon="2.588322100">
        <ele>154.40</ele>
        <time>2012-09-23T11:32:48Z</time>
      </trkpt>
      <trkpt lat="41.624344000" lon="2.588331100">
        <ele>151.50</ele>
        <time>2012-09-23T11:32:51Z</time>
      </trkpt>
      <trkpt lat="41.624336000" lon="2.588333100">
        <ele>155.40</ele>
        <time>2012-09-23T11:32:58Z</time>
      </trkpt>
      <trkpt lat="41.624233000" lon="2.588391100">
        <ele>157.80</ele>
        <time>2012-09-23T11:33:05Z</time>
      </trkpt>
      <trkpt lat="41.624123000" lon="2.588465100">
        <ele>157.80</ele>
        <time>2012-09-23T11:33:11Z</time>
      </trkpt>
      <trkpt lat="41.624001000" lon="2.588536100">
        <ele>158.30</ele>
        <time>2012-09-23T11:33:18Z</time>
      </trkpt>
      <trkpt lat="41.623859000" lon="2.588614100">
        <ele>159.20</ele>
        <time>2012-09-23T11:33:24Z</time>
      </trkpt>
      <trkpt lat="41.623695000" lon="2.588707100">
        <ele>160.70</ele>
        <time>2012-09-23T11:33:33Z</time>
      </trkpt>
      <trkpt lat="41.623566000" lon="2.588773100">
        <ele>163.60</ele>
        <time>2012-09-23T11:33:38Z</time>
      </trkpt>
      <trkpt lat="41.623489000" lon="2.588817100">
        <ele>166.90</ele>
        <time>2012-09-23T11:33:42Z</time>
      </trkpt>
      <trkpt lat="41.623375000" lon="2.588879100">
        <ele>170.80</ele>
        <time>2012-09-23T11:33:49Z</time>
      </trkpt>
      <trkpt lat="41.623302000" lon="2.588931100">
        <ele>170.30</ele>
        <time>2012-09-23T11:33:52Z</time>
      </trkpt>
      <trkpt lat="41.623180000" lon="2.588948100">
        <ele>170.30</ele>
        <time>2012-09-23T11:34:01Z</time>
      </trkpt>
      <trkpt lat="41.623028000" lon="2.588920100">
        <ele>170.30</ele>
        <time>2012-09-23T11:34:08Z</time>
      </trkpt>
      <trkpt lat="41.622952000" lon="2.588874100">
        <ele>170.30</ele>
        <time>2012-09-23T11:34:10Z</time>
      </trkpt>
      <trkpt lat="41.622795000" lon="2.588785100">
        <ele>168.90</ele>
        <time>2012-09-23T11:34:13Z</time>
      </trkpt>
      <trkpt lat="41.622517000" lon="2.588715100">
        <ele>166.40</ele>
        <time>2012-09-23T11:34:17Z</time>
      </trkpt>
      <trkpt lat="41.622330000" lon="2.588794100">
        <ele>162.10</ele>
        <time>2012-09-23T11:34:22Z</time>
      </trkpt>
      <trkpt lat="41.622173000" lon="2.588801100">
        <ele>157.30</ele>
        <time>2012-09-23T11:34:25Z</time>
      </trkpt>
      <trkpt lat="41.622185000" lon="2.588702100">
        <ele>155.40</ele>
        <time>2012-09-23T11:34:27Z</time>
      </trkpt>
      <trkpt lat="41.622253000" lon="2.588511100">
        <ele>153.90</ele>
        <time>2012-09-23T11:34:31Z</time>
      </trkpt>
      <trkpt lat="41.622265000" lon="2.588131100">
        <ele>152.00</ele>
        <time>2012-09-23T11:34:36Z</time>
      </trkpt>
      <trkpt lat="41.622223000" lon="2.588073100">
        <ele>151.50</ele>
        <time>2012-09-23T11:34:36Z</time>
      </trkpt>
      <trkpt lat="41.621944000" lon="2.587707100">
        <ele>148.20</ele>
        <time>2012-09-23T11:34:43Z</time>
      </trkpt>
      <trkpt lat="41.621658000" lon="2.587427100">
        <ele>144.80</ele>
        <time>2012-09-23T11:34:48Z</time>
      </trkpt>
      <trkpt lat="41.621487000" lon="2.587208100">
        <ele>141.00</ele>
        <time>2012-09-23T11:34:52Z</time>
      </trkpt>
      <trkpt lat="41.621330000" lon="2.586907100">
        <ele>136.60</ele>
        <time>2012-09-23T11:34:57Z</time>
      </trkpt>
      <trkpt lat="41.621391000" lon="2.586681100">
        <ele>133.80</ele>
        <time>2012-09-23T11:35:00Z</time>
      </trkpt>
      <trkpt lat="41.621582000" lon="2.586328100">
        <ele>131.40</ele>
        <time>2012-09-23T11:35:06Z</time>
      </trkpt>
      <trkpt lat="41.621624000" lon="2.586209100">
        <ele>130.90</ele>
        <time>2012-09-23T11:35:07Z</time>
      </trkpt>
      <trkpt lat="41.621738000" lon="2.586103100">
        <ele>131.40</ele>
        <time>2012-09-23T11:35:11Z</time>
      </trkpt>
      <trkpt lat="41.621723000" lon="2.586029100">
        <ele>130.90</ele>
        <time>2012-09-23T11:35:14Z</time>
      </trkpt>
      <trkpt lat="41.621601000" lon="2.586095100">
        <ele>128.90</ele>
        <time>2012-09-23T11:35:18Z</time>
      </trkpt>
      <trkpt lat="41.621567000" lon="2.586129100">
        <ele>128.00</ele>
        <time>2012-09-23T11:35:19Z</time>
      </trkpt>
      <trkpt lat="41.621460000" lon="2.586239100">
        <ele>124.60</ele>
        <time>2012-09-23T11:35:23Z</time>
      </trkpt>
      <trkpt lat="41.621326000" lon="2.586340100">
        <ele>119.80</ele>
        <time>2012-09-23T11:35:25Z</time>
      </trkpt>
      <trkpt lat="41.621223000" lon="2.586406100">
        <ele>116.90</ele>
        <time>2012-09-23T11:35:28Z</time>
      </trkpt>
      <trkpt lat="41.621078000" lon="2.586503100">
        <ele>112.10</ele>
        <time>2012-09-23T11:35:30Z</time>
      </trkpt>
      <trkpt lat="41.620998000" lon="2.586568100">
        <ele>109.70</ele>
        <time>2012-09-23T11:35:33Z</time>
      </trkpt>
      <trkpt lat="41.620766000" lon="2.586670100">
        <ele>105.40</ele>
        <time>2012-09-23T11:35:37Z</time>
      </trkpt>
      <trkpt lat="41.620724000" lon="2.586746100">
        <ele>103.00</ele>
        <time>2012-09-23T11:35:40Z</time>
      </trkpt>
      <trkpt lat="41.620701000" lon="2.587009100">
        <ele>99.20</ele>
        <time>2012-09-23T11:35:44Z</time>
      </trkpt>
      <trkpt lat="41.620628000" lon="2.587125100">
        <ele>95.30</ele>
        <time>2012-09-23T11:35:47Z</time>
      </trkpt>
      <trkpt lat="41.620548000" lon="2.587075100">
        <ele>93.90</ele>
        <time>2012-09-23T11:35:51Z</time>
      </trkpt>
      <trkpt lat="41.620354000" lon="2.586859100">
        <ele>90.00</ele>
        <time>2012-09-23T11:35:58Z</time>
      </trkpt>
      <trkpt lat="41.620358000" lon="2.586694100">
        <ele>87.10</ele>
        <time>2012-09-23T11:36:01Z</time>
      </trkpt>
      <trkpt lat="41.620438000" lon="2.586502100">
        <ele>83.80</ele>
        <time>2012-09-23T11:36:05Z</time>
      </trkpt>
      <trkpt lat="41.620590000" lon="2.586280100">
        <ele>83.80</ele>
        <time>2012-09-23T11:36:12Z</time>
      </trkpt>
      <trkpt lat="41.620682000" lon="2.586101100">
        <ele>84.70</ele>
        <time>2012-09-23T11:36:17Z</time>
      </trkpt>
      <trkpt lat="41.620819000" lon="2.585881100">
        <ele>85.20</ele>
        <time>2012-09-23T11:36:24Z</time>
      </trkpt>
      <trkpt lat="41.620953000" lon="2.585687100">
        <ele>85.20</ele>
        <time>2012-09-23T11:36:31Z</time>
      </trkpt>
      <trkpt lat="41.621082000" lon="2.585495100">
        <ele>85.20</ele>
        <time>2012-09-23T11:36:38Z</time>
      </trkpt>
      <trkpt lat="41.621216000" lon="2.585273100">
        <ele>85.70</ele>
        <time>2012-09-23T11:36:45Z</time>
      </trkpt>
      <trkpt lat="41.621334000" lon="2.585109100">
        <ele>85.70</ele>
        <time>2012-09-23T11:36:50Z</time>
      </trkpt>
      <trkpt lat="41.621487000" lon="2.584891100">
        <ele>86.20</ele>
        <time>2012-09-23T11:36:57Z</time>
      </trkpt>
      <trkpt lat="41.621540000" lon="2.584753100">
        <ele>86.70</ele>
        <time>2012-09-23T11:37:04Z</time>
      </trkpt>
      <trkpt lat="41.621544000" lon="2.584731100">
        <ele>86.70</ele>
        <time>2012-09-23T11:37:11Z</time>
      </trkpt>
      <trkpt lat="41.621540000" lon="2.584713100">
        <ele>87.10</ele>
        <time>2012-09-23T11:37:32Z</time>
      </trkpt>
      <trkpt lat="41.621548000" lon="2.584704100">
        <ele>87.10</ele>
        <time>2012-09-23T11:37:42Z</time>
      </trkpt>
      <trkpt lat="41.621544000" lon="2.584638100">
        <ele>87.10</ele>
        <time>2012-09-23T11:37:56Z</time>
      </trkpt>
      <trkpt lat="41.621529000" lon="2.584536100">
        <ele>87.60</ele>
        <time>2012-09-23T11:38:01Z</time>
      </trkpt>
      <trkpt lat="41.621574000" lon="2.584433100">
        <ele>88.10</ele>
        <time>2012-09-23T11:38:19Z</time>
      </trkpt>
      <trkpt lat="41.621655000" lon="2.584297100">
        <ele>88.10</ele>
        <time>2012-09-23T11:38:22Z</time>
      </trkpt>
      <trkpt lat="41.621895000" lon="2.584156100">
        <ele>87.60</ele>
        <time>2012-09-23T11:38:29Z</time>
      </trkpt>
      <trkpt lat="41.622261000" lon="2.584090100">
        <ele>87.60</ele>
        <time>2012-09-23T11:38:40Z</time>
      </trkpt>
      <trkpt lat="41.622578000" lon="2.583957100">
        <ele>88.10</ele>
        <time>2012-09-23T11:38:48Z</time>
      </trkpt>
      <trkpt lat="41.622730000" lon="2.583783100">
        <ele>88.60</ele>
        <time>2012-09-23T11:38:54Z</time>
      </trkpt>
      <trkpt lat="41.622795000" lon="2.583527100">
        <ele>89.10</ele>
        <time>2012-09-23T11:39:01Z</time>
      </trkpt>
      <trkpt lat="41.622723000" lon="2.583236100">
        <ele>89.50</ele>
        <time>2012-09-23T11:39:09Z</time>
      </trkpt>
      <trkpt lat="41.622551000" lon="2.582902100">
        <ele>90.50</ele>
        <time>2012-09-23T11:39:18Z</time>
      </trkpt>
      <trkpt lat="41.622421000" lon="2.582745100">
        <ele>91.50</ele>
        <time>2012-09-23T11:39:23Z</time>
      </trkpt>
      <trkpt lat="41.622215000" lon="2.582631100">
        <ele>91.50</ele>
        <time>2012-09-23T11:39:30Z</time>
      </trkpt>
      <trkpt lat="41.621918000" lon="2.582438100">
        <ele>91.90</ele>
        <time>2012-09-23T11:39:37Z</time>
      </trkpt>
      <trkpt lat="41.621681000" lon="2.582222100">
        <ele>92.40</ele>
        <time>2012-09-23T11:39:44Z</time>
      </trkpt>
      <trkpt lat="41.621616000" lon="2.582152100">
        <ele>92.40</ele>
        <time>2012-09-23T11:39:46Z</time>
      </trkpt>
      <trkpt lat="41.621307000" lon="2.581668100">
        <ele>93.40</ele>
        <time>2012-09-23T11:39:58Z</time>
      </trkpt>
      <trkpt lat="41.621193000" lon="2.581281100">
        <ele>94.80</ele>
        <time>2012-09-23T11:40:07Z</time>
      </trkpt>
      <trkpt lat="41.621136000" lon="2.581001100">
        <ele>95.30</ele>
        <time>2012-09-23T11:40:12Z</time>
      </trkpt>
      <trkpt lat="41.621078000" lon="2.580560100">
        <ele>96.30</ele>
        <time>2012-09-23T11:40:21Z</time>
      </trkpt>
      <trkpt lat="41.621162000" lon="2.580158100">
        <ele>96.80</ele>
        <time>2012-09-23T11:40:28Z</time>
      </trkpt>
      <trkpt lat="41.621201000" lon="2.580113100">
        <ele>97.20</ele>
        <time>2012-09-23T11:40:28Z</time>
      </trkpt>
      <trkpt lat="41.621521000" lon="2.579905100">
        <ele>98.20</ele>
        <time>2012-09-23T11:40:38Z</time>
      </trkpt>
      <trkpt lat="41.621742000" lon="2.579762100">
        <ele>99.20</ele>
        <time>2012-09-23T11:40:43Z</time>
      </trkpt>
      <trkpt lat="41.621952000" lon="2.579432100">
        <ele>100.60</ele>
        <time>2012-09-23T11:40:52Z</time>
      </trkpt>
      <trkpt lat="41.622013000" lon="2.579044100">
        <ele>101.10</ele>
        <time>2012-09-23T11:40:59Z</time>
      </trkpt>
      <trkpt lat="41.622044000" lon="2.578630100">
        <ele>101.60</ele>
        <time>2012-09-23T11:41:08Z</time>
      </trkpt>
      <trkpt lat="41.622063000" lon="2.578193100">
        <ele>101.60</ele>
        <time>2012-09-23T11:41:17Z</time>
      </trkpt>
      <trkpt lat="41.622044000" lon="2.577784100">
        <ele>102.00</ele>
        <time>2012-09-23T11:41:25Z</time>
      </trkpt>
      <trkpt lat="41.621937000" lon="2.577404100">
        <ele>102.50</ele>
        <time>2012-09-23T11:41:32Z</time>
      </trkpt>
      <trkpt lat="41.621666000" lon="2.577040100">
        <ele>103.50</ele>
        <time>2012-09-23T11:41:43Z</time>
      </trkpt>
      <trkpt lat="41.621506000" lon="2.576747100">
        <ele>104.90</ele>
        <time>2012-09-23T11:41:50Z</time>
      </trkpt>
      <trkpt lat="41.621479000" lon="2.576436100">
        <ele>105.90</ele>
        <time>2012-09-23T11:41:55Z</time>
      </trkpt>
      <trkpt lat="41.621445000" lon="2.575978100">
        <ele>107.30</ele>
        <time>2012-09-23T11:42:05Z</time>
      </trkpt>
      <trkpt lat="41.621468000" lon="2.575767100">
        <ele>108.30</ele>
        <time>2012-09-23T11:42:09Z</time>
      </trkpt>
      <trkpt lat="41.621670000" lon="2.575471100">
        <ele>108.80</ele>
        <time>2012-09-23T11:42:16Z</time>
      </trkpt>
      <trkpt lat="41.621906000" lon="2.575234100">
        <ele>109.70</ele>
        <time>2012-09-23T11:42:23Z</time>
      </trkpt>
      <trkpt lat="41.622238000" lon="2.574830100">
        <ele>111.70</ele>
        <time>2012-09-23T11:42:33Z</time>
      </trkpt>
      <trkpt lat="41.622345000" lon="2.574440100">
        <ele>112.10</ele>
        <time>2012-09-23T11:42:42Z</time>
      </trkpt>
      <trkpt lat="41.622280000" lon="2.574136100">
        <ele>112.60</ele>
        <time>2012-09-23T11:42:47Z</time>
      </trkpt>
      <trkpt lat="41.622200000" lon="2.573939100">
        <ele>112.60</ele>
        <time>2012-09-23T11:42:52Z</time>
      </trkpt>
      <trkpt lat="41.622082000" lon="2.573786100">
        <ele>113.10</ele>
        <time>2012-09-23T11:42:56Z</time>
      </trkpt>
      <trkpt lat="41.621788000" lon="2.573571100">
        <ele>112.60</ele>
        <time>2012-09-23T11:43:03Z</time>
      </trkpt>
      <trkpt lat="41.621677000" lon="2.573497100">
        <ele>113.60</ele>
        <time>2012-09-23T11:43:06Z</time>
      </trkpt>
      <trkpt lat="41.621578000" lon="2.573391100">
        <ele>113.10</ele>
        <time>2012-09-23T11:43:10Z</time>
      </trkpt>
      <trkpt lat="41.621479000" lon="2.573177100">
        <ele>113.10</ele>
        <time>2012-09-23T11:43:13Z</time>
      </trkpt>
      <trkpt lat="41.621399000" lon="2.572768100">
        <ele>113.60</ele>
        <time>2012-09-23T11:43:20Z</time>
      </trkpt>
      <trkpt lat="41.621254000" lon="2.572335100">
        <ele>113.60</ele>
        <time>2012-09-23T11:43:27Z</time>
      </trkpt>
      <trkpt lat="41.621239000" lon="2.571932100">
        <ele>114.10</ele>
        <time>2012-09-23T11:43:34Z</time>
      </trkpt>
      <trkpt lat="41.621254000" lon="2.571873100">
        <ele>114.10</ele>
        <time>2012-09-23T11:43:34Z</time>
      </trkpt>
      <trkpt lat="41.621300000" lon="2.571713100">
        <ele>114.10</ele>
        <time>2012-09-23T11:43:38Z</time>
      </trkpt>
      <trkpt lat="41.621399000" lon="2.571469100">
        <ele>115.50</ele>
        <time>2012-09-23T11:43:43Z</time>
      </trkpt>
      <trkpt lat="41.621651000" lon="2.570967100">
        <ele>116.00</ele>
        <time>2012-09-23T11:43:53Z</time>
      </trkpt>
      <trkpt lat="41.621853000" lon="2.570626100">
        <ele>117.90</ele>
        <time>2012-09-23T11:44:00Z</time>
      </trkpt>
      <trkpt lat="41.622097000" lon="2.570388100">
        <ele>118.90</ele>
        <time>2012-09-23T11:44:09Z</time>
      </trkpt>
      <trkpt lat="41.622295000" lon="2.570441100">
        <ele>119.30</ele>
        <time>2012-09-23T11:44:14Z</time>
      </trkpt>
      <trkpt lat="41.622520000" lon="2.570546100">
        <ele>120.30</ele>
        <time>2012-09-23T11:44:19Z</time>
      </trkpt>
      <trkpt lat="41.622845000" lon="2.570503100">
        <ele>121.70</ele>
        <time>2012-09-23T11:44:28Z</time>
      </trkpt>
      <trkpt lat="41.622879000" lon="2.570501100">
        <ele>121.70</ele>
        <time>2012-09-23T11:44:28Z</time>
      </trkpt>
      <trkpt lat="41.622971000" lon="2.570479100">
        <ele>122.20</ele>
        <time>2012-09-23T11:44:30Z</time>
      </trkpt>
      <trkpt lat="41.623432000" lon="2.570389100">
        <ele>123.20</ele>
        <time>2012-09-23T11:44:42Z</time>
      </trkpt>
      <trkpt lat="41.623764000" lon="2.570327100">
        <ele>123.70</ele>
        <time>2012-09-23T11:44:49Z</time>
      </trkpt>
      <trkpt lat="41.624187000" lon="2.570264100">
        <ele>123.70</ele>
        <time>2012-09-23T11:45:00Z</time>
      </trkpt>
      <trkpt lat="41.624439000" lon="2.570173100">
        <ele>123.70</ele>
        <time>2012-09-23T11:45:05Z</time>
      </trkpt>
      <trkpt lat="41.624561000" lon="2.569966100">
        <ele>124.20</ele>
        <time>2012-09-23T11:45:10Z</time>
      </trkpt>
      <trkpt lat="41.624542000" lon="2.569818100">
        <ele>124.20</ele>
        <time>2012-09-23T11:45:13Z</time>
      </trkpt>
      <trkpt lat="41.624481000" lon="2.569445100">
        <ele>125.10</ele>
        <time>2012-09-23T11:45:22Z</time>
      </trkpt>
      <trkpt lat="41.624428000" lon="2.569099100">
        <ele>126.60</ele>
        <time>2012-09-23T11:45:29Z</time>
      </trkpt>
      <trkpt lat="41.624420000" lon="2.568805100">
        <ele>128.00</ele>
        <time>2012-09-23T11:45:36Z</time>
      </trkpt>
      <trkpt lat="41.624504000" lon="2.568575100">
        <ele>128.90</ele>
        <time>2012-09-23T11:45:43Z</time>
      </trkpt>
      <trkpt lat="41.624649000" lon="2.568341100">
        <ele>130.90</ele>
        <time>2012-09-23T11:45:52Z</time>
      </trkpt>
      <trkpt lat="41.624775000" lon="2.568021100">
        <ele>130.90</ele>
        <time>2012-09-23T11:45:59Z</time>
      </trkpt>
      <trkpt lat="41.624863000" lon="2.567715100">
        <ele>130.90</ele>
        <time>2012-09-23T11:46:06Z</time>
      </trkpt>
      <trkpt lat="41.624935000" lon="2.567255100">
        <ele>130.90</ele>
        <time>2012-09-23T11:46:13Z</time>
      </trkpt>
      <trkpt lat="41.624878000" lon="2.566594100">
        <ele>128.90</ele>
        <time>2012-09-23T11:46:21Z</time>
      </trkpt>
      <trkpt lat="41.624870000" lon="2.566510100">
        <ele>128.90</ele>
        <time>2012-09-23T11:46:23Z</time>
      </trkpt>
      <trkpt lat="41.624870000" lon="2.566351100">
        <ele>128.90</ele>
        <time>2012-09-23T11:46:25Z</time>
      </trkpt>
      <trkpt lat="41.625027000" lon="2.565767100">
        <ele>127.50</ele>
        <time>2012-09-23T11:46:34Z</time>
      </trkpt>
      <trkpt lat="41.625198000" lon="2.565323100">
        <ele>127.50</ele>
        <time>2012-09-23T11:46:42Z</time>
      </trkpt>
      <trkpt lat="41.625347000" lon="2.564915100">
        <ele>128.50</ele>
        <time>2012-09-23T11:46:51Z</time>
      </trkpt>
      <trkpt lat="41.625446000" lon="2.564589100">
        <ele>129.40</ele>
        <time>2012-09-23T11:46:58Z</time>
      </trkpt>
      <trkpt lat="41.625465000" lon="2.564277100">
        <ele>129.90</ele>
        <time>2012-09-23T11:47:05Z</time>
      </trkpt>
      <trkpt lat="41.625519000" lon="2.563854100">
        <ele>130.40</ele>
        <time>2012-09-23T11:47:12Z</time>
      </trkpt>
      <trkpt lat="41.625557000" lon="2.563754100">
        <ele>130.90</ele>
        <time>2012-09-23T11:47:14Z</time>
      </trkpt>
      <trkpt lat="41.625725000" lon="2.563396100">
        <ele>131.80</ele>
        <time>2012-09-23T11:47:22Z</time>
      </trkpt>
      <trkpt lat="41.625744000" lon="2.563352100">
        <ele>131.80</ele>
        <time>2012-09-23T11:47:24Z</time>
      </trkpt>
      <trkpt lat="41.625801000" lon="2.563196100">
        <ele>131.80</ele>
        <time>2012-09-23T11:47:26Z</time>
      </trkpt>
      <trkpt lat="41.625816000" lon="2.563026100">
        <ele>131.80</ele>
        <time>2012-09-23T11:47:29Z</time>
      </trkpt>
      <trkpt lat="41.625668000" lon="2.562788100">
        <ele>132.30</ele>
        <time>2012-09-23T11:47:35Z</time>
      </trkpt>
      <trkpt lat="41.625278000" lon="2.562564100">
        <ele>132.80</ele>
        <time>2012-09-23T11:47:43Z</time>
      </trkpt>
      <trkpt lat="41.625088000" lon="2.562348100">
        <ele>132.80</ele>
        <time>2012-09-23T11:47:50Z</time>
      </trkpt>
      <trkpt lat="41.624985000" lon="2.562160100">
        <ele>133.30</ele>
        <time>2012-09-23T11:47:54Z</time>
      </trkpt>
      <trkpt lat="41.624908000" lon="2.561895100">
        <ele>134.20</ele>
        <time>2012-09-23T11:47:59Z</time>
      </trkpt>
      <trkpt lat="41.624992000" lon="2.561572100">
        <ele>135.70</ele>
        <time>2012-09-23T11:48:06Z</time>
      </trkpt>
      <trkpt lat="41.625042000" lon="2.561270100">
        <ele>136.60</ele>
        <time>2012-09-23T11:48:13Z</time>
      </trkpt>
      <trkpt lat="41.624958000" lon="2.560875100">
        <ele>139.10</ele>
        <time>2012-09-23T11:48:23Z</time>
      </trkpt>
      <trkpt lat="41.624790000" lon="2.560644100">
        <ele>139.50</ele>
        <time>2012-09-23T11:48:29Z</time>
      </trkpt>
      <trkpt lat="41.624603000" lon="2.560381100">
        <ele>141.00</ele>
        <time>2012-09-23T11:48:36Z</time>
      </trkpt>
      <trkpt lat="41.624416000" lon="2.560008100">
        <ele>142.90</ele>
        <time>2012-09-23T11:48:44Z</time>
      </trkpt>
      <trkpt lat="41.624283000" lon="2.559632100">
        <ele>143.90</ele>
        <time>2012-09-23T11:48:53Z</time>
      </trkpt>
      <trkpt lat="41.624088000" lon="2.559253100">
        <ele>145.30</ele>
        <time>2012-09-23T11:49:02Z</time>
      </trkpt>
      <trkpt lat="41.623943000" lon="2.558935100">
        <ele>145.30</ele>
        <time>2012-09-23T11:49:10Z</time>
      </trkpt>
      <trkpt lat="41.623840000" lon="2.558720100">
        <ele>145.30</ele>
        <time>2012-09-23T11:49:14Z</time>
      </trkpt>
      <trkpt lat="41.623737000" lon="2.558271100">
        <ele>145.30</ele>
        <time>2012-09-23T11:49:21Z</time>
      </trkpt>
      <trkpt lat="41.623573000" lon="2.557955100">
        <ele>145.30</ele>
        <time>2012-09-23T11:49:26Z</time>
      </trkpt>
      <trkpt lat="41.623360000" lon="2.557647100">
        <ele>145.30</ele>
        <time>2012-09-23T11:49:33Z</time>
      </trkpt>
      <trkpt lat="41.623390000" lon="2.557419100">
        <ele>145.30</ele>
        <time>2012-09-23T11:49:38Z</time>
      </trkpt>
      <trkpt lat="41.623573000" lon="2.557154100">
        <ele>145.80</ele>
        <time>2012-09-23T11:49:45Z</time>
      </trkpt>
      <trkpt lat="41.623684000" lon="2.556960100">
        <ele>146.30</ele>
        <time>2012-09-23T11:49:50Z</time>
      </trkpt>
      <trkpt lat="41.623692000" lon="2.556906100">
        <ele>146.30</ele>
        <time>2012-09-23T11:49:52Z</time>
      </trkpt>
      <trkpt lat="41.623569000" lon="2.556161100">
        <ele>146.30</ele>
        <time>2012-09-23T11:50:04Z</time>
      </trkpt>
      <trkpt lat="41.623550000" lon="2.555995100">
        <ele>146.30</ele>
        <time>2012-09-23T11:50:06Z</time>
      </trkpt>
      <trkpt lat="41.623497000" lon="2.555512100">
        <ele>146.70</ele>
        <time>2012-09-23T11:50:15Z</time>
      </trkpt>
      <trkpt lat="41.623337000" lon="2.555296100">
        <ele>148.20</ele>
        <time>2012-09-23T11:50:22Z</time>
      </trkpt>
      <trkpt lat="41.623119000" lon="2.555219100">
        <ele>149.10</ele>
        <time>2012-09-23T11:50:27Z</time>
      </trkpt>
      <trkpt lat="41.622852000" lon="2.555167100">
        <ele>150.10</ele>
        <time>2012-09-23T11:50:34Z</time>
      </trkpt>
      <trkpt lat="41.622772000" lon="2.555126100">
        <ele>151.10</ele>
        <time>2012-09-23T11:50:36Z</time>
      </trkpt>
      <trkpt lat="41.622482000" lon="2.554900100">
        <ele>152.00</ele>
        <time>2012-09-23T11:50:44Z</time>
      </trkpt>
      <trkpt lat="41.622375000" lon="2.554819100">
        <ele>152.50</ele>
        <time>2012-09-23T11:50:48Z</time>
      </trkpt>
      <trkpt lat="41.622135000" lon="2.554523100">
        <ele>153.00</ele>
        <time>2012-09-23T11:50:55Z</time>
      </trkpt>
      <trkpt lat="41.621983000" lon="2.554192100">
        <ele>154.40</ele>
        <time>2012-09-23T11:51:04Z</time>
      </trkpt>
      <trkpt lat="41.621796000" lon="2.553886100">
        <ele>155.90</ele>
        <time>2012-09-23T11:51:12Z</time>
      </trkpt>
      <trkpt lat="41.621613000" lon="2.553578100">
        <ele>157.30</ele>
        <time>2012-09-23T11:51:19Z</time>
      </trkpt>
      <trkpt lat="41.621471000" lon="2.553240100">
        <ele>158.80</ele>
        <time>2012-09-23T11:51:28Z</time>
      </trkpt>
      <trkpt lat="41.621353000" lon="2.552812100">
        <ele>160.20</ele>
        <time>2012-09-23T11:51:37Z</time>
      </trkpt>
      <trkpt lat="41.621292000" lon="2.552236100">
        <ele>160.70</ele>
        <time>2012-09-23T11:51:47Z</time>
      </trkpt>
      <trkpt lat="41.621189000" lon="2.551818100">
        <ele>161.60</ele>
        <time>2012-09-23T11:51:56Z</time>
      </trkpt>
      <trkpt lat="41.620987000" lon="2.551546100">
        <ele>162.60</ele>
        <time>2012-09-23T11:52:03Z</time>
      </trkpt>
      <trkpt lat="41.620853000" lon="2.551243100">
        <ele>164.00</ele>
        <time>2012-09-23T11:52:10Z</time>
      </trkpt>
      <trkpt lat="41.620819000" lon="2.550858100">
        <ele>166.90</ele>
        <time>2012-09-23T11:52:18Z</time>
      </trkpt>
      <trkpt lat="41.620773000" lon="2.550597100">
        <ele>170.30</ele>
        <time>2012-09-23T11:52:24Z</time>
      </trkpt>
      <trkpt lat="41.620640000" lon="2.550099100">
        <ele>170.80</ele>
        <time>2012-09-23T11:52:31Z</time>
      </trkpt>
      <trkpt lat="41.620472000" lon="2.549639100">
        <ele>169.30</ele>
        <time>2012-09-23T11:52:39Z</time>
      </trkpt>
      <trkpt lat="41.620308000" lon="2.549287100">
        <ele>169.30</ele>
        <time>2012-09-23T11:52:48Z</time>
      </trkpt>
      <trkpt lat="41.620148000" lon="2.549037100">
        <ele>169.30</ele>
        <time>2012-09-23T11:52:55Z</time>
      </trkpt>
      <trkpt lat="41.619896000" lon="2.548767100">
        <ele>170.30</ele>
        <time>2012-09-23T11:53:04Z</time>
      </trkpt>
      <trkpt lat="41.619648000" lon="2.548513100">
        <ele>172.20</ele>
        <time>2012-09-23T11:53:12Z</time>
      </trkpt>
      <trkpt lat="41.619419000" lon="2.548183100">
        <ele>174.10</ele>
        <time>2012-09-23T11:53:23Z</time>
      </trkpt>
      <trkpt lat="41.619377000" lon="2.547904100">
        <ele>175.60</ele>
        <time>2012-09-23T11:53:28Z</time>
      </trkpt>
      <trkpt lat="41.619442000" lon="2.547456100">
        <ele>176.50</ele>
        <time>2012-09-23T11:53:37Z</time>
      </trkpt>
      <trkpt lat="41.619370000" lon="2.547073100">
        <ele>177.50</ele>
        <time>2012-09-23T11:53:46Z</time>
      </trkpt>
      <trkpt lat="41.619286000" lon="2.546696100">
        <ele>178.50</ele>
        <time>2012-09-23T11:53:54Z</time>
      </trkpt>
      <trkpt lat="41.619316000" lon="2.546386100">
        <ele>179.90</ele>
        <time>2012-09-23T11:54:01Z</time>
      </trkpt>
      <trkpt lat="41.619358000" lon="2.546077100">
        <ele>180.90</ele>
        <time>2012-09-23T11:54:08Z</time>
      </trkpt>
      <trkpt lat="41.619354000" lon="2.545759100">
        <ele>182.30</ele>
        <time>2012-09-23T11:54:15Z</time>
      </trkpt>
      <trkpt lat="41.619396000" lon="2.545360100">
        <ele>183.80</ele>
        <time>2012-09-23T11:54:24Z</time>
      </trkpt>
      <trkpt lat="41.619431000" lon="2.545021100">
        <ele>185.70</ele>
        <time>2012-09-23T11:54:33Z</time>
      </trkpt>
      <trkpt lat="41.619453000" lon="2.544716100">
        <ele>187.10</ele>
        <time>2012-09-23T11:54:41Z</time>
      </trkpt>
      <trkpt lat="41.619534000" lon="2.544494100">
        <ele>188.60</ele>
        <time>2012-09-23T11:54:48Z</time>
      </trkpt>
      <trkpt lat="41.619606000" lon="2.544328100">
        <ele>191.90</ele>
        <time>2012-09-23T11:54:52Z</time>
      </trkpt>
      <trkpt lat="41.619720000" lon="2.544046100">
        <ele>194.30</ele>
        <time>2012-09-23T11:55:00Z</time>
      </trkpt>
      <trkpt lat="41.619843000" lon="2.543753100">
        <ele>194.30</ele>
        <time>2012-09-23T11:55:09Z</time>
      </trkpt>
      <trkpt lat="41.619904000" lon="2.543526100">
        <ele>195.30</ele>
        <time>2012-09-23T11:55:16Z</time>
      </trkpt>
      <trkpt lat="41.619888000" lon="2.543309100">
        <ele>196.20</ele>
        <time>2012-09-23T11:55:23Z</time>
      </trkpt>
      <trkpt lat="41.619701000" lon="2.542990100">
        <ele>198.60</ele>
        <time>2012-09-23T11:55:35Z</time>
      </trkpt>
      <trkpt lat="41.619499000" lon="2.542744100">
        <ele>200.10</ele>
        <time>2012-09-23T11:55:46Z</time>
      </trkpt>
      <trkpt lat="41.619316000" lon="2.542699100">
        <ele>200.60</ele>
        <time>2012-09-23T11:55:53Z</time>
      </trkpt>
      <trkpt lat="41.619110000" lon="2.542710100">
        <ele>200.60</ele>
        <time>2012-09-23T11:55:58Z</time>
      </trkpt>
      <trkpt lat="41.618851000" lon="2.542560100">
        <ele>200.60</ele>
        <time>2012-09-23T11:56:03Z</time>
      </trkpt>
      <trkpt lat="41.618565000" lon="2.542264100">
        <ele>199.10</ele>
        <time>2012-09-23T11:56:08Z</time>
      </trkpt>
      <trkpt lat="41.618458000" lon="2.542113100">
        <ele>199.10</ele>
        <time>2012-09-23T11:56:10Z</time>
      </trkpt>
      <trkpt lat="41.618271000" lon="2.541746100">
        <ele>193.80</ele>
        <time>2012-09-23T11:56:14Z</time>
      </trkpt>
      <trkpt lat="41.618191000" lon="2.541547100">
        <ele>191.00</ele>
        <time>2012-09-23T11:56:17Z</time>
      </trkpt>
      <trkpt lat="41.618080000" lon="2.541259100">
        <ele>186.60</ele>
        <time>2012-09-23T11:56:19Z</time>
      </trkpt>
      <trkpt lat="41.618042000" lon="2.541159100">
        <ele>185.70</ele>
        <time>2012-09-23T11:56:21Z</time>
      </trkpt>
      <trkpt lat="41.618008000" lon="2.540831100">
        <ele>184.20</ele>
        <time>2012-09-23T11:56:24Z</time>
      </trkpt>
      <trkpt lat="41.618122000" lon="2.540540100">
        <ele>183.80</ele>
        <time>2012-09-23T11:56:26Z</time>
      </trkpt>
      <trkpt lat="41.618137000" lon="2.540357100">
        <ele>183.80</ele>
        <time>2012-09-23T11:56:29Z</time>
      </trkpt>
      <trkpt lat="41.618130000" lon="2.540092100">
        <ele>183.30</ele>
        <time>2012-09-23T11:56:33Z</time>
      </trkpt>
      <trkpt lat="41.618023000" lon="2.540022100">
        <ele>182.30</ele>
        <time>2012-09-23T11:56:38Z</time>
      </trkpt>
      <trkpt lat="41.617908000" lon="2.540090100">
        <ele>181.80</ele>
        <time>2012-09-23T11:56:42Z</time>
      </trkpt>
      <trkpt lat="41.617912000" lon="2.540096100">
        <ele>180.90</ele>
        <time>2012-09-23T11:56:47Z</time>
      </trkpt>
      <trkpt lat="41.617912000" lon="2.540096100">
        <ele>180.90</ele>
        <time>2012-09-23T11:57:20Z</time>
      </trkpt>
      <trkpt lat="41.617874000" lon="2.540267100">
        <ele>178.90</ele>
        <time>2012-09-23T11:57:25Z</time>
      </trkpt>
      <trkpt lat="41.617718000" lon="2.540695100">
        <ele>178.00</ele>
        <time>2012-09-23T11:57:32Z</time>
      </trkpt>
      <trkpt lat="41.617493000" lon="2.541251100">
        <ele>173.70</ele>
        <time>2012-09-23T11:57:37Z</time>
      </trkpt>
      <trkpt lat="41.617435000" lon="2.541378100">
        <ele>172.70</ele>
        <time>2012-09-23T11:57:37Z</time>
      </trkpt>
      <trkpt lat="41.617111000" lon="2.541792100">
        <ele>168.40</ele>
        <time>2012-09-23T11:57:41Z</time>
      </trkpt>
      <trkpt lat="41.617023000" lon="2.541882100">
        <ele>167.40</ele>
        <time>2012-09-23T11:57:42Z</time>
      </trkpt>
      <trkpt lat="41.616615000" lon="2.542084100">
        <ele>166.90</ele>
        <time>2012-09-23T11:57:46Z</time>
      </trkpt>
      <trkpt lat="41.616299000" lon="2.541964100">
        <ele>166.90</ele>
        <time>2012-09-23T11:57:49Z</time>
      </trkpt>
      <trkpt lat="41.615570000" lon="2.541458100">
        <ele>166.00</ele>
        <time>2012-09-23T11:57:56Z</time>
      </trkpt>
      <trkpt lat="41.615089000" lon="2.541281100">
        <ele>161.20</ele>
        <time>2012-09-23T11:58:00Z</time>
      </trkpt>
      <trkpt lat="41.614769000" lon="2.541204100">
        <ele>156.40</ele>
        <time>2012-09-23T11:58:03Z</time>
      </trkpt>
      <trkpt lat="41.614300000" lon="2.541076100">
        <ele>153.50</ele>
        <time>2012-09-23T11:58:07Z</time>
      </trkpt>
      <trkpt lat="41.613384000" lon="2.540878100">
        <ele>151.10</ele>
        <time>2012-09-23T11:58:16Z</time>
      </trkpt>
      <trkpt lat="41.612808000" lon="2.540838100">
        <ele>147.20</ele>
        <time>2012-09-23T11:58:21Z</time>
      </trkpt>
      <trkpt lat="41.612465000" lon="2.540827100">
        <ele>143.90</ele>
        <time>2012-09-23T11:58:24Z</time>
      </trkpt>
      <trkpt lat="41.612171000" lon="2.540820100">
        <ele>140.00</ele>
        <time>2012-09-23T11:58:26Z</time>
      </trkpt>
      <trkpt lat="41.611763000" lon="2.540820100">
        <ele>138.60</ele>
        <time>2012-09-23T11:58:31Z</time>
      </trkpt>
      <trkpt lat="41.611248000" lon="2.540959100">
        <ele>137.60</ele>
        <time>2012-09-23T11:58:38Z</time>
      </trkpt>
      <trkpt lat="41.610638000" lon="2.541189100">
        <ele>136.60</ele>
        <time>2012-09-23T11:58:45Z</time>
      </trkpt>
      <trkpt lat="41.610401000" lon="2.541279100">
        <ele>132.80</ele>
        <time>2012-09-23T11:58:50Z</time>
      </trkpt>
      <trkpt lat="41.610252000" lon="2.541342100">
        <ele>129.90</ele>
        <time>2012-09-23T11:58:54Z</time>
      </trkpt>
      <trkpt lat="41.610130000" lon="2.541374100">
        <ele>128.90</ele>
        <time>2012-09-23T11:58:56Z</time>
      </trkpt>
      <trkpt lat="41.609756000" lon="2.541356100">
        <ele>129.40</ele>
        <time>2012-09-23T11:59:01Z</time>
      </trkpt>
      <trkpt lat="41.608929000" lon="2.541465100">
        <ele>128.90</ele>
        <time>2012-09-23T11:59:10Z</time>
      </trkpt>
      <trkpt lat="41.608757000" lon="2.541465100">
        <ele>128.50</ele>
        <time>2012-09-23T11:59:11Z</time>
      </trkpt>
      <trkpt lat="41.608444000" lon="2.541262100">
        <ele>128.00</ele>
        <time>2012-09-23T11:59:15Z</time>
      </trkpt>
      <trkpt lat="41.608120000" lon="2.541066100">
        <ele>125.60</ele>
        <time>2012-09-23T11:59:20Z</time>
      </trkpt>
      <trkpt lat="41.607937000" lon="2.541006100">
        <ele>124.20</ele>
        <time>2012-09-23T11:59:22Z</time>
      </trkpt>
      <trkpt lat="41.607525000" lon="2.540988100">
        <ele>121.70</ele>
        <time>2012-09-23T11:59:27Z</time>
      </trkpt>
      <trkpt lat="41.606972000" lon="2.540905100">
        <ele>120.80</ele>
        <time>2012-09-23T11:59:34Z</time>
      </trkpt>
      <trkpt lat="41.606300000" lon="2.540639100">
        <ele>120.30</ele>
        <time>2012-09-23T11:59:43Z</time>
      </trkpt>
      <trkpt lat="41.605907000" lon="2.540492100">
        <ele>118.90</ele>
        <time>2012-09-23T11:59:48Z</time>
      </trkpt>
      <trkpt lat="41.605827000" lon="2.540377100">
        <ele>115.50</ele>
        <time>2012-09-23T11:59:53Z</time>
      </trkpt>
      <trkpt lat="41.605873000" lon="2.540380100">
        <ele>113.10</ele>
        <time>2012-09-23T11:59:58Z</time>
      </trkpt>
      <trkpt lat="41.605873000" lon="2.540377100">
        <ele>113.60</ele>
        <time>2012-09-23T12:00:09Z</time>
      </trkpt>
      <trkpt lat="41.605873000" lon="2.540377100">
        <ele>113.60</ele>
        <time>2012-09-23T12:00:18Z</time>
      </trkpt>
      <trkpt lat="41.605873000" lon="2.540385100">
        <ele>114.50</ele>
        <time>2012-09-23T12:00:24Z</time>
      </trkpt>
      <trkpt lat="41.605869000" lon="2.540386100">
        <ele>114.50</ele>
        <time>2012-09-23T12:00:59Z</time>
      </trkpt>
      <trkpt lat="41.605869000" lon="2.540386100">
        <ele>114.50</ele>
        <time>2012-09-23T12:01:13Z</time>
      </trkpt>
      <trkpt lat="41.605869000" lon="2.540392100">
        <ele>115.00</ele>
        <time>2012-09-23T12:01:41Z</time>
      </trkpt>
      <trkpt lat="41.605873000" lon="2.540387100">
        <ele>115.00</ele>
        <time>2012-09-23T12:01:55Z</time>
      </trkpt>
      <trkpt lat="41.605869000" lon="2.540391100">
        <ele>115.00</ele>
        <time>2012-09-23T12:02:16Z</time>
      </trkpt>
      <trkpt lat="41.605865000" lon="2.540392100">
        <ele>115.00</ele>
        <time>2012-09-23T12:03:05Z</time>
      </trkpt>
      <trkpt lat="41.605862000" lon="2.540389100">
        <ele>115.00</ele>
        <time>2012-09-23T12:03:38Z</time>
      </trkpt>
      <trkpt lat="41.605862000" lon="2.540397100">
        <ele>115.00</ele>
        <time>2012-09-23T12:04:58Z</time>
      </trkpt>
      <trkpt lat="41.605900000" lon="2.540458100">
        <ele>115.00</ele>
        <time>2012-09-23T12:05:07Z</time>
      </trkpt>
      <trkpt lat="41.605949000" lon="2.540471100">
        <ele>115.00</ele>
        <time>2012-09-23T12:05:14Z</time>
      </trkpt>
      <trkpt lat="41.606037000" lon="2.540511100">
        <ele>115.00</ele>
        <time>2012-09-23T12:05:19Z</time>
      </trkpt>
      <trkpt lat="41.606133000" lon="2.540540100">
        <ele>115.50</ele>
        <time>2012-09-23T12:05:26Z</time>
      </trkpt>
      <trkpt lat="41.606163000" lon="2.540610100">
        <ele>115.50</ele>
        <time>2012-09-23T12:05:29Z</time>
      </trkpt>
      <trkpt lat="41.606339000" lon="2.540693100">
        <ele>116.00</ele>
        <time>2012-09-23T12:05:36Z</time>
      </trkpt>
      <trkpt lat="41.606472000" lon="2.540750100">
        <ele>116.00</ele>
        <time>2012-09-23T12:05:40Z</time>
      </trkpt>
      <trkpt lat="41.606499000" lon="2.540793100">
        <ele>116.50</ele>
        <time>2012-09-23T12:05:47Z</time>
      </trkpt>
      <trkpt lat="41.606499000" lon="2.540793100">
        <ele>116.50</ele>
        <time>2012-09-23T12:06:20Z</time>
      </trkpt>
      <trkpt lat="41.606560000" lon="2.540867100">
        <ele>116.90</ele>
        <time>2012-09-23T12:06:25Z</time>
      </trkpt>
      <trkpt lat="41.606602000" lon="2.541122100">
        <ele>117.40</ele>
        <time>2012-09-23T12:06:32Z</time>
      </trkpt>
      <trkpt lat="41.606670000" lon="2.541481100">
        <ele>118.90</ele>
        <time>2012-09-23T12:06:41Z</time>
      </trkpt>
      <trkpt lat="41.606705000" lon="2.541696100">
        <ele>120.30</ele>
        <time>2012-09-23T12:06:46Z</time>
      </trkpt>
      <trkpt lat="41.606697000" lon="2.541775100">
        <ele>120.80</ele>
        <time>2012-09-23T12:06:48Z</time>
      </trkpt>
      <trkpt lat="41.606831000" lon="2.542044100">
        <ele>123.70</ele>
        <time>2012-09-23T12:06:55Z</time>
      </trkpt>
      <trkpt lat="41.606915000" lon="2.542229100">
        <ele>127.00</ele>
        <time>2012-09-23T12:07:02Z</time>
      </trkpt>
      <trkpt lat="41.606995000" lon="2.542339100">
        <ele>127.50</ele>
        <time>2012-09-23T12:07:38Z</time>
      </trkpt>
    </trkseg>
  </trk>
</gpx>
